Time,TemperatureF,DewpointF,PressureIn,WindDirection,WindDirectionDegrees,WindSpeedMPH,WindSpeedGustMPH,Humidity,HourlyPrecipIn,Conditions,Clouds,dailyrainin,SoftwareType,DateUTC
2013-01-22 00:00:00,22.8,17.3,29.76,NE,44,2.0,2.0,79,0.00,,OVC028,0.00,VWS V14.01,2013-01-22 05:00:00,
2013-01-22 00:01:00,22.8,17.3,29.76,ENE,60,1.0,3.0,79,0.00,,OVC028,0.00,VWS V14.01,2013-01-22 05:01:00,
2013-01-22 00:02:00,22.8,17.3,29.76,ENE,60,1.0,3.0,79,0.00,,FEW060,0.00,VWS V14.01,2013-01-22 05:02:00,
2013-01-22 00:03:00,22.8,17.3,29.76,NE,43,2.0,3.0,79,0.00,,OVC028,0.00,VWS V14.01,2013-01-22 05:03:00,
2013-01-22 00:04:00,22.8,17.3,29.76,NE,53,2.0,2.0,79,0.00,,FEW060,0.00,VWS V14.01,2013-01-22 05:04:00,
2013-01-22 00:05:00,22.8,17.3,29.76,ENE,58,2.0,3.0,79,0.00,,FEW060,0.00,VWS V14.01,2013-01-22 05:05:00,
2013-01-22 00:06:00,22.8,17.3,29.76,NE,49,1.0,2.0,79,0.00,,FEW060,0.00,VWS V14.01,2013-01-22 05:06:00,
2013-01-22 00:07:00,22.7,17.2,29.76,NE,51,3.0,4.0,79,0.00,,FEW060,0.00,VWS V14.01,2013-01-22 05:07:00,
2013-01-22 00:08:00,22.7,16.9,29.76,ENE,58,2.0,2.0,78,0.00,,OVC028,0.00,VWS V14.01,2013-01-22 05:08:00,
2013-01-22 00:09:00,22.7,17.2,29.76,NE,46,1.0,3.0,79,0.00,,FEW060,0.00,VWS V14.01,2013-01-22 05:09:00,
2013-01-22 00:10:00,22.7,16.9,29.76,ENE,63,2.0,3.0,78,0.00,,FEW060,0.00,VWS V14.01,2013-01-22 05:10:00,
2013-01-22 00:11:00,22.6,17.1,29.76,NNE,12,2.0,2.0,79,0.00,,FEW060,0.00,VWS V14.01,2013-01-22 05:11:00,
2013-01-22 00:12:00,22.7,17.2,29.77,ENE,70,1.0,2.0,79,0.00,,FEW060,0.00,VWS V14.01,2013-01-22 05:12:00,
2013-01-22 00:13:00,22.6,17.1,29.77,NNE,33,1.0,1.0,79,0.00,,OVC028,0.00,VWS V14.01,2013-01-22 05:13:00,
2013-01-22 00:14:00,22.6,17.1,29.77,NE,49,1.0,2.0,79,0.00,,FEW060,0.00,VWS V14.01,2013-01-22 05:14:00,
2013-01-22 00:15:00,22.6,17.1,29.77,NNE,20,0.0,1.0,79,0.00,,FEW060,0.00,VWS V14.01,2013-01-22 05:15:00,
2013-01-22 00:16:00,22.6,17.1,29.76,NNE,23,1.0,1.0,79,0.00,,FEW060,0.00,VWS V14.01,2013-01-22 05:16:00,
2013-01-22 00:17:00,22.6,17.1,29.76,NNW,341,1.0,2.0,79,0.00,,FEW060,0.00,VWS V14.01,2013-01-22 05:17:00,
2013-01-22 00:18:00,22.5,17.0,29.75,ENE,74,2.0,2.0,79,0.00,,OVC028,0.00,VWS V14.01,2013-01-22 05:18:00,
2013-01-22 00:19:00,22.6,17.1,29.75,NE,47,2.0,2.0,79,0.00,,FEW060,0.00,VWS V14.01,2013-01-22 05:19:00,
2013-01-22 00:20:00,22.5,17.0,29.75,ENE,74,1.0,2.0,79,0.00,,FEW060,0.00,VWS V14.01,2013-01-22 05:20:00,
2013-01-22 00:21:00,22.5,17.0,29.75,North,353,1.0,2.0,79,0.00,,FEW060,0.00,VWS V14.01,2013-01-22 05:21:00,
2013-01-22 00:22:00,22.5,17.0,29.76,North,352,0.0,1.0,79,0.00,,FEW060,0.00,VWS V14.01,2013-01-22 05:22:00,
2013-01-22 00:23:00,22.5,17.0,29.76,North,352,1.0,1.0,79,0.00,,FEW060,0.00,VWS V14.01,2013-01-22 05:23:00,
2013-01-22 00:24:00,22.5,17.0,29.76,NNW,343,0.0,1.0,79,0.00,,OVC028,0.00,VWS V14.01,2013-01-22 05:24:00,
2013-01-22 00:25:00,22.5,17.0,29.76,NNW,343,0.0,1.0,79,0.00,,FEW060,0.00,VWS V14.01,2013-01-22 05:25:00,
2013-01-22 00:26:00,22.5,17.0,29.76,NNW,343,0.0,1.0,79,0.00,,FEW060,0.00,VWS V14.01,2013-01-22 05:26:00,
2013-01-22 00:27:00,22.5,17.0,29.76,WNW,302,0.0,1.0,79,0.00,,FEW060,0.00,VWS V14.01,2013-01-22 05:27:00,
2013-01-22 00:28:00,22.5,17.0,29.75,WNW,290,0.0,1.0,79,0.00,,FEW060,0.00,VWS V14.01,2013-01-22 05:28:00,
2013-01-22 00:29:00,22.4,16.9,29.75,NNE,27,0.0,1.0,79,0.00,,OVC028,0.00,VWS V14.01,2013-01-22 05:29:00,
2013-01-22 00:30:00,22.4,16.9,29.75,NNE,27,0.0,1.0,79,0.00,,FEW060,0.00,VWS V14.01,2013-01-22 05:30:00,
2013-01-22 00:31:00,22.4,16.9,29.75,NNW,333,1.0,1.0,79,0.00,,FEW060,0.00,VWS V14.01,2013-01-22 05:31:00,
2013-01-22 00:32:00,22.4,16.9,29.75,NNE,23,0.0,2.0,79,0.00,,FEW060,0.00,VWS V14.01,2013-01-22 05:32:00,
2013-01-22 00:33:00,22.4,16.9,29.75,NE,53,1.0,1.0,79,0.00,,FEW060,0.00,VWS V14.01,2013-01-22 05:33:00,
2013-01-22 00:34:00,22.4,16.9,29.75,NNW,347,0.0,1.0,79,0.00,,OVC028,0.00,VWS V14.01,2013-01-22 05:34:00,
2013-01-22 00:35:00,22.4,16.9,29.75,NNW,347,0.0,1.0,79,0.00,,FEW060,0.00,VWS V14.01,2013-01-22 05:35:00,
2013-01-22 00:36:00,22.4,16.9,29.76,NNW,347,0.0,0.0,79,0.00,,FEW060,0.00,VWS V14.01,2013-01-22 05:36:00,
2013-01-22 00:37:00,22.4,16.9,29.76,North,350,1.0,1.0,79,0.00,,FEW060,0.00,VWS V14.01,2013-01-22 05:37:00,
2013-01-22 00:38:00,22.4,16.9,29.75,West,278,1.0,1.0,79,0.00,,FEW060,0.00,VWS V14.01,2013-01-22 05:38:00,
2013-01-22 00:39:00,22.3,16.8,29.75,North,358,0.0,1.0,79,0.00,,OVC038,0.00,VWS V14.01,2013-01-22 05:39:00,
2013-01-22 00:40:00,22.3,16.8,29.75,North,358,0.0,1.0,79,0.00,,FEW060,0.00,VWS V14.01,2013-01-22 05:40:00,
2013-01-22 00:41:00,22.3,16.8,29.75,WNW,299,0.0,1.0,79,0.00,,FEW060,0.00,VWS V14.01,2013-01-22 05:41:00,
2013-01-22 00:42:00,22.3,16.8,29.76,WNW,299,0.0,0.0,79,0.00,,FEW060,0.00,VWS V14.01,2013-01-22 05:42:00,
2013-01-22 00:43:00,22.3,16.8,29.76,WNW,300,0.0,0.0,79,0.00,,FEW060,0.00,VWS V14.01,2013-01-22 05:43:00,
2013-01-22 00:44:00,22.3,16.8,29.75,WSW,250,0.0,1.0,79,0.00,,OVC038,0.00,VWS V14.01,2013-01-22 05:44:00,
2013-01-22 00:45:00,22.3,16.8,29.75,WSW,250,0.0,1.0,79,0.00,,FEW060,0.00,VWS V14.01,2013-01-22 05:45:00,
2013-01-22 00:46:00,22.3,16.8,29.75,WSW,250,0.0,1.0,79,0.00,,FEW060,0.00,VWS V14.01,2013-01-22 05:46:00,
2013-01-22 00:47:00,22.3,16.8,29.75,WSW,250,0.0,0.0,79,0.00,,FEW060,0.00,VWS V14.01,2013-01-22 05:47:00,
2013-01-22 00:48:00,22.3,16.8,29.75,WSW,257,0.0,0.0,79,0.00,,FEW060,0.00,VWS V14.01,2013-01-22 05:48:00,
2013-01-22 00:49:00,22.3,16.8,29.75,NNE,20,0.0,1.0,79,0.00,,OVC038,0.00,VWS V14.01,2013-01-22 05:49:00,
2013-01-22 00:50:00,22.3,16.8,29.75,NNE,20,0.0,1.0,79,0.00,,FEW060,0.00,VWS V14.01,2013-01-22 05:50:00,
2013-01-22 00:51:00,22.3,16.8,29.75,NNE,20,0.0,1.0,79,0.00,,FEW060,0.00,VWS V14.01,2013-01-22 05:51:00,
2013-01-22 00:52:00,22.2,16.7,29.75,North,4,1.0,1.0,79,0.00,,FEW060,0.00,VWS V14.01,2013-01-22 05:52:00,
2013-01-22 00:53:00,22.2,16.7,29.75,North,5,1.0,1.0,79,0.00,,FEW060,0.00,VWS V14.01,2013-01-22 05:53:00,
2013-01-22 00:54:00,22.3,16.8,29.74,North,358,2.0,2.0,79,0.00,,OVC038,0.00,VWS V14.01,2013-01-22 05:54:00,
2013-01-22 00:55:00,22.3,16.8,29.74,North,358,2.0,2.0,79,0.00,,FEW060,0.00,VWS V14.01,2013-01-22 05:55:00,
2013-01-22 00:56:00,22.3,16.8,29.74,North,6,2.0,2.0,79,0.00,,FEW060,0.00,VWS V14.01,2013-01-22 05:56:00,
2013-01-22 00:57:00,22.3,16.8,29.74,North,350,1.0,2.0,79,0.00,,FEW060,0.00,VWS V14.01,2013-01-22 05:57:00,
2013-01-22 00:58:00,22.3,16.8,29.73,North,9,2.0,2.0,79,0.00,,FEW060,0.00,VWS V14.01,2013-01-22 05:58:00,
2013-01-22 00:59:00,22.3,16.8,29.73,NNE,18,0.0,1.0,79,0.00,,OVC038,0.00,VWS V14.01,2013-01-22 05:59:00,
2013-01-22 01:00:00,22.3,16.8,29.73,NNE,18,0.0,1.0,79,0.00,,FEW060,0.00,VWS V14.01,2013-01-22 06:00:00,
2013-01-22 01:01:00,22.3,16.8,29.73,NNE,13,1.0,2.0,79,0.00,,FEW060,0.00,VWS V14.01,2013-01-22 06:01:00,
2013-01-22 01:02:00,22.3,16.8,29.73,North,9,2.0,4.0,79,0.00,,FEW060,0.00,VWS V14.01,2013-01-22 06:02:00,
2013-01-22 01:03:00,22.3,16.8,29.73,North,5,1.0,2.0,79,0.00,,FEW060,0.00,VWS V14.01,2013-01-22 06:03:00,
2013-01-22 01:04:00,22.3,16.8,29.74,North,356,1.0,2.0,79,0.00,,OVC038,0.00,VWS V14.01,2013-01-22 06:04:00,
2013-01-22 01:06:00,22.3,16.8,29.74,NE,50,2.0,2.0,79,0.00,,FEW060,0.00,VWS V14.01,2013-01-22 06:06:00,
2013-01-22 01:07:00,22.3,16.8,29.74,NNE,18,0.0,2.0,79,0.00,,FEW060,0.00,VWS V14.01,2013-01-22 06:07:00,
2013-01-22 01:08:00,22.3,16.8,29.74,North,355,1.0,3.0,79,0.00,,FEW060,0.00,VWS V14.01,2013-01-22 06:08:00,
2013-01-22 01:09:00,22.3,16.8,29.74,East,79,1.0,1.0,79,0.00,,OVC038,0.00,VWS V14.01,2013-01-22 06:09:00,
2013-01-22 01:10:00,22.3,16.8,29.74,East,79,1.0,1.0,79,0.00,,FEW060,0.00,VWS V14.01,2013-01-22 06:10:00,
2013-01-22 01:11:00,22.3,16.8,29.75,North,353,1.0,2.0,79,0.00,,FEW060,0.00,VWS V14.01,2013-01-22 06:11:00,
2013-01-22 01:12:00,22.3,16.5,29.75,North,354,0.0,1.0,78,0.00,,FEW060,0.00,VWS V14.01,2013-01-22 06:12:00,
2013-01-22 01:13:00,22.2,16.4,29.75,NW,325,2.0,2.0,78,0.00,,FEW060,0.00,VWS V14.01,2013-01-22 06:13:00,
2013-01-22 01:14:00,22.2,16.4,29.75,NNW,346,0.0,2.0,78,0.00,,OVC038,0.00,VWS V14.01,2013-01-22 06:14:00,
2013-01-22 01:15:00,22.2,16.4,29.75,NNW,346,0.0,2.0,78,0.00,,FEW060,0.00,VWS V14.01,2013-01-22 06:15:00,
2013-01-22 01:16:00,22.2,16.4,29.75,NNE,20,1.0,3.0,78,0.00,,FEW060,0.00,VWS V14.01,2013-01-22 06:16:00,
2013-01-22 01:17:00,22.2,16.4,29.75,NE,56,1.0,1.0,78,0.00,,FEW060,0.00,VWS V14.01,2013-01-22 06:17:00,
2013-01-22 01:18:00,22.2,16.4,29.75,NNE,29,1.0,2.0,78,0.00,,FEW060,0.00,VWS V14.01,2013-01-22 06:18:00,
2013-01-22 01:19:00,22.2,16.4,29.75,North,354,1.0,2.0,78,0.00,,OVC038,0.00,VWS V14.01,2013-01-22 06:19:00,
2013-01-22 01:20:00,22.2,16.4,29.75,North,354,1.0,2.0,78,0.00,,FEW060,0.00,VWS V14.01,2013-01-22 06:20:00,
2013-01-22 01:21:00,22.2,16.4,29.75,NE,47,1.0,2.0,78,0.00,,FEW060,0.00,VWS V14.01,2013-01-22 06:21:00,
2013-01-22 01:22:00,22.2,16.4,29.75,NW,307,1.0,3.0,78,0.00,,FEW060,0.00,VWS V14.01,2013-01-22 06:22:00,
2013-01-22 01:23:00,22.2,16.4,29.74,NNW,348,1.0,2.0,78,0.00,,FEW060,0.00,VWS V14.01,2013-01-22 06:23:00,
2013-01-22 01:24:00,22.2,16.4,29.74,NNW,332,2.0,4.0,78,0.00,,OVC038,0.00,VWS V14.01,2013-01-22 06:24:00,
2013-01-22 01:25:00,22.2,16.4,29.74,NNW,332,2.0,4.0,78,0.00,,FEW060,0.00,VWS V14.01,2013-01-22 06:25:00,
2013-01-22 01:26:00,22.1,16.3,29.74,NNW,338,1.0,2.0,78,0.00,,FEW060,0.00,VWS V14.01,2013-01-22 06:26:00,
2013-01-22 01:27:00,22.2,16.1,29.74,NE,43,1.0,2.0,77,0.00,,FEW060,0.00,VWS V14.01,2013-01-22 06:27:00,
2013-01-22 01:28:00,22.2,16.1,29.74,NE,36,1.0,3.0,77,0.00,,FEW060,0.00,VWS V14.01,2013-01-22 06:28:00,
2013-01-22 01:29:00,22.2,16.1,29.74,NNW,333,1.0,2.0,77,0.00,,OVC038,0.00,VWS V14.01,2013-01-22 06:29:00,
2013-01-22 01:30:00,22.2,16.1,29.74,NNW,333,1.0,2.0,77,0.00,,FEW060,0.00,VWS V14.01,2013-01-22 06:30:00,
2013-01-22 01:31:00,22.2,16.1,29.74,NW,325,1.0,2.0,77,0.00,,FEW060,0.00,VWS V14.01,2013-01-22 06:31:00,
2013-01-22 01:32:00,22.2,16.1,29.74,NE,36,1.0,2.0,77,0.00,,FEW060,0.00,VWS V14.01,2013-01-22 06:32:00,
2013-01-22 01:33:00,22.2,16.1,29.74,NE,46,1.0,2.0,77,0.00,,FEW060,0.00,VWS V14.01,2013-01-22 06:33:00,
2013-01-22 01:34:00,22.2,16.1,29.74,NW,321,2.0,2.0,77,0.00,,OVC038,0.00,VWS V14.01,2013-01-22 06:34:00,
2013-01-22 01:35:00,22.2,16.1,29.74,North,8,1.0,2.0,77,0.00,,FEW060,0.00,VWS V14.01,2013-01-22 06:35:00,
2013-01-22 01:36:00,22.2,16.1,29.74,NNW,327,2.0,3.0,77,0.00,,FEW060,0.00,VWS V14.01,2013-01-22 06:36:00,
2013-01-22 01:37:00,22.2,16.1,29.74,NE,43,2.0,3.0,77,0.00,,FEW060,0.00,VWS V14.01,2013-01-22 06:37:00,
2013-01-22 01:38:00,22.2,15.8,29.74,North,359,2.0,3.0,76,0.00,,FEW060,0.00,VWS V14.01,2013-01-22 06:38:00,
2013-01-22 01:39:00,22.2,15.8,29.74,North,6,1.0,2.0,76,0.00,,,0.00,VWS V14.01,2013-01-22 06:39:00,
2013-01-22 01:40:00,22.2,15.8,29.74,NNE,16,1.0,2.0,76,0.00,,FEW060,0.00,VWS V14.01,2013-01-22 06:40:00,
2013-01-22 01:41:00,22.2,15.8,29.74,WNW,302,2.0,3.0,76,0.00,,FEW060,0.00,VWS V14.01,2013-01-22 06:41:00,
2013-01-22 01:42:00,22.2,15.8,29.74,NE,41,2.0,2.0,76,0.00,,FEW060,0.00,VWS V14.01,2013-01-22 06:42:00,
2013-01-22 01:43:00,22.2,15.8,29.74,NE,44,1.0,2.0,76,0.00,,FEW060,0.00,VWS V14.01,2013-01-22 06:43:00,
2013-01-22 01:44:00,22.2,15.8,29.74,NW,315,2.0,3.0,76,0.00,,,0.00,VWS V14.01,2013-01-22 06:44:00,
2013-01-22 01:45:00,22.2,15.8,29.74,North,8,1.0,1.0,76,0.00,,FEW060,0.00,VWS V14.01,2013-01-22 06:45:00,
2013-01-22 01:46:00,22.2,15.8,29.74,NW,320,2.0,3.0,76,0.00,,FEW060,0.00,VWS V14.01,2013-01-22 06:46:00,
2013-01-22 01:47:00,22.1,15.7,29.75,NW,325,0.0,2.0,76,0.00,,FEW060,0.00,VWS V14.01,2013-01-22 06:47:00,
2013-01-22 01:48:00,22.1,15.7,29.75,NNW,344,2.0,2.0,76,0.00,,FEW060,0.00,VWS V14.01,2013-01-22 06:48:00,
2013-01-22 01:49:00,22.1,15.7,29.75,NNW,341,3.0,4.0,76,0.00,,FEW060,0.00,VWS V14.01,2013-01-22 06:49:00,
2013-01-22 01:50:00,22.1,15.4,29.75,North,5,1.0,2.0,75,0.00,,,0.00,VWS V14.01,2013-01-22 06:50:00,
2013-01-22 01:51:00,22.1,15.4,29.75,North,5,1.0,2.0,75,0.00,,FEW060,0.00,VWS V14.01,2013-01-22 06:51:00,
2013-01-22 01:52:00,22.1,15.4,29.75,NE,44,0.0,2.0,75,0.00,,FEW060,0.00,VWS V14.01,2013-01-22 06:52:00,
2013-01-22 01:53:00,22.1,15.7,29.75,NNE,30,0.0,0.0,76,0.00,,FEW060,0.00,VWS V14.01,2013-01-22 06:53:00,
2013-01-22 01:54:00,22.1,15.7,29.75,ENE,65,3.0,3.0,76,0.00,,FEW060,0.00,VWS V14.01,2013-01-22 06:54:00,
2013-01-22 01:55:00,22.1,15.7,29.75,ENE,67,0.0,2.0,76,0.00,,,0.00,VWS V14.01,2013-01-22 06:55:00,
2013-01-22 01:56:00,22.1,15.7,29.75,ENE,67,0.0,2.0,76,0.00,,FEW060,0.00,VWS V14.01,2013-01-22 06:56:00,
2013-01-22 01:57:00,22.1,15.7,29.75,ENE,67,0.0,1.0,76,0.00,,FEW060,0.00,VWS V14.01,2013-01-22 06:57:00,
2013-01-22 01:58:00,22.2,15.8,29.75,ENE,67,0.0,1.0,76,0.00,,FEW060,0.00,VWS V14.01,2013-01-22 06:58:00,
2013-01-22 01:59:00,22.2,15.8,29.75,NNE,25,0.0,1.0,76,0.00,,FEW060,0.00,VWS V14.01,2013-01-22 06:59:00,
2013-01-22 02:00:00,22.2,15.8,29.75,NNE,26,1.0,1.0,76,0.00,,,0.00,VWS V14.01,2013-01-22 07:00:00,
2013-01-22 02:01:00,22.2,15.8,29.75,NNE,26,1.0,1.0,76,0.00,,FEW060,0.00,VWS V14.01,2013-01-22 07:01:00,
2013-01-22 02:02:00,22.2,15.5,29.75,West,274,1.0,2.0,75,0.00,,FEW060,0.00,VWS V14.01,2013-01-22 07:02:00,
2013-01-22 02:03:00,22.1,15.4,29.75,West,280,2.0,2.0,75,0.00,,FEW060,0.00,VWS V14.01,2013-01-22 07:03:00,
2013-01-22 02:04:00,22.1,15.4,29.75,NNW,336,1.0,2.0,75,0.00,,FEW060,0.00,VWS V14.01,2013-01-22 07:04:00,
2013-01-22 02:05:00,22.1,15.4,29.75,NNW,347,2.0,2.0,75,0.00,,,0.00,VWS V14.01,2013-01-22 07:05:00,
2013-01-22 02:06:00,22.1,15.4,29.75,NE,51,2.0,3.0,75,0.00,,FEW060,0.00,VWS V14.01,2013-01-22 07:06:00,
2013-01-22 02:07:00,22.1,15.4,29.75,NNW,347,1.0,3.0,75,0.00,,FEW060,0.00,VWS V14.01,2013-01-22 07:07:00,
2013-01-22 02:08:00,22.1,15.4,29.75,North,357,2.0,3.0,75,0.00,,FEW060,0.00,VWS V14.01,2013-01-22 07:08:00,
2013-01-22 02:09:00,22.1,15.4,29.75,NNE,15,2.0,3.0,75,0.00,,FEW060,0.00,VWS V14.01,2013-01-22 07:09:00,
2013-01-22 02:10:00,22.0,15.3,29.75,North,8,1.0,2.0,75,0.00,,,0.00,VWS V14.01,2013-01-22 07:10:00,
2013-01-22 02:11:00,22.0,15.3,29.75,North,8,1.0,2.0,75,0.00,,FEW060,0.00,VWS V14.01,2013-01-22 07:11:00,
2013-01-22 02:12:00,22.0,15.3,29.75,North,349,0.0,1.0,75,0.00,,FEW060,0.00,VWS V14.01,2013-01-22 07:12:00,
2013-01-22 02:13:00,22.0,15.3,29.75,NNE,15,2.0,2.0,75,0.00,,FEW060,0.00,VWS V14.01,2013-01-22 07:13:00,
2013-01-22 02:14:00,22.0,15.3,29.75,North,11,0.0,2.0,75,0.00,,FEW060,0.00,VWS V14.01,2013-01-22 07:14:00,
2013-01-22 02:15:00,22.0,15.3,29.75,NE,37,2.0,3.0,75,0.00,,,0.00,VWS V14.01,2013-01-22 07:15:00,
2013-01-22 02:16:00,22.0,15.3,29.75,NE,37,2.0,3.0,75,0.00,,FEW060,0.00,VWS V14.01,2013-01-22 07:16:00,
2013-01-22 02:17:00,22.1,15.4,29.74,North,4,1.0,4.0,75,0.00,,FEW060,0.00,VWS V14.01,2013-01-22 07:17:00,
2013-01-22 02:18:00,22.1,15.4,29.75,NNW,338,1.0,3.0,75,0.00,,FEW060,0.00,VWS V14.01,2013-01-22 07:18:00,
2013-01-22 02:19:00,22.1,15.4,29.75,NNE,25,0.0,2.0,75,0.00,,FEW060,0.00,VWS V14.01,2013-01-22 07:19:00,
2013-01-22 02:20:00,22.0,15.3,29.75,NNW,342,2.0,2.0,75,0.00,,,0.00,VWS V14.01,2013-01-22 07:20:00,
2013-01-22 02:21:00,22.0,15.3,29.75,NNW,342,2.0,2.0,75,0.00,,FEW060,0.00,VWS V14.01,2013-01-22 07:21:00,
2013-01-22 02:22:00,22.1,15.4,29.75,NNE,16,1.0,3.0,75,0.00,,FEW060,0.00,VWS V14.01,2013-01-22 07:22:00,
2013-01-22 02:23:00,22.1,15.4,29.75,NW,322,2.0,3.0,75,0.00,,FEW060,0.00,VWS V14.01,2013-01-22 07:23:00,
2013-01-22 02:24:00,22.1,15.4,29.75,East,81,2.0,3.0,75,0.00,,FEW060,0.00,VWS V14.01,2013-01-22 07:24:00,
2013-01-22 02:25:00,22.0,15.3,29.75,NE,39,2.0,2.0,75,0.00,,,0.00,VWS V14.01,2013-01-22 07:25:00,
2013-01-22 02:26:00,22.1,15.4,29.75,NNE,30,0.0,3.0,75,0.00,,FEW060,0.00,VWS V14.01,2013-01-22 07:26:00,
2013-01-22 02:27:00,22.1,15.4,29.75,NNE,12,2.0,4.0,75,0.00,,FEW060,0.00,VWS V14.01,2013-01-22 07:27:00,
2013-01-22 02:28:00,22.0,15.3,29.75,NNE,13,1.0,2.0,75,0.00,,FEW060,0.00,VWS V14.01,2013-01-22 07:28:00,
2013-01-22 02:29:00,22.1,15.4,29.75,NNE,16,2.0,3.0,75,0.00,,FEW060,0.00,VWS V14.01,2013-01-22 07:29:00,
2013-01-22 02:30:00,22.1,15.4,29.74,NNE,12,3.0,4.0,75,0.00,,,0.00,VWS V14.01,2013-01-22 07:30:00,
2013-01-22 02:31:00,22.1,15.4,29.74,NNE,30,4.0,4.0,75,0.00,,FEW060,0.00,VWS V14.01,2013-01-22 07:31:00,
2013-01-22 02:32:00,22.1,15.4,29.74,NNW,343,1.0,4.0,75,0.00,,FEW060,0.00,VWS V14.01,2013-01-22 07:32:00,
2013-01-22 02:33:00,22.1,15.4,29.75,NE,36,1.0,2.0,75,0.00,,FEW060,0.00,VWS V14.01,2013-01-22 07:33:00,
2013-01-22 02:34:00,22.1,15.4,29.75,NNE,30,0.0,1.0,75,0.00,,FEW060,0.00,VWS V14.01,2013-01-22 07:34:00,
2013-01-22 02:35:00,22.1,15.7,29.75,NNE,15,4.0,4.0,76,0.00,,,0.00,VWS V14.01,2013-01-22 07:35:00,
2013-01-22 02:36:00,22.1,15.7,29.75,NNE,16,1.0,3.0,76,0.00,,FEW060,0.00,VWS V14.01,2013-01-22 07:36:00,
2013-01-22 02:37:00,22.1,15.7,29.75,NNW,345,2.0,4.0,76,0.00,,FEW060,0.00,VWS V14.01,2013-01-22 07:37:00,
2013-01-22 02:38:00,22.1,15.7,29.75,NNE,29,1.0,2.0,76,0.00,,FEW060,0.00,VWS V14.01,2013-01-22 07:38:00,
2013-01-22 02:39:00,22.1,15.7,29.74,NNE,23,2.0,3.0,76,0.00,,FEW060,0.00,VWS V14.01,2013-01-22 07:39:00,
2013-01-22 02:40:00,22.0,15.6,29.74,NNE,29,0.0,1.0,76,0.00,,,0.00,VWS V14.01,2013-01-22 07:40:00,
2013-01-22 02:41:00,22.0,15.6,29.74,NNE,33,1.0,3.0,76,0.00,,FEW060,0.00,VWS V14.01,2013-01-22 07:41:00,
2013-01-22 02:42:00,22.0,15.6,29.74,North,358,1.0,2.0,76,0.00,,FEW060,0.00,VWS V14.01,2013-01-22 07:42:00,
2013-01-22 02:43:00,22.0,15.6,29.74,NNW,345,1.0,2.0,76,0.00,,FEW060,0.00,VWS V14.01,2013-01-22 07:43:00,
2013-01-22 02:44:00,22.0,15.6,29.74,NE,39,1.0,2.0,76,0.00,,FEW060,0.00,VWS V14.01,2013-01-22 07:44:00,
2013-01-22 02:45:00,22.0,15.6,29.74,North,6,1.0,1.0,76,0.00,,,0.00,VWS V14.01,2013-01-22 07:45:00,
2013-01-22 02:46:00,22.0,15.6,29.74,North,349,1.0,2.0,76,0.00,,FEW060,0.00,VWS V14.01,2013-01-22 07:46:00,
2013-01-22 02:47:00,22.0,15.6,29.75,NE,41,2.0,2.0,76,0.00,,FEW060,0.00,VWS V14.01,2013-01-22 07:47:00,
2013-01-22 02:48:00,22.0,15.3,29.74,NNW,343,5.0,5.0,75,0.00,,FEW060,0.00,VWS V14.01,2013-01-22 07:48:00,
2013-01-22 02:49:00,21.9,15.2,29.74,North,350,2.0,5.0,75,0.00,,FEW060,0.00,VWS V14.01,2013-01-22 07:49:00,
2013-01-22 02:50:00,21.9,15.2,29.74,NNE,16,2.0,2.0,75,0.00,,FEW060,0.00,VWS V14.01,2013-01-22 07:50:00,
2013-01-22 02:51:00,21.9,15.2,29.74,NW,319,2.0,3.0,75,0.00,,,0.00,VWS V14.01,2013-01-22 07:51:00,
2013-01-22 02:52:00,21.9,15.2,29.74,NNW,348,2.0,3.0,75,0.00,,FEW060,0.00,VWS V14.01,2013-01-22 07:52:00,
2013-01-22 02:53:00,21.9,15.2,29.74,NNW,330,2.0,2.0,75,0.00,,FEW060,0.00,VWS V14.01,2013-01-22 07:53:00,
2013-01-22 02:54:00,21.9,15.5,29.74,North,360,1.0,2.0,76,0.00,,FEW060,0.00,VWS V14.01,2013-01-22 07:54:00,
2013-01-22 02:55:00,21.9,15.5,29.74,North,9,2.0,2.0,76,0.00,,FEW060,0.00,VWS V14.01,2013-01-22 07:55:00,
2013-01-22 02:56:00,21.9,15.5,29.74,NNW,345,1.0,4.0,76,0.00,,,0.00,VWS V14.01,2013-01-22 07:56:00,
2013-01-22 02:57:00,21.9,15.5,29.74,NNW,344,1.0,4.0,76,0.00,,FEW060,0.00,VWS V14.01,2013-01-22 07:57:00,
2013-01-22 02:58:00,21.9,15.5,29.74,NNE,26,1.0,3.0,76,0.00,,FEW060,0.00,VWS V14.01,2013-01-22 07:58:00,
2013-01-22 02:59:00,21.9,15.5,29.74,ENE,74,4.0,4.0,76,0.00,,FEW060,0.00,VWS V14.01,2013-01-22 07:59:00,
2013-01-22 03:00:00,21.9,15.5,29.74,NE,50,3.0,4.0,76,0.00,,FEW060,0.00,VWS V14.01,2013-01-22 08:00:00,
2013-01-22 03:01:00,21.8,15.4,29.74,North,8,2.0,4.0,76,0.00,,,0.00,VWS V14.01,2013-01-22 08:01:00,
2013-01-22 03:02:00,21.8,15.4,29.74,North,8,2.0,4.0,76,0.00,,FEW060,0.00,VWS V14.01,2013-01-22 08:02:00,
2013-01-22 03:03:00,21.8,15.4,29.74,NW,313,3.0,3.0,76,0.00,,FEW060,0.00,VWS V14.01,2013-01-22 08:03:00,
2013-01-22 03:04:00,21.8,15.4,29.74,North,358,1.0,3.0,76,0.00,,FEW060,0.00,VWS V14.01,2013-01-22 08:04:00,
2013-01-22 03:06:00,21.7,15.3,29.73,NNE,32,1.0,1.0,76,0.00,,,0.00,VWS V14.01,2013-01-22 08:06:00,
2013-01-22 03:07:00,21.7,15.3,29.73,NNE,32,1.0,2.0,76,0.00,,FEW060,0.00,VWS V14.01,2013-01-22 08:07:00,
2013-01-22 03:08:00,21.7,15.6,29.73,NNW,331,1.0,1.0,77,0.00,,FEW060,0.00,VWS V14.01,2013-01-22 08:08:00,
2013-01-22 03:09:00,21.7,15.6,29.73,NNE,20,2.0,2.0,77,0.00,,FEW060,0.00,VWS V14.01,2013-01-22 08:09:00,
2013-01-22 03:10:00,21.7,15.6,29.73,NNE,23,3.0,3.0,77,0.00,,FEW060,0.00,VWS V14.01,2013-01-22 08:10:00,
2013-01-22 03:11:00,21.7,15.3,29.73,NNW,344,3.0,3.0,76,0.00,,,0.00,VWS V14.01,2013-01-22 08:11:00,
2013-01-22 03:12:00,21.7,15.3,29.73,NNW,344,3.0,3.0,76,0.00,,FEW060,0.00,VWS V14.01,2013-01-22 08:12:00,
2013-01-22 03:13:00,21.7,15.6,29.73,NE,43,2.0,3.0,77,0.00,,FEW060,0.00,VWS V14.01,2013-01-22 08:13:00,
2013-01-22 03:14:00,21.6,15.5,29.73,NNE,29,1.0,2.0,77,0.00,,FEW060,0.00,VWS V14.01,2013-01-22 08:14:00,
2013-01-22 03:15:00,21.7,15.6,29.73,NNE,20,1.0,1.0,77,0.00,,FEW060,0.00,VWS V14.01,2013-01-22 08:15:00,
2013-01-22 03:16:00,21.6,15.5,29.73,NNW,337,1.0,2.0,77,0.00,,,0.00,VWS V14.01,2013-01-22 08:16:00,
2013-01-22 03:17:00,21.6,15.5,29.73,NNW,337,1.0,2.0,77,0.00,,FEW060,0.00,VWS V14.01,2013-01-22 08:17:00,
2013-01-22 03:18:00,21.6,15.5,29.73,NNE,18,1.0,2.0,77,0.00,,FEW060,0.00,VWS V14.01,2013-01-22 08:18:00,
2013-01-22 03:19:00,21.6,15.5,29.73,North,349,1.0,2.0,77,0.00,,FEW060,0.00,VWS V14.01,2013-01-22 08:19:00,
2013-01-22 03:20:00,21.6,15.5,29.73,NNW,330,0.0,2.0,77,0.00,,FEW060,0.00,VWS V14.01,2013-01-22 08:20:00,
2013-01-22 03:21:00,21.6,15.5,29.73,NNW,330,2.0,4.0,77,0.00,,,0.00,VWS V14.01,2013-01-22 08:21:00,
2013-01-22 03:22:00,21.6,15.5,29.73,NW,325,2.0,4.0,77,0.00,,FEW060,0.00,VWS V14.01,2013-01-22 08:22:00,
2013-01-22 03:23:00,21.6,15.5,29.73,North,357,3.0,3.0,77,0.00,,FEW060,0.00,VWS V14.01,2013-01-22 08:23:00,
2013-01-22 03:24:00,21.6,15.5,29.73,NNW,339,1.0,4.0,77,0.00,,FEW060,0.00,VWS V14.01,2013-01-22 08:24:00,
2013-01-22 03:25:00,21.6,15.5,29.73,North,350,1.0,2.0,77,0.00,,FEW060,0.00,VWS V14.01,2013-01-22 08:25:00,
2013-01-22 03:26:00,21.6,15.5,29.73,NNE,29,2.0,3.0,77,0.00,,,0.00,VWS V14.01,2013-01-22 08:26:00,
2013-01-22 03:27:00,21.6,15.5,29.73,NNE,29,2.0,3.0,77,0.00,,FEW060,0.00,VWS V14.01,2013-01-22 08:27:00,
2013-01-22 03:28:00,21.5,15.4,29.73,NNE,30,4.0,4.0,77,0.00,,FEW060,0.00,VWS V14.01,2013-01-22 08:28:00,
2013-01-22 03:29:00,21.6,15.5,29.73,NNE,20,0.0,4.0,77,0.00,,FEW060,0.00,VWS V14.01,2013-01-22 08:29:00,
2013-01-22 03:30:00,21.6,15.5,29.73,NNE,18,1.0,4.0,77,0.00,,FEW060,0.00,VWS V14.01,2013-01-22 08:30:00,
2013-01-22 03:31:00,21.6,15.5,29.73,North,6,3.0,4.0,77,0.00,,,0.00,VWS V14.01,2013-01-22 08:31:00,
2013-01-22 03:32:00,21.6,15.5,29.73,North,6,3.0,4.0,77,0.00,,FEW060,0.00,VWS V14.01,2013-01-22 08:32:00,
2013-01-22 03:34:00,21.5,15.4,29.73,NNW,336,1.0,2.0,77,0.00,,FEW060,0.00,VWS V14.01,2013-01-22 08:34:00,
2013-01-22 03:35:00,21.5,15.4,29.73,North,5,1.0,2.0,77,0.00,,FEW060,0.00,VWS V14.01,2013-01-22 08:35:00,
2013-01-22 03:36:00,21.5,15.4,29.73,NNE,32,1.0,3.0,77,0.00,,,0.00,VWS V14.01,2013-01-22 08:36:00,
2013-01-22 03:37:00,21.5,15.4,29.73,NNE,32,1.0,3.0,77,0.00,,FEW060,0.00,VWS V14.01,2013-01-22 08:37:00,
2013-01-22 03:38:00,21.5,15.4,29.73,North,349,1.0,2.0,77,0.00,,FEW060,0.00,VWS V14.01,2013-01-22 08:38:00,
2013-01-22 03:39:00,21.6,15.5,29.73,NNE,26,3.0,3.0,77,0.00,,FEW060,0.00,VWS V14.01,2013-01-22 08:39:00,
2013-01-22 03:40:00,21.5,15.4,29.72,NNE,30,0.0,3.0,77,0.00,,FEW060,0.00,VWS V14.01,2013-01-22 08:40:00,
2013-01-22 03:41:00,21.5,15.4,29.73,NNW,342,1.0,3.0,77,0.00,,,0.00,VWS V14.01,2013-01-22 08:41:00,
2013-01-22 03:42:00,21.5,15.4,29.73,NNW,342,1.0,3.0,77,0.00,,FEW060,0.00,VWS V14.01,2013-01-22 08:42:00,
2013-01-22 03:43:00,21.5,15.4,29.73,North,6,1.0,2.0,77,0.00,,FEW060,0.00,VWS V14.01,2013-01-22 08:43:00,
2013-01-22 03:44:00,21.5,15.4,29.73,North,5,0.0,1.0,77,0.00,,FEW060,0.00,VWS V14.01,2013-01-22 08:44:00,
2013-01-22 03:45:00,21.5,15.7,29.73,NE,51,1.0,1.0,78,0.00,,FEW060,0.00,VWS V14.01,2013-01-22 08:45:00,
2013-01-22 03:46:00,21.5,15.7,29.73,North,353,0.0,1.0,78,0.00,,,0.00,VWS V14.01,2013-01-22 08:46:00,
2013-01-22 03:47:00,21.5,15.7,29.73,North,353,0.0,1.0,78,0.00,,FEW060,0.00,VWS V14.01,2013-01-22 08:47:00,
2013-01-22 03:48:00,21.5,15.7,29.73,NNW,345,2.0,2.0,78,0.00,,FEW060,0.00,VWS V14.01,2013-01-22 08:48:00,
2013-01-22 03:49:00,21.5,15.7,29.73,NNE,25,2.0,3.0,78,0.00,,FEW060,0.00,VWS V14.01,2013-01-22 08:49:00,
2013-01-22 03:51:00,21.5,15.7,29.72,NNW,341,0.0,1.0,78,0.00,,,0.00,VWS V14.01,2013-01-22 08:51:00,
2013-01-22 03:52:00,21.5,15.7,29.72,NNW,341,0.0,1.0,78,0.00,,FEW060,0.00,VWS V14.01,2013-01-22 08:52:00,
2013-01-22 03:53:00,21.5,15.7,29.72,North,1,2.0,2.0,78,0.00,,FEW060,0.00,VWS V14.01,2013-01-22 08:53:00,
2013-01-22 03:54:00,21.5,15.7,29.72,NNE,18,2.0,3.0,78,0.00,,FEW060,0.00,VWS V14.01,2013-01-22 08:54:00,
2013-01-22 03:55:00,21.4,15.3,29.72,NW,315,3.0,4.0,77,0.00,,FEW060,0.00,VWS V14.01,2013-01-22 08:55:00,
2013-01-22 03:56:00,21.4,15.3,29.72,NNE,33,2.0,2.0,77,0.00,,,0.00,VWS V14.01,2013-01-22 08:56:00,
2013-01-22 03:57:00,21.4,15.3,29.72,NNE,33,2.0,2.0,77,0.00,,FEW060,0.00,VWS V14.01,2013-01-22 08:57:00,
2013-01-22 03:58:00,21.3,15.5,29.72,NNW,339,2.0,3.0,78,0.00,,FEW060,0.00,VWS V14.01,2013-01-22 08:58:00,
2013-01-22 03:59:00,21.3,15.5,29.72,NNE,13,2.0,3.0,78,0.00,,FEW060,0.00,VWS V14.01,2013-01-22 08:59:00,
2013-01-22 04:00:00,21.3,15.5,29.72,North,11,1.0,3.0,78,0.00,,FEW060,0.00,VWS V14.01,2013-01-22 09:00:00,
2013-01-22 04:01:00,21.3,15.5,29.72,North,360,4.0,4.0,78,0.00,,,0.00,VWS V14.01,2013-01-22 09:01:00,
2013-01-22 04:02:00,21.3,15.5,29.72,NW,311,1.0,2.0,78,0.00,,FEW060,0.00,VWS V14.01,2013-01-22 09:02:00,
2013-01-22 04:03:00,21.3,15.5,29.72,North,352,1.0,4.0,78,0.00,,FEW060,0.00,VWS V14.01,2013-01-22 09:03:00,
2013-01-22 04:04:00,21.3,15.5,29.72,NNE,20,4.0,6.0,78,0.00,,FEW060,0.00,VWS V14.01,2013-01-22 09:04:00,
2013-01-22 04:05:00,21.3,15.5,29.72,NE,36,1.0,4.0,78,0.00,,FEW060,0.00,VWS V14.01,2013-01-22 09:05:00,
2013-01-22 04:06:00,21.3,15.5,29.72,NW,318,1.0,1.0,78,0.00,,,0.00,VWS V14.01,2013-01-22 09:06:00,
2013-01-22 04:07:00,21.3,15.5,29.72,WSW,256,0.0,1.0,78,0.00,,FEW060,0.00,VWS V14.01,2013-01-22 09:07:00,
2013-01-22 04:08:00,21.3,15.5,29.72,NE,44,2.0,2.0,78,0.00,,FEW060,0.00,VWS V14.01,2013-01-22 09:08:00,
2013-01-22 04:09:00,21.3,15.5,29.72,North,352,1.0,2.0,78,0.00,,FEW060,0.00,VWS V14.01,2013-01-22 09:09:00,
2013-01-22 04:10:00,21.3,15.5,29.72,NNE,16,0.0,4.0,78,0.00,,FEW060,0.00,VWS V14.01,2013-01-22 09:10:00,
2013-01-22 04:11:00,21.2,15.4,29.72,ENE,70,2.0,2.0,78,0.00,,,0.00,VWS V14.01,2013-01-22 09:11:00,
2013-01-22 04:12:00,21.2,15.4,29.72,NNE,15,0.0,2.0,78,0.00,,FEW060,0.00,VWS V14.01,2013-01-22 09:12:00,
2013-01-22 04:13:00,21.2,15.4,29.73,ENE,65,1.0,2.0,78,0.00,,FEW060,0.00,VWS V14.01,2013-01-22 09:13:00,
2013-01-22 04:14:00,21.2,15.4,29.73,ENE,60,1.0,1.0,78,0.00,,FEW060,0.00,VWS V14.01,2013-01-22 09:14:00,
2013-01-22 04:15:00,21.2,15.4,29.73,North,6,2.0,2.0,78,0.00,,FEW060,0.00,VWS V14.01,2013-01-22 09:15:00,
2013-01-22 04:16:00,21.2,15.4,29.73,North,351,1.0,2.0,78,0.00,,,0.00,VWS V14.01,2013-01-22 09:16:00,
2013-01-22 04:17:00,21.2,15.4,29.73,NNW,347,2.0,2.0,78,0.00,,FEW060,0.00,VWS V14.01,2013-01-22 09:17:00,
2013-01-22 04:19:00,21.2,15.4,29.72,North,6,1.0,2.0,78,0.00,,FEW060,0.00,VWS V14.01,2013-01-22 09:19:00,
2013-01-22 04:20:00,21.2,15.4,29.72,NNW,327,1.0,3.0,78,0.00,,FEW060,0.00,VWS V14.01,2013-01-22 09:20:00,
2013-01-22 04:21:00,21.2,15.4,29.73,NNE,29,0.0,1.0,78,0.00,,FEW060,0.00,VWS V14.01,2013-01-22 09:21:00,
2013-01-22 04:22:00,21.2,15.4,29.72,NNW,337,3.0,3.0,78,0.00,,,0.00,VWS V14.01,2013-01-22 09:22:00,
2013-01-22 04:23:00,21.2,15.4,29.72,North,350,2.0,3.0,78,0.00,,FEW060,0.00,VWS V14.01,2013-01-22 09:23:00,
2013-01-22 04:24:00,21.1,15.3,29.72,NW,309,2.0,2.0,78,0.00,,FEW060,0.00,VWS V14.01,2013-01-22 09:24:00,
2013-01-22 04:25:00,21.1,15.3,29.72,NNE,32,2.0,4.0,78,0.00,,FEW060,0.00,VWS V14.01,2013-01-22 09:25:00,
2013-01-22 04:26:00,21.1,15.3,29.72,NE,47,3.0,5.0,78,0.00,,FEW060,0.00,VWS V14.01,2013-01-22 09:26:00,
2013-01-22 04:27:00,21.0,14.9,29.72,North,8,2.0,4.0,77,0.00,,,0.00,VWS V14.01,2013-01-22 09:27:00,
2013-01-22 04:28:00,21.0,14.9,29.72,North,8,2.0,4.0,77,0.00,,FEW060,0.00,VWS V14.01,2013-01-22 09:28:00,
2013-01-22 04:29:00,21.0,14.9,29.72,NNW,340,3.0,4.0,77,0.00,,FEW060,0.00,VWS V14.01,2013-01-22 09:29:00,
2013-01-22 04:30:00,21.0,14.9,29.72,North,1,2.0,4.0,77,0.00,,FEW060,0.00,VWS V14.01,2013-01-22 09:30:00,
2013-01-22 04:31:00,21.0,14.9,29.72,North,4,3.0,5.0,77,0.00,,FEW060,0.00,VWS V14.01,2013-01-22 09:31:00,
2013-01-22 04:32:00,20.9,14.8,29.72,NNW,343,1.0,4.0,77,0.00,,,0.00,VWS V14.01,2013-01-22 09:32:00,
2013-01-22 04:33:00,20.9,14.8,29.72,NNW,343,1.0,4.0,77,0.00,,FEW060,0.00,VWS V14.01,2013-01-22 09:33:00,
2013-01-22 04:34:00,20.9,14.8,29.72,NNW,345,1.0,2.0,77,0.00,,FEW060,0.00,VWS V14.01,2013-01-22 09:34:00,
2013-01-22 04:35:00,20.9,14.8,29.72,WNW,297,3.0,3.0,77,0.00,,FEW060,0.00,VWS V14.01,2013-01-22 09:35:00,
2013-01-22 04:36:00,20.9,14.8,29.72,NNE,15,1.0,3.0,77,0.00,,FEW060,0.00,VWS V14.01,2013-01-22 09:36:00,
2013-01-22 04:37:00,20.9,15.1,29.72,NE,43,0.0,2.0,78,0.00,,,0.00,VWS V14.01,2013-01-22 09:37:00,
2013-01-22 04:38:00,20.9,15.1,29.72,NE,43,0.0,2.0,78,0.00,,FEW060,0.00,VWS V14.01,2013-01-22 09:38:00,
2013-01-22 04:39:00,20.8,15.0,29.72,East,98,1.0,1.0,78,0.00,,FEW060,0.00,VWS V14.01,2013-01-22 09:39:00,
2013-01-22 04:40:00,20.9,15.1,29.72,NE,39,1.0,2.0,78,0.00,,FEW060,0.00,VWS V14.01,2013-01-22 09:40:00,
2013-01-22 04:41:00,20.8,15.0,29.72,ENE,57,0.0,3.0,78,0.00,,FEW060,0.00,VWS V14.01,2013-01-22 09:41:00,
2013-01-22 04:42:00,20.8,14.7,29.72,NNW,346,2.0,2.0,77,0.00,,,0.00,VWS V14.01,2013-01-22 09:42:00,
2013-01-22 04:43:00,20.8,14.7,29.72,NNW,346,2.0,2.0,77,0.00,,FEW060,0.00,VWS V14.01,2013-01-22 09:43:00,
2013-01-22 04:44:00,20.8,14.7,29.72,West,261,2.0,2.0,77,0.00,,FEW060,0.00,VWS V14.01,2013-01-22 09:44:00,
2013-01-22 04:45:00,20.8,14.7,29.72,NW,315,1.0,3.0,77,0.00,,FEW060,0.00,VWS V14.01,2013-01-22 09:45:00,
2013-01-22 04:46:00,20.8,14.7,29.72,NNE,30,3.0,3.0,77,0.00,,FEW060,0.00,VWS V14.01,2013-01-22 09:46:00,
2013-01-22 04:47:00,20.7,14.6,29.72,North,1,1.0,5.0,77,0.00,,,0.00,VWS V14.01,2013-01-22 09:47:00,
2013-01-22 04:48:00,20.7,14.6,29.72,North,1,1.0,5.0,77,0.00,,FEW060,0.00,VWS V14.01,2013-01-22 09:48:00,
2013-01-22 04:49:00,20.7,14.6,29.72,NNW,332,3.0,4.0,77,0.00,,FEW060,0.00,VWS V14.01,2013-01-22 09:49:00,
2013-01-22 04:50:00,20.7,14.6,29.72,North,356,1.0,4.0,77,0.00,,FEW060,0.00,VWS V14.01,2013-01-22 09:50:00,
2013-01-22 04:51:00,20.7,14.6,29.72,NNE,29,1.0,1.0,77,0.00,,FEW060,0.00,VWS V14.01,2013-01-22 09:51:00,
2013-01-22 04:52:00,20.7,14.9,29.72,WSW,248,1.0,2.0,78,0.00,,,0.00,VWS V14.01,2013-01-22 09:52:00,
2013-01-22 04:53:00,20.7,14.9,29.72,WSW,248,1.0,2.0,78,0.00,,FEW060,0.00,VWS V14.01,2013-01-22 09:53:00,
2013-01-22 04:54:00,20.7,14.9,29.72,WNW,302,1.0,1.0,78,0.00,,FEW060,0.00,VWS V14.01,2013-01-22 09:54:00,
2013-01-22 04:55:00,20.7,14.9,29.72,North,350,0.0,1.0,78,0.00,,FEW060,0.00,VWS V14.01,2013-01-22 09:55:00,
2013-01-22 04:56:00,20.7,14.9,29.72,NNE,23,0.0,1.0,78,0.00,,FEW060,0.00,VWS V14.01,2013-01-22 09:56:00,
2013-01-22 04:57:00,20.7,14.9,29.72,West,260,3.0,5.0,78,0.00,,,0.00,VWS V14.01,2013-01-22 09:57:00,
2013-01-22 04:58:00,20.7,14.9,29.72,West,260,3.0,5.0,78,0.00,,FEW060,0.00,VWS V14.01,2013-01-22 09:58:00,
2013-01-22 04:59:00,20.7,14.6,29.72,North,360,1.0,3.0,77,0.00,,FEW060,0.00,VWS V14.01,2013-01-22 09:59:00,
2013-01-22 05:00:00,20.7,14.6,29.72,North,1,2.0,5.0,77,0.00,,FEW060,0.00,VWS V14.01,2013-01-22 10:00:00,
2013-01-22 05:01:00,20.7,14.6,29.72,NNE,30,1.0,4.0,77,0.00,,FEW060,0.00,VWS V14.01,2013-01-22 10:01:00,
2013-01-22 05:02:00,20.6,14.6,29.72,East,81,0.0,0.0,77,0.00,,,0.00,VWS V14.01,2013-01-22 10:02:00,
2013-01-22 05:03:00,20.7,14.6,29.72,East,101,0.0,1.0,77,0.00,,FEW060,0.00,VWS V14.01,2013-01-22 10:03:00,
2013-01-22 05:04:00,20.7,14.6,29.72,NNE,15,1.0,3.0,77,0.00,,FEW060,0.00,VWS V14.01,2013-01-22 10:04:00,
2013-01-22 05:05:00,20.6,14.6,29.72,NNW,340,2.0,2.0,77,0.00,,FEW060,0.00,VWS V14.01,2013-01-22 10:05:00,
2013-01-22 05:06:00,20.6,14.6,29.72,NE,43,1.0,3.0,77,0.00,,FEW060,0.00,VWS V14.01,2013-01-22 10:06:00,
2013-01-22 05:07:00,20.6,14.6,29.72,NW,323,1.0,3.0,77,0.00,,,0.00,VWS V14.01,2013-01-22 10:07:00,
2013-01-22 05:08:00,20.6,14.6,29.72,North,354,3.0,4.0,77,0.00,,FEW060,0.00,VWS V14.01,2013-01-22 10:08:00,
2013-01-22 05:09:00,20.6,14.6,29.72,NNE,12,1.0,3.0,77,0.00,,FEW060,0.00,VWS V14.01,2013-01-22 10:09:00,
2013-01-22 05:10:00,20.6,14.6,29.72,NW,322,2.0,3.0,77,0.00,,FEW060,0.00,VWS V14.01,2013-01-22 10:10:00,
2013-01-22 05:11:00,20.5,14.4,29.73,NW,316,2.0,4.0,77,0.00,,FEW060,0.00,VWS V14.01,2013-01-22 10:11:00,
2013-01-22 05:12:00,20.5,14.4,29.73,North,8,2.0,5.0,77,0.00,,,0.00,VWS V14.01,2013-01-22 10:12:00,
2013-01-22 05:13:00,20.5,14.4,29.73,NNE,30,5.0,5.0,77,0.00,,FEW060,0.00,VWS V14.01,2013-01-22 10:13:00,
2013-01-22 05:14:00,20.5,14.4,29.73,NE,53,1.0,5.0,77,0.00,,FEW060,0.00,VWS V14.01,2013-01-22 10:14:00,
2013-01-22 05:15:00,20.5,14.1,29.73,NE,44,3.0,3.0,76,0.00,,FEW060,0.00,VWS V14.01,2013-01-22 10:15:00,
2013-01-22 05:17:00,20.4,14.1,29.73,East,82,0.0,0.0,76,0.00,,,0.00,VWS V14.01,2013-01-22 10:17:00,
2013-01-22 05:18:00,20.4,14.1,29.73,East,82,0.0,2.0,76,0.00,,FEW060,0.00,VWS V14.01,2013-01-22 10:18:00,
2013-01-22 05:19:00,20.4,14.1,29.73,NW,315,1.0,1.0,76,0.00,,FEW060,0.00,VWS V14.01,2013-01-22 10:19:00,
2013-01-22 05:20:00,20.4,14.1,29.73,North,6,2.0,2.0,76,0.00,,FEW060,0.00,VWS V14.01,2013-01-22 10:20:00,
2013-01-22 05:21:00,20.4,14.1,29.73,SE,127,0.0,2.0,76,0.00,,FEW060,0.00,VWS V14.01,2013-01-22 10:21:00,
2013-01-22 05:22:00,20.3,14.0,29.73,NNW,346,1.0,2.0,76,0.00,,,0.00,VWS V14.01,2013-01-22 10:22:00,
2013-01-22 05:23:00,20.4,14.1,29.73,NNW,341,1.0,2.0,76,0.00,,FEW060,0.00,VWS V14.01,2013-01-22 10:23:00,
2013-01-22 05:24:00,20.3,14.0,29.73,North,11,1.0,2.0,76,0.00,,FEW060,0.00,VWS V14.01,2013-01-22 10:24:00,
2013-01-22 05:25:00,20.3,14.0,29.73,NNE,20,0.0,3.0,76,0.00,,FEW060,0.00,VWS V14.01,2013-01-22 10:25:00,
2013-01-22 05:26:00,20.3,14.0,29.73,NNW,335,1.0,1.0,76,0.00,,FEW060,0.00,VWS V14.01,2013-01-22 10:26:00,
2013-01-22 05:27:00,20.2,13.6,29.73,West,263,3.0,4.0,75,0.00,,,0.00,VWS V14.01,2013-01-22 10:27:00,
2013-01-22 05:28:00,20.2,13.9,29.73,North,349,4.0,4.0,76,0.00,,FEW060,0.00,VWS V14.01,2013-01-22 10:28:00,
2013-01-22 05:29:00,20.2,13.6,29.73,NW,322,2.0,4.0,75,0.00,,FEW060,0.00,VWS V14.01,2013-01-22 10:29:00,
2013-01-22 05:30:00,20.2,13.6,29.73,West,270,2.0,2.0,75,0.00,,FEW060,0.00,VWS V14.01,2013-01-22 10:30:00,
2013-01-22 05:33:00,20.1,13.2,29.73,West,274,1.0,2.0,74,0.00,,,0.00,VWS V14.01,2013-01-22 10:33:00,
2013-01-22 05:34:00,20.1,13.2,29.73,WNW,292,1.0,2.0,74,0.00,,FEW060,0.00,VWS V14.01,2013-01-22 10:34:00,
2013-01-22 05:35:00,20.0,13.1,29.73,WNW,302,1.0,2.0,74,0.00,,FEW060,0.00,VWS V14.01,2013-01-22 10:35:00,
2013-01-22 05:36:00,20.0,13.1,29.73,NW,316,2.0,2.0,74,0.00,,FEW060,0.00,VWS V14.01,2013-01-22 10:36:00,
2013-01-22 05:37:00,20.0,13.1,29.73,North,358,1.0,3.0,74,0.00,,FEW060,0.00,VWS V14.01,2013-01-22 10:37:00,
2013-01-22 05:38:00,19.9,13.0,29.73,NNE,13,3.0,4.0,74,0.00,,,0.00,VWS V14.01,2013-01-22 10:38:00,
2013-01-22 05:41:00,19.8,12.6,29.73,NNE,20,2.0,5.0,73,0.00,,FEW060,0.00,VWS V14.01,2013-01-22 10:41:00,
2013-01-22 05:43:00,19.8,12.9,29.74,NNW,333,0.0,1.0,74,0.00,,,0.00,VWS V14.01,2013-01-22 10:43:00,
2013-01-22 05:44:00,19.8,12.9,29.74,NNW,333,0.0,1.0,74,0.00,,FEW060,0.00,VWS V14.01,2013-01-22 10:44:00,
2013-01-22 05:45:00,19.7,12.8,29.74,North,351,3.0,6.0,74,0.00,,FEW060,0.00,VWS V14.01,2013-01-22 10:45:00,
2013-01-22 05:46:00,19.7,12.5,29.74,North,359,1.0,4.0,73,0.00,,FEW060,0.00,VWS V14.01,2013-01-22 10:46:00,
2013-01-22 05:47:00,19.7,12.5,29.74,North,360,3.0,3.0,73,0.00,,FEW060,0.00,VWS V14.01,2013-01-22 10:47:00,
2013-01-22 05:48:00,19.6,12.4,29.74,NE,40,3.0,4.0,73,0.00,,,0.00,VWS V14.01,2013-01-22 10:48:00,
2013-01-22 05:49:00,19.6,12.4,29.74,NE,40,3.0,4.0,73,0.00,,FEW060,0.00,VWS V14.01,2013-01-22 10:49:00,
2013-01-22 05:50:00,19.6,12.4,29.74,North,360,1.0,4.0,73,0.00,,FEW060,0.00,VWS V14.01,2013-01-22 10:50:00,
2013-01-22 05:51:00,19.6,12.4,29.74,NW,324,2.0,2.0,73,0.00,,FEW060,0.00,VWS V14.01,2013-01-22 10:51:00,
2013-01-22 05:52:00,19.6,12.4,29.74,NE,53,3.0,4.0,73,0.00,,FEW060,0.00,VWS V14.01,2013-01-22 10:52:00,
2013-01-22 05:53:00,19.5,12.0,29.74,NE,53,1.0,2.0,72,0.00,,OVC047,0.00,VWS V14.01,2013-01-22 10:53:00,
2013-01-22 05:54:00,19.5,12.0,29.74,NE,53,1.0,2.0,72,0.00,,FEW060,0.00,VWS V14.01,2013-01-22 10:54:00,
2013-01-22 05:56:00,19.4,11.9,29.74,North,354,2.0,3.0,72,0.00,,FEW060,0.00,VWS V14.01,2013-01-22 10:56:00,
2013-01-22 05:57:00,19.4,11.9,29.74,North,353,1.0,2.0,72,0.00,,FEW060,0.00,VWS V14.01,2013-01-22 10:57:00,
2013-01-22 05:58:00,19.3,11.8,29.74,NNW,347,4.0,4.0,72,0.00,,OVC047,0.00,VWS V14.01,2013-01-22 10:58:00,
2013-01-22 05:59:00,19.3,11.8,29.74,NNW,347,4.0,4.0,72,0.00,,FEW060,0.00,VWS V14.01,2013-01-22 10:59:00,
2013-01-22 06:00:00,19.3,11.8,29.74,WNW,284,1.0,5.0,72,0.00,,FEW060,0.00,VWS V14.01,2013-01-22 11:00:00,
2013-01-22 06:02:00,19.2,11.7,29.74,NNE,26,1.0,5.0,72,0.00,,FEW060,0.00,VWS V14.01,2013-01-22 11:02:00,
2013-01-22 06:03:00,19.2,11.7,29.74,NNE,16,2.0,3.0,72,0.00,,OVC047,0.00,VWS V14.01,2013-01-22 11:03:00,
2013-01-22 06:04:00,19.2,11.7,29.74,NNE,16,2.0,3.0,72,0.00,,FEW060,0.00,VWS V14.01,2013-01-22 11:04:00,
2013-01-22 06:05:00,19.2,11.7,29.74,NW,315,6.0,6.0,72,0.00,,FEW060,0.00,VWS V14.01,2013-01-22 11:05:00,
2013-01-22 06:06:00,19.1,11.6,29.74,NNW,330,2.0,6.0,72,0.00,,FEW060,0.00,VWS V14.01,2013-01-22 11:06:00,
2013-01-22 06:08:00,19.0,11.5,29.74,NW,318,2.0,5.0,72,0.00,,OVC047,0.00,VWS V14.01,2013-01-22 11:08:00,
2013-01-22 06:09:00,19.0,11.5,29.74,NW,318,2.0,5.0,72,0.00,,FEW060,0.00,VWS V14.01,2013-01-22 11:09:00,
2013-01-22 06:10:00,19.0,11.5,29.74,NNE,20,3.0,3.0,72,0.00,,FEW060,0.00,VWS V14.01,2013-01-22 11:10:00,
2013-01-22 06:11:00,18.9,11.4,29.74,NNE,18,1.0,4.0,72,0.00,,FEW060,0.00,VWS V14.01,2013-01-22 11:11:00,
2013-01-22 06:12:00,18.9,11.4,29.74,NNE,29,4.0,4.0,72,0.00,,FEW060,0.00,VWS V14.01,2013-01-22 11:12:00,
2013-01-22 06:13:00,18.8,11.3,29.74,North,8,1.0,4.0,72,0.00,,OVC047,0.00,VWS V14.01,2013-01-22 11:13:00,
2013-01-22 06:14:00,18.8,11.3,29.74,North,8,1.0,4.0,72,0.00,,FEW060,0.00,VWS V14.01,2013-01-22 11:14:00,
2013-01-22 06:15:00,18.8,11.3,29.74,North,360,2.0,3.0,72,0.00,,FEW060,0.00,VWS V14.01,2013-01-22 11:15:00,
2013-01-22 06:16:00,18.8,11.3,29.74,NNW,330,2.0,3.0,72,0.00,,FEW060,0.00,VWS V14.01,2013-01-22 11:16:00,
2013-01-22 06:17:00,18.8,11.3,29.74,NE,41,1.0,2.0,72,0.00,,FEW060,0.00,VWS V14.01,2013-01-22 11:17:00,
2013-01-22 06:18:00,18.7,11.2,29.74,NNE,22,2.0,4.0,72,0.00,,OVC047,0.00,VWS V14.01,2013-01-22 11:18:00,
2013-01-22 06:19:00,18.7,11.2,29.74,NNE,22,2.0,4.0,72,0.00,,FEW060,0.00,VWS V14.01,2013-01-22 11:19:00,
2013-01-22 06:20:00,18.7,11.2,29.74,North,356,4.0,6.0,72,0.00,,FEW060,0.00,VWS V14.01,2013-01-22 11:20:00,
2013-01-22 06:21:00,18.6,11.1,29.74,NNW,336,7.0,7.0,72,0.00,,FEW060,0.00,VWS V14.01,2013-01-22 11:21:00,
2013-01-22 06:22:00,18.6,10.8,29.74,NW,320,3.0,6.0,71,0.00,,FEW060,0.00,VWS V14.01,2013-01-22 11:22:00,
2013-01-22 06:23:00,18.5,10.7,29.74,NE,51,3.0,4.0,71,0.00,,OVC047,0.00,VWS V14.01,2013-01-22 11:23:00,
2013-01-22 06:24:00,18.5,10.7,29.74,NE,51,3.0,4.0,71,0.00,,FEW060,0.00,VWS V14.01,2013-01-22 11:24:00,
2013-01-22 06:25:00,18.4,10.6,29.75,NNE,26,4.0,5.0,71,0.00,,FEW060,0.00,VWS V14.01,2013-01-22 11:25:00,
2013-01-22 06:26:00,18.3,10.5,29.74,North,349,6.0,6.0,71,0.00,,FEW060,0.00,VWS V14.01,2013-01-22 11:26:00,
2013-01-22 06:27:00,18.3,10.5,29.74,NNE,30,4.0,6.0,71,0.00,,FEW060,0.00,VWS V14.01,2013-01-22 11:27:00,
2013-01-22 06:28:00,18.2,10.4,29.74,NNW,341,1.0,4.0,71,0.00,,OVC047,0.00,VWS V14.01,2013-01-22 11:28:00,
2013-01-22 06:29:00,18.2,10.4,29.74,NNW,341,1.0,4.0,71,0.00,,FEW060,0.00,VWS V14.01,2013-01-22 11:29:00,
2013-01-22 06:30:00,18.1,10.3,29.74,North,353,2.0,4.0,71,0.00,,FEW060,0.00,VWS V14.01,2013-01-22 11:30:00,
2013-01-22 06:31:00,18.1,10.3,29.74,NNE,23,1.0,3.0,71,0.00,,FEW060,0.00,VWS V14.01,2013-01-22 11:31:00,
2013-01-22 06:32:00,18.1,10.3,29.74,WNW,297,2.0,5.0,71,0.00,,FEW060,0.00,VWS V14.01,2013-01-22 11:32:00,
2013-01-22 06:33:00,17.9,10.1,29.75,NNW,333,2.0,5.0,71,0.00,,OVC047,0.00,VWS V14.01,2013-01-22 11:33:00,
2013-01-22 06:34:00,17.9,10.1,29.75,NNW,333,2.0,5.0,71,0.00,,FEW060,0.00,VWS V14.01,2013-01-22 11:34:00,
2013-01-22 06:35:00,17.9,10.1,29.75,ENE,64,3.0,4.0,71,0.00,,FEW060,0.00,VWS V14.01,2013-01-22 11:35:00,
2013-01-22 06:36:00,17.8,10.0,29.75,NNE,20,2.0,5.0,71,0.00,,FEW060,0.00,VWS V14.01,2013-01-22 11:36:00,
2013-01-22 06:37:00,17.8,10.0,29.75,NNW,332,1.0,3.0,71,0.00,,FEW060,0.00,VWS V14.01,2013-01-22 11:37:00,
2013-01-22 06:38:00,17.7,9.9,29.75,NNW,330,3.0,4.0,71,0.00,,SCT050,0.00,VWS V14.01,2013-01-22 11:38:00,
2013-01-22 06:39:00,17.7,9.9,29.75,NNW,330,3.0,4.0,71,0.00,,FEW060,0.00,VWS V14.01,2013-01-22 11:39:00,
2013-01-22 06:40:00,17.6,9.8,29.75,NNE,32,4.0,5.0,71,0.00,,FEW060,0.00,VWS V14.01,2013-01-22 11:40:00,
2013-01-22 06:41:00,17.6,9.8,29.75,NNE,13,3.0,5.0,71,0.00,,FEW060,0.00,VWS V14.01,2013-01-22 11:41:00,
2013-01-22 06:42:00,17.5,9.7,29.75,NE,44,3.0,5.0,71,0.00,,FEW060,0.00,VWS V14.01,2013-01-22 11:42:00,
2013-01-22 06:43:00,17.5,10.0,29.75,East,92,2.0,9.0,72,0.00,,SCT050,0.00,VWS V14.01,2013-01-22 11:43:00,
2013-01-22 06:44:00,17.5,10.0,29.75,East,92,2.0,9.0,72,0.00,,FEW060,0.00,VWS V14.01,2013-01-22 11:44:00,
2013-01-22 06:45:00,17.4,9.6,29.75,NE,53,4.0,6.0,71,0.00,,FEW060,0.00,VWS V14.01,2013-01-22 11:45:00,
2013-01-22 06:46:00,17.4,9.6,29.75,NNW,345,2.0,4.0,71,0.00,,FEW060,0.00,VWS V14.01,2013-01-22 11:46:00,
2013-01-22 06:47:00,17.3,9.8,29.75,North,351,4.0,5.0,72,0.00,,FEW060,0.00,VWS V14.01,2013-01-22 11:47:00,
2013-01-22 06:48:00,17.2,9.4,29.75,North,349,4.0,6.0,71,0.00,,SCT050,0.00,VWS V14.01,2013-01-22 11:48:00,
2013-01-22 06:49:00,17.2,9.4,29.75,North,349,4.0,6.0,71,0.00,,FEW060,0.00,VWS V14.01,2013-01-22 11:49:00,
2013-01-22 06:50:00,17.1,9.3,29.75,NNE,16,4.0,5.0,71,0.00,,FEW060,0.00,VWS V14.01,2013-01-22 11:50:00,
2013-01-22 06:51:00,17.0,9.2,29.75,NE,36,2.0,4.0,71,0.00,,FEW060,0.00,VWS V14.01,2013-01-22 11:51:00,
2013-01-22 06:52:00,17.0,9.2,29.75,ENE,72,2.0,3.0,71,0.00,,FEW060,0.00,VWS V14.01,2013-01-22 11:52:00,
2013-01-22 06:53:00,16.8,9.0,29.76,ENE,58,5.0,9.0,71,0.00,,SCT050,0.00,VWS V14.01,2013-01-22 11:53:00,
2013-01-22 06:55:00,16.8,9.0,29.76,NNE,15,2.0,6.0,71,0.00,,FEW060,0.00,VWS V14.01,2013-01-22 11:55:00,
2013-01-22 06:56:00,16.8,9.0,29.76,NW,305,5.0,5.0,71,0.00,,FEW060,0.00,VWS V14.01,2013-01-22 11:56:00,
2013-01-22 06:57:00,16.7,8.9,29.76,NE,36,2.0,5.0,71,0.00,,FEW060,0.00,VWS V14.01,2013-01-22 11:57:00,
2013-01-22 06:58:00,16.6,8.9,29.76,NW,311,1.0,6.0,71,0.00,,SCT050,0.00,VWS V14.01,2013-01-22 11:58:00,
2013-01-22 06:59:00,16.6,8.9,29.76,NW,311,1.0,6.0,71,0.00,,FEW060,0.00,VWS V14.01,2013-01-22 11:59:00,
2013-01-22 07:00:00,16.6,8.9,29.76,NNW,328,1.0,2.0,71,0.00,,FEW060,0.00,VWS V14.01,2013-01-22 12:00:00,
2013-01-22 07:01:00,16.5,8.8,29.76,WNW,288,6.0,6.0,71,0.00,,FEW060,0.00,VWS V14.01,2013-01-22 12:01:00,
2013-01-22 07:02:00,16.5,8.8,29.76,North,359,6.0,7.0,71,0.00,,FEW060,0.00,VWS V14.01,2013-01-22 12:02:00,
2013-01-22 07:03:00,16.4,8.7,29.76,NNE,25,3.0,3.0,71,0.00,,SCT050,0.00,VWS V14.01,2013-01-22 12:03:00,
2013-01-22 07:04:00,16.4,8.7,29.76,NNW,333,2.0,4.0,71,0.00,,FEW060,0.00,VWS V14.01,2013-01-22 12:04:00,
2013-01-22 07:05:00,16.4,8.7,29.76,NNW,333,3.0,3.0,71,0.00,,FEW060,0.00,VWS V14.01,2013-01-22 12:05:00,
2013-01-22 07:06:00,16.3,8.6,29.76,North,353,3.0,7.0,71,0.00,,FEW060,0.00,VWS V14.01,2013-01-22 12:06:00,
2013-01-22 07:07:00,16.3,8.6,29.76,NNW,340,1.0,3.0,71,0.00,,FEW060,0.00,VWS V14.01,2013-01-22 12:07:00,
2013-01-22 07:08:00,16.2,8.5,29.76,NW,308,0.0,1.0,71,0.00,,SCT050,0.00,VWS V14.01,2013-01-22 12:08:00,
2013-01-22 07:09:00,16.2,8.5,29.76,WNW,297,1.0,6.0,71,0.00,,FEW060,0.00,VWS V14.01,2013-01-22 12:09:00,
2013-01-22 07:10:00,16.2,8.5,29.76,NW,317,1.0,1.0,71,0.00,,FEW060,0.00,VWS V14.01,2013-01-22 12:10:00,
2013-01-22 07:11:00,16.2,8.5,29.76,NNW,341,3.0,6.0,71,0.00,,FEW060,0.00,VWS V14.01,2013-01-22 12:11:00,
2013-01-22 07:12:00,16.2,8.5,29.76,North,1,6.0,6.0,71,0.00,,FEW060,0.00,VWS V14.01,2013-01-22 12:12:00,
2013-01-22 07:13:00,16.1,8.4,29.76,North,8,4.0,6.0,71,0.00,,SCT050,0.00,VWS V14.01,2013-01-22 12:13:00,
2013-01-22 07:14:00,16.1,8.4,29.76,NNW,333,5.0,5.0,71,0.00,,FEW060,0.00,VWS V14.01,2013-01-22 12:14:00,
2013-01-22 07:15:00,16.1,8.4,29.76,NW,318,2.0,6.0,71,0.00,,FEW060,0.00,VWS V14.01,2013-01-22 12:15:00,
2013-01-22 07:16:00,16.1,8.4,29.76,NNE,23,1.0,4.0,71,0.00,,FEW060,0.00,VWS V14.01,2013-01-22 12:16:00,
2013-01-22 07:17:00,16.1,8.4,29.76,ENE,61,1.0,1.0,71,0.00,,FEW060,0.00,VWS V14.01,2013-01-22 12:17:00,
2013-01-22 07:18:00,16.0,8.3,29.76,North,349,2.0,4.0,71,0.00,,SCT050,0.00,VWS V14.01,2013-01-22 12:18:00,
2013-01-22 07:19:00,16.1,8.4,29.77,North,6,4.0,6.0,71,0.00,,FEW060,0.00,VWS V14.01,2013-01-22 12:19:00,
2013-01-22 07:20:00,16.0,8.3,29.77,NNW,330,4.0,4.0,71,0.00,,FEW060,0.00,VWS V14.01,2013-01-22 12:20:00,
2013-01-22 07:21:00,16.0,8.3,29.77,NW,325,0.0,4.0,71,0.00,,FEW060,0.00,VWS V14.01,2013-01-22 12:21:00,
2013-01-22 07:22:00,16.1,8.4,29.77,NNE,13,1.0,3.0,71,0.00,,FEW060,0.00,VWS V14.01,2013-01-22 12:22:00,
2013-01-22 07:23:00,16.1,8.4,29.77,NNE,20,2.0,4.0,71,0.00,,FEW060,0.00,VWS V14.01,2013-01-22 12:23:00,
2013-01-22 07:24:00,16.1,8.4,29.77,NNW,345,2.0,4.0,71,0.00,,SCT050,0.00,VWS V14.01,2013-01-22 12:24:00,
2013-01-22 07:25:00,16.0,8.3,29.77,North,350,4.0,4.0,71,0.00,,FEW060,0.00,VWS V14.01,2013-01-22 12:25:00,
2013-01-22 07:26:00,16.1,8.4,29.77,NNW,334,1.0,4.0,71,0.00,,FEW060,0.00,VWS V14.01,2013-01-22 12:26:00,
2013-01-22 07:27:00,16.1,8.4,29.77,NW,318,4.0,5.0,71,0.00,,FEW060,0.00,VWS V14.01,2013-01-22 12:27:00,
2013-01-22 07:28:00,16.0,8.3,29.77,North,6,1.0,6.0,71,0.00,,FEW060,0.00,VWS V14.01,2013-01-22 12:28:00,
2013-01-22 07:29:00,16.0,8.0,29.77,NNE,26,0.0,1.0,70,0.00,,SCT050,0.00,VWS V14.01,2013-01-22 12:29:00,
2013-01-22 07:30:00,16.0,8.0,29.77,NNE,26,0.0,1.0,70,0.00,,FEW060,0.00,VWS V14.01,2013-01-22 12:30:00,
2013-01-22 07:31:00,16.1,8.4,29.77,NW,321,3.0,3.0,71,0.00,,FEW060,0.00,VWS V14.01,2013-01-22 12:31:00,
2013-01-22 07:32:00,16.0,8.3,29.77,NNW,343,1.0,4.0,71,0.00,,FEW060,0.00,VWS V14.01,2013-01-22 12:32:00,
2013-01-22 07:33:00,16.0,8.0,29.77,NNE,33,3.0,4.0,70,0.00,,FEW060,0.00,VWS V14.01,2013-01-22 12:33:00,
2013-01-22 07:34:00,16.0,8.0,29.78,NNW,342,0.0,5.0,70,0.00,,BKN080,0.00,VWS V14.01,2013-01-22 12:34:00,
2013-01-22 07:35:00,16.0,8.0,29.77,West,281,1.0,5.0,70,0.00,,FEW060,0.00,VWS V14.01,2013-01-22 12:35:00,
2013-01-22 07:36:00,16.0,8.0,29.78,NNW,333,2.0,8.0,70,0.00,,FEW060,0.00,VWS V14.01,2013-01-22 12:36:00,
2013-01-22 07:37:00,16.0,8.0,29.78,NNW,344,2.0,2.0,70,0.00,,FEW060,0.00,VWS V14.01,2013-01-22 12:37:00,
2013-01-22 07:38:00,16.0,8.0,29.78,NNE,25,2.0,3.0,70,0.00,,FEW060,0.00,VWS V14.01,2013-01-22 12:38:00,
2013-01-22 07:39:00,16.0,8.0,29.78,NNW,346,0.0,4.0,70,0.00,,BKN080,0.00,VWS V14.01,2013-01-22 12:39:00,
2013-01-22 07:40:00,16.0,8.0,29.78,NNE,18,1.0,4.0,70,0.00,,FEW060,0.00,VWS V14.01,2013-01-22 12:40:00,
2013-01-22 07:41:00,16.0,8.0,29.78,NNE,16,3.0,4.0,70,0.00,,FEW060,0.00,VWS V14.01,2013-01-22 12:41:00,
2013-01-22 07:42:00,16.0,8.0,29.78,NNE,13,0.0,3.0,70,0.00,,FEW060,0.00,VWS V14.01,2013-01-22 12:42:00,
2013-01-22 07:43:00,16.0,8.0,29.78,WSW,250,0.0,2.0,70,0.00,,FEW060,0.00,VWS V14.01,2013-01-22 12:43:00,
2013-01-22 07:44:00,16.1,8.1,29.78,ENE,62,5.0,6.0,70,0.00,,BKN080,0.00,VWS V14.01,2013-01-22 12:44:00,
2013-01-22 07:45:00,16.1,8.1,29.78,ENE,62,5.0,6.0,70,0.00,,FEW060,0.00,VWS V14.01,2013-01-22 12:45:00,
2013-01-22 07:46:00,16.1,8.1,29.78,NW,304,2.0,7.0,70,0.00,,FEW060,0.00,VWS V14.01,2013-01-22 12:46:00,
2013-01-22 07:47:00,16.1,7.7,29.78,NW,318,4.0,4.0,69,0.00,,FEW060,0.00,VWS V14.01,2013-01-22 12:47:00,
2013-01-22 07:48:00,16.1,7.7,29.78,WNW,302,3.0,4.0,69,0.00,,FEW060,0.00,VWS V14.01,2013-01-22 12:48:00,
2013-01-22 07:49:00,16.1,7.7,29.78,East,99,2.0,3.0,69,0.00,,BKN080,0.00,VWS V14.01,2013-01-22 12:49:00,
2013-01-22 07:50:00,16.1,7.7,29.78,East,99,2.0,3.0,69,0.00,,FEW060,0.00,VWS V14.01,2013-01-22 12:50:00,
2013-01-22 07:51:00,16.1,7.7,29.78,NE,39,3.0,4.0,69,0.00,,FEW060,0.00,VWS V14.01,2013-01-22 12:51:00,
2013-01-22 07:52:00,16.2,7.8,29.78,NNE,16,2.0,5.0,69,0.00,,FEW060,0.00,VWS V14.01,2013-01-22 12:52:00,
2013-01-22 07:53:00,16.2,7.8,29.78,North,11,4.0,6.0,69,0.00,,FEW060,0.00,VWS V14.01,2013-01-22 12:53:00,
2013-01-22 07:54:00,16.2,7.5,29.78,North,4,2.0,4.0,68,0.00,,BKN080,0.00,VWS V14.01,2013-01-22 12:54:00,
2013-01-22 07:55:00,16.2,7.5,29.78,North,360,4.0,7.0,68,0.00,,FEW060,0.00,VWS V14.01,2013-01-22 12:55:00,
2013-01-22 07:56:00,16.2,7.8,29.78,ESE,117,1.0,4.0,69,0.00,,FEW060,0.00,VWS V14.01,2013-01-22 12:56:00,
2013-01-22 07:57:00,16.2,7.5,29.78,NNE,29,2.0,5.0,68,0.00,,FEW060,0.00,VWS V14.01,2013-01-22 12:57:00,
2013-01-22 07:58:00,16.2,7.5,29.78,NW,306,1.0,2.0,68,0.00,,FEW060,0.00,VWS V14.01,2013-01-22 12:58:00,
2013-01-22 07:59:00,16.2,7.5,29.78,North,352,4.0,4.0,68,0.00,,BKN080,0.00,VWS V14.01,2013-01-22 12:59:00,
2013-01-22 08:00:00,16.2,7.5,29.78,NNW,333,3.0,5.0,68,0.00,,FEW060,0.00,VWS V14.01,2013-01-22 13:00:00,
2013-01-22 08:01:00,16.2,7.5,29.78,NW,315,9.0,9.0,68,0.00,,FEW060,0.00,VWS V14.01,2013-01-22 13:01:00,
2013-01-22 08:02:00,16.2,7.5,29.78,North,1,3.0,9.0,68,0.00,,FEW060,0.00,VWS V14.01,2013-01-22 13:02:00,
2013-01-22 08:03:00,16.2,7.2,29.79,North,1,4.0,8.0,67,0.00,,FEW060,0.00,VWS V14.01,2013-01-22 13:03:00,
2013-01-22 08:04:00,16.1,7.1,29.79,NNW,341,0.0,1.0,67,0.00,,BKN080,0.00,VWS V14.01,2013-01-22 13:04:00,
2013-01-22 08:05:00,16.1,7.1,29.79,NNW,338,1.0,3.0,67,0.00,,FEW060,0.00,VWS V14.01,2013-01-22 13:05:00,
2013-01-22 08:06:00,16.1,7.1,29.79,NW,310,0.0,1.0,67,0.00,,FEW060,0.00,VWS V14.01,2013-01-22 13:06:00,
2013-01-22 08:07:00,16.1,7.1,29.79,NNE,32,0.0,5.0,67,0.00,,FEW060,0.00,VWS V14.01,2013-01-22 13:07:00,
2013-01-22 08:08:00,16.1,7.1,29.79,NW,322,4.0,4.0,67,0.00,,FEW060,0.00,VWS V14.01,2013-01-22 13:08:00,
2013-01-22 08:09:00,16.1,7.1,29.79,NNE,30,4.0,6.0,67,0.00,,BKN080,0.00,VWS V14.01,2013-01-22 13:09:00,
2013-01-22 08:10:00,16.1,7.1,29.79,ENE,68,5.0,8.0,67,0.00,,FEW060,0.00,VWS V14.01,2013-01-22 13:10:00,
2013-01-22 08:11:00,16.1,7.1,29.79,North,4,4.0,6.0,67,0.00,,FEW060,0.00,VWS V14.01,2013-01-22 13:11:00,
2013-01-22 08:12:00,16.1,7.1,29.79,NNE,33,2.0,4.0,67,0.00,,FEW060,0.00,VWS V14.01,2013-01-22 13:12:00,
2013-01-22 08:13:00,16.1,7.1,29.79,North,353,1.0,2.0,67,0.00,,FEW060,0.00,VWS V14.01,2013-01-22 13:13:00,
2013-01-22 08:14:00,16.2,7.2,29.79,NNW,337,2.0,4.0,67,0.00,,BKN080,0.00,VWS V14.01,2013-01-22 13:14:00,
2013-01-22 08:15:00,16.2,7.2,29.79,WNW,302,2.0,6.0,67,0.00,,FEW060,0.00,VWS V14.01,2013-01-22 13:15:00,
2013-01-22 08:17:00,16.1,7.1,29.79,North,11,4.0,7.0,67,0.00,,FEW060,0.00,VWS V14.01,2013-01-22 13:17:00,
2013-01-22 08:18:00,16.1,7.1,29.79,NNE,18,3.0,8.0,67,0.00,,FEW060,0.00,VWS V14.01,2013-01-22 13:18:00,
2013-01-22 08:19:00,16.2,7.5,29.79,East,100,3.0,4.0,68,0.00,,BKN080,0.00,VWS V14.01,2013-01-22 13:19:00,
2013-01-22 08:20:00,16.2,7.5,29.79,NW,305,1.0,3.0,68,0.00,,FEW060,0.00,VWS V14.01,2013-01-22 13:20:00,
2013-01-22 08:21:00,16.2,7.5,29.79,NNE,13,4.0,4.0,68,0.00,,FEW060,0.00,VWS V14.01,2013-01-22 13:21:00,
2013-01-22 08:22:00,16.2,7.5,29.79,NNE,20,1.0,4.0,68,0.00,,FEW060,0.00,VWS V14.01,2013-01-22 13:22:00,
2013-01-22 08:23:00,16.3,7.6,29.79,North,352,1.0,4.0,68,0.00,,FEW060,0.00,VWS V14.01,2013-01-22 13:23:00,
2013-01-22 08:24:00,16.3,7.6,29.79,NW,305,3.0,3.0,68,0.00,,FEW060,0.00,VWS V14.01,2013-01-22 13:24:00,
2013-01-22 08:25:00,16.5,7.8,29.79,ENE,60,2.0,4.0,68,0.00,,BKN080,0.00,VWS V14.01,2013-01-22 13:25:00,
2013-01-22 08:26:00,16.5,7.8,29.79,North,353,3.0,4.0,68,0.00,,FEW060,0.00,VWS V14.01,2013-01-22 13:26:00,
2013-01-22 08:27:00,16.6,7.9,29.79,NNE,13,0.0,3.0,68,0.00,,FEW060,0.00,VWS V14.01,2013-01-22 13:27:00,
2013-01-22 08:28:00,16.7,8.0,29.79,NNE,22,0.0,1.0,68,0.00,,FEW060,0.00,VWS V14.01,2013-01-22 13:28:00,
2013-01-22 08:29:00,16.8,8.4,29.79,North,8,4.0,4.0,69,0.00,,FEW060,0.00,VWS V14.01,2013-01-22 13:29:00,
2013-01-22 08:30:00,16.9,8.2,29.79,NNE,13,4.0,6.0,68,0.00,,BKN080,0.00,VWS V14.01,2013-01-22 13:30:00,
2013-01-22 08:31:00,16.9,8.2,29.79,NNE,13,4.0,6.0,68,0.00,,FEW060,0.00,VWS V14.01,2013-01-22 13:31:00,
2013-01-22 08:32:00,16.9,7.8,29.79,NW,322,3.0,6.0,67,0.00,,FEW060,0.00,VWS V14.01,2013-01-22 13:32:00,
2013-01-22 08:33:00,16.9,7.8,29.79,North,358,5.0,5.0,67,0.00,,FEW060,0.00,VWS V14.01,2013-01-22 13:33:00,
2013-01-22 08:34:00,16.8,7.8,29.79,North,354,3.0,7.0,67,0.00,,FEW060,0.00,VWS V14.01,2013-01-22 13:34:00,
2013-01-22 08:35:00,16.9,7.8,29.79,NW,308,2.0,4.0,67,0.00,,BKN025,0.00,VWS V14.01,2013-01-22 13:35:00,
2013-01-22 08:36:00,16.9,7.8,29.79,NW,308,2.0,4.0,67,0.00,,FEW060,0.00,VWS V14.01,2013-01-22 13:36:00,
2013-01-22 08:37:00,16.9,8.2,29.79,NNE,27,3.0,5.0,68,0.00,,FEW060,0.00,VWS V14.01,2013-01-22 13:37:00,
2013-01-22 08:38:00,17.0,8.3,29.79,NW,313,2.0,4.0,68,0.00,,FEW060,0.00,VWS V14.01,2013-01-22 13:38:00,
2013-01-22 08:39:00,17.1,8.4,29.79,NNE,13,2.0,3.0,68,0.00,,FEW060,0.00,VWS V14.01,2013-01-22 13:39:00,
2013-01-22 08:40:00,17.1,8.4,29.79,North,352,3.0,4.0,68,0.00,,FEW025,0.00,VWS V14.01,2013-01-22 13:40:00,
2013-01-22 08:41:00,17.1,8.4,29.79,North,352,3.0,4.0,68,0.00,,FEW060,0.00,VWS V14.01,2013-01-22 13:41:00,
2013-01-22 08:42:00,17.2,8.5,29.79,WNW,291,1.0,5.0,68,0.00,,FEW060,0.00,VWS V14.01,2013-01-22 13:42:00,
2013-01-22 08:43:00,17.3,8.6,29.79,NNW,338,0.0,2.0,68,0.00,,FEW060,0.00,VWS V14.01,2013-01-22 13:43:00,
2013-01-22 08:44:00,17.3,8.6,29.79,NNW,337,2.0,3.0,68,0.00,,FEW060,0.00,VWS V14.01,2013-01-22 13:44:00,
2013-01-22 08:45:00,17.5,8.8,29.80,NNW,337,4.0,5.0,68,0.00,,FEW025,0.00,VWS V14.01,2013-01-22 13:45:00,
2013-01-22 08:46:00,17.5,8.8,29.80,NNW,337,4.0,5.0,68,0.00,,FEW060,0.00,VWS V14.01,2013-01-22 13:46:00,
2013-01-22 08:47:00,17.5,8.8,29.79,NW,317,2.0,4.0,68,0.00,,FEW060,0.00,VWS V14.01,2013-01-22 13:47:00,
2013-01-22 08:48:00,17.5,8.8,29.80,West,280,0.0,2.0,68,0.00,,FEW060,0.00,VWS V14.01,2013-01-22 13:48:00,
2013-01-22 08:49:00,17.7,8.9,29.80,NE,49,1.0,4.0,68,0.00,,FEW060,0.00,VWS V14.01,2013-01-22 13:49:00,
2013-01-22 08:50:00,17.8,9.0,29.80,North,4,5.0,5.0,68,0.00,,FEW025,0.00,VWS V14.01,2013-01-22 13:50:00,
2013-01-22 08:51:00,17.8,9.1,29.80,North,4,5.0,5.0,68,0.00,,FEW060,0.00,VWS V14.01,2013-01-22 13:51:00,
2013-01-22 08:52:00,17.8,9.1,29.80,NNE,20,3.0,4.0,68,0.00,,FEW060,0.00,VWS V14.01,2013-01-22 13:52:00,
2013-01-22 08:53:00,17.8,9.1,29.80,NNE,29,6.0,6.0,68,0.00,,FEW060,0.00,VWS V14.01,2013-01-22 13:53:00,
2013-01-22 08:54:00,17.8,8.7,29.80,North,4,2.0,7.0,67,0.00,,FEW060,0.00,VWS V14.01,2013-01-22 13:54:00,
2013-01-22 08:55:00,17.7,8.6,29.80,ENE,60,4.0,7.0,67,0.00,,FEW025,0.00,VWS V14.01,2013-01-22 13:55:00,
2013-01-22 08:56:00,17.7,8.6,29.80,ENE,60,4.0,7.0,67,0.00,,FEW060,0.00,VWS V14.01,2013-01-22 13:56:00,
2013-01-22 08:57:00,17.7,8.6,29.80,NE,56,4.0,6.0,67,0.00,,FEW060,0.00,VWS V14.01,2013-01-22 13:57:00,
2013-01-22 08:58:00,17.7,8.6,29.80,NE,36,4.0,6.0,67,0.00,,FEW060,0.00,VWS V14.01,2013-01-22 13:58:00,
2013-01-22 08:59:00,17.6,8.9,29.80,NNE,22,2.0,3.0,68,0.00,,FEW060,0.00,VWS V14.01,2013-01-22 13:59:00,
2013-01-22 09:00:00,17.6,8.9,29.80,ESE,103,1.0,5.0,68,0.00,,FEW025,0.00,VWS V14.01,2013-01-22 14:00:00,
2013-01-22 09:01:00,17.6,8.9,29.80,ESE,103,1.0,5.0,68,0.00,,FEW060,0.00,VWS V14.01,2013-01-22 14:01:00,
2013-01-22 09:02:00,17.6,8.9,29.80,NNW,335,2.0,4.0,68,0.00,,FEW060,0.00,VWS V14.01,2013-01-22 14:02:00,
2013-01-22 09:03:00,17.6,8.9,29.80,NE,46,2.0,4.0,68,0.00,,FEW060,0.00,VWS V14.01,2013-01-22 14:03:00,
2013-01-22 09:04:00,17.6,8.9,29.80,NNW,343,3.0,4.0,68,0.00,,FEW060,0.00,VWS V14.01,2013-01-22 14:04:00,
2013-01-22 09:05:00,17.7,8.9,29.80,North,351,3.0,3.0,68,0.00,,FEW025,0.00,VWS V14.01,2013-01-22 14:05:00,
2013-01-22 09:06:00,17.7,8.9,29.80,North,351,3.0,3.0,68,0.00,,FEW060,0.00,VWS V14.01,2013-01-22 14:06:00,
2013-01-22 09:07:00,17.7,8.9,29.80,NNE,27,0.0,5.0,68,0.00,,FEW060,0.00,VWS V14.01,2013-01-22 14:07:00,
2013-01-22 09:08:00,17.7,8.9,29.80,North,352,3.0,3.0,68,0.00,,FEW060,0.00,VWS V14.01,2013-01-22 14:08:00,
2013-01-22 09:09:00,17.7,8.9,29.80,NW,322,1.0,3.0,68,0.00,,FEW060,0.00,VWS V14.01,2013-01-22 14:09:00,
2013-01-22 09:10:00,17.9,9.1,29.80,East,96,2.0,4.0,68,0.00,,FEW025,0.00,VWS V14.01,2013-01-22 14:10:00,
2013-01-22 09:11:00,17.9,9.1,29.80,East,96,2.0,4.0,68,0.00,,FEW060,0.00,VWS V14.01,2013-01-22 14:11:00,
2013-01-22 09:12:00,18.0,9.6,29.81,NE,56,1.0,3.0,69,0.00,,FEW060,0.00,VWS V14.01,2013-01-22 14:12:00,
2013-01-22 09:13:00,18.1,9.7,29.80,NNE,15,2.0,4.0,69,0.00,,FEW060,0.00,VWS V14.01,2013-01-22 14:13:00,
2013-01-22 09:14:00,18.2,9.8,29.81,NNE,25,3.0,6.0,69,0.00,,FEW060,0.00,VWS V14.01,2013-01-22 14:14:00,
2013-01-22 09:15:00,18.2,9.4,29.81,NNE,29,4.0,5.0,68,0.00,,FEW025,0.00,VWS V14.01,2013-01-22 14:15:00,
2013-01-22 09:16:00,18.2,9.4,29.81,NNE,15,4.0,4.0,68,0.00,,FEW060,0.00,VWS V14.01,2013-01-22 14:16:00,
2013-01-22 09:17:00,18.1,9.0,29.81,NE,46,4.0,6.0,67,0.00,,FEW060,0.00,VWS V14.01,2013-01-22 14:17:00,
2013-01-22 09:18:00,18.0,8.9,29.81,North,11,2.0,7.0,67,0.00,,FEW060,0.00,VWS V14.01,2013-01-22 14:18:00,
2013-01-22 09:19:00,18.0,8.9,29.81,NE,36,5.0,6.0,67,0.00,,FEW060,0.00,VWS V14.01,2013-01-22 14:19:00,
2013-01-22 09:20:00,17.9,9.1,29.81,NNE,32,4.0,4.0,68,0.00,,FEW025,0.00,VWS V14.01,2013-01-22 14:20:00,
2013-01-22 09:21:00,17.9,9.1,29.81,NNW,342,3.0,5.0,68,0.00,,FEW060,0.00,VWS V14.01,2013-01-22 14:21:00,
2013-01-22 09:22:00,17.9,9.1,29.81,ENE,61,7.0,7.0,68,0.00,,FEW060,0.00,VWS V14.01,2013-01-22 14:22:00,
2013-01-22 09:23:00,17.8,8.7,29.81,ENE,68,1.0,7.0,67,0.00,,FEW060,0.00,VWS V14.01,2013-01-22 14:23:00,
2013-01-22 09:24:00,17.8,9.1,29.81,NE,53,4.0,6.0,68,0.00,,FEW060,0.00,VWS V14.01,2013-01-22 14:24:00,
2013-01-22 09:25:00,17.8,9.0,29.81,NE,37,3.0,3.0,68,0.00,,FEW025,0.00,VWS V14.01,2013-01-22 14:25:00,
2013-01-22 09:26:00,17.8,9.1,29.81,NE,39,1.0,3.0,68,0.00,,FEW060,0.00,VWS V14.01,2013-01-22 14:26:00,
2013-01-22 09:27:00,17.8,9.1,29.81,North,5,2.0,5.0,68,0.00,,FEW060,0.00,VWS V14.01,2013-01-22 14:27:00,
2013-01-22 09:28:00,17.9,9.1,29.80,ENE,63,3.0,6.0,68,0.00,,FEW060,0.00,VWS V14.01,2013-01-22 14:28:00,
2013-01-22 09:29:00,17.9,9.1,29.80,NE,56,2.0,6.0,68,0.00,,FEW060,0.00,VWS V14.01,2013-01-22 14:29:00,
2013-01-22 09:30:00,18.0,9.6,29.80,North,1,1.0,2.0,69,0.00,,FEW025,0.00,VWS V14.01,2013-01-22 14:30:00,
2013-01-22 09:31:00,18.0,9.6,29.80,North,11,1.0,3.0,69,0.00,,FEW060,0.00,VWS V14.01,2013-01-22 14:31:00,
2013-01-22 09:32:00,18.0,9.6,29.80,NNE,23,1.0,2.0,69,0.00,,FEW060,0.00,VWS V14.01,2013-01-22 14:32:00,
2013-01-22 09:33:00,18.1,9.3,29.80,NE,53,4.0,4.0,68,0.00,,FEW060,0.00,VWS V14.01,2013-01-22 14:33:00,
2013-01-22 09:34:00,18.2,9.4,29.80,North,6,2.0,5.0,68,0.00,,FEW060,0.00,VWS V14.01,2013-01-22 14:34:00,
2013-01-22 09:35:00,18.3,9.5,29.80,ENE,58,1.0,3.0,68,0.00,,FEW025,0.00,VWS V14.01,2013-01-22 14:35:00,
2013-01-22 09:36:00,18.3,9.5,29.80,ENE,77,2.0,2.0,68,0.00,,FEW060,0.00,VWS V14.01,2013-01-22 14:36:00,
2013-01-22 09:37:00,18.3,9.5,29.81,ENE,74,4.0,4.0,68,0.00,,FEW060,0.00,VWS V14.01,2013-01-22 14:37:00,
2013-01-22 09:38:00,18.4,9.6,29.80,NNE,33,2.0,5.0,68,0.00,,FEW060,0.00,VWS V14.01,2013-01-22 14:38:00,
2013-01-22 09:39:00,18.5,9.7,29.81,North,350,1.0,3.0,68,0.00,,FEW060,0.00,VWS V14.01,2013-01-22 14:39:00,
2013-01-22 09:40:00,18.7,9.9,29.81,NE,36,4.0,5.0,68,0.00,,FEW025,0.00,VWS V14.01,2013-01-22 14:40:00,
2013-01-22 09:41:00,18.7,9.9,29.81,NE,43,1.0,4.0,68,0.00,,FEW060,0.00,VWS V14.01,2013-01-22 14:41:00,
2013-01-22 09:42:00,18.8,10.3,29.81,North,357,2.0,6.0,69,0.00,,FEW060,0.00,VWS V14.01,2013-01-22 14:42:00,
2013-01-22 09:43:00,18.9,10.1,29.81,NE,44,6.0,6.0,68,0.00,,FEW060,0.00,VWS V14.01,2013-01-22 14:43:00,
2013-01-22 09:44:00,18.9,10.1,29.81,NE,51,6.0,6.0,68,0.00,,FEW060,0.00,VWS V14.01,2013-01-22 14:44:00,
2013-01-22 09:45:00,18.9,9.8,29.81,NW,315,4.0,4.0,67,0.00,,FEW025,0.00,VWS V14.01,2013-01-22 14:45:00,
2013-01-22 09:46:00,18.9,9.8,29.81,NNE,26,1.0,5.0,67,0.00,,FEW060,0.00,VWS V14.01,2013-01-22 14:46:00,
2013-01-22 09:47:00,18.9,9.8,29.80,NE,41,3.0,4.0,67,0.00,,FEW060,0.00,VWS V14.01,2013-01-22 14:47:00,
2013-01-22 09:48:00,18.9,9.8,29.80,ENE,61,1.0,8.0,67,0.00,,FEW060,0.00,VWS V14.01,2013-01-22 14:48:00,
2013-01-22 09:49:00,19.0,9.9,29.81,North,4,1.0,1.0,67,0.00,,FEW060,0.00,VWS V14.01,2013-01-22 14:49:00,
2013-01-22 09:50:00,19.1,10.3,29.80,NE,36,2.0,3.0,68,0.00,,FEW025,0.00,VWS V14.01,2013-01-22 14:50:00,
2013-01-22 09:51:00,19.0,9.9,29.80,ENE,68,2.0,2.0,67,0.00,,FEW060,0.00,VWS V14.01,2013-01-22 14:51:00,
2013-01-22 09:52:00,19.2,10.4,29.81,NW,322,2.0,3.0,68,0.00,,FEW060,0.00,VWS V14.01,2013-01-22 14:52:00,
2013-01-22 09:53:00,19.3,10.5,29.81,North,9,2.0,3.0,68,0.00,,FEW060,0.00,VWS V14.01,2013-01-22 14:53:00,
2013-01-22 09:54:00,19.3,10.5,29.81,NNE,25,1.0,3.0,68,0.00,,FEW060,0.00,VWS V14.01,2013-01-22 14:54:00,
2013-01-22 09:55:00,19.6,10.8,29.81,NNE,16,2.0,4.0,68,0.00,,FEW025,0.00,VWS V14.01,2013-01-22 14:55:00,
2013-01-22 09:56:00,19.6,11.1,29.81,North,8,2.0,2.0,69,0.00,,FEW060,0.00,VWS V14.01,2013-01-22 14:56:00,
2013-01-22 09:57:00,19.6,10.8,29.81,NNE,30,4.0,4.0,68,0.00,,FEW060,0.00,VWS V14.01,2013-01-22 14:57:00,
2013-01-22 09:58:00,19.7,10.9,29.81,North,8,1.0,5.0,68,0.00,,FEW060,0.00,VWS V14.01,2013-01-22 14:58:00,
2013-01-22 09:59:00,19.7,10.9,29.81,NE,44,3.0,4.0,68,0.00,,FEW060,0.00,VWS V14.01,2013-01-22 14:59:00,
2013-01-22 10:00:00,19.8,10.6,29.81,West,266,0.0,1.0,67,0.00,,FEW025,0.00,VWS V14.01,2013-01-22 15:00:00,
2013-01-22 10:01:00,19.7,10.5,29.81,WSW,252,0.0,1.0,67,0.00,,FEW060,0.00,VWS V14.01,2013-01-22 15:01:00,
2013-01-22 10:02:00,19.8,10.6,29.81,West,271,1.0,2.0,67,0.00,,FEW060,0.00,VWS V14.01,2013-01-22 15:02:00,
2013-01-22 10:03:00,19.9,10.7,29.81,WSW,257,0.0,3.0,67,0.00,,FEW060,0.00,VWS V14.01,2013-01-22 15:03:00,
2013-01-22 10:04:00,20.1,10.9,29.81,WSW,250,1.0,2.0,67,0.00,,FEW060,0.00,VWS V14.01,2013-01-22 15:04:00,
2013-01-22 10:05:00,20.4,11.2,29.81,NNE,33,3.0,6.0,67,0.00,,FEW025,0.00,VWS V14.01,2013-01-22 15:05:00,
2013-01-22 10:06:00,20.4,11.2,29.81,ENE,57,6.0,6.0,67,0.00,,FEW060,0.00,VWS V14.01,2013-01-22 15:06:00,
2013-01-22 10:07:00,20.5,11.3,29.81,NE,37,2.0,6.0,67,0.00,,FEW060,0.00,VWS V14.01,2013-01-22 15:07:00,
2013-01-22 10:08:00,20.5,11.3,29.81,NNE,18,2.0,2.0,67,0.00,,FEW060,0.00,VWS V14.01,2013-01-22 15:08:00,
2013-01-22 10:09:00,20.5,11.3,29.81,WNW,296,5.0,7.0,67,0.00,,FEW060,0.00,VWS V14.01,2013-01-22 15:09:00,
2013-01-22 10:10:00,20.5,11.0,29.81,NNE,26,0.0,5.0,66,0.00,,FEW060,0.00,VWS V14.01,2013-01-22 15:10:00,
2013-01-22 10:11:00,20.5,11.3,29.81,ESE,109,1.0,2.0,67,0.00,,FEW025,0.00,VWS V14.01,2013-01-22 15:11:00,
2013-01-22 10:13:00,20.6,11.4,29.81,West,277,2.0,4.0,67,0.00,,FEW060,0.00,VWS V14.01,2013-01-22 15:13:00,
2013-01-22 10:14:00,20.7,11.5,29.81,NNW,333,0.0,4.0,67,0.00,,FEW060,0.00,VWS V14.01,2013-01-22 15:14:00,
2013-01-22 10:15:00,20.9,11.7,29.81,ENE,77,0.0,1.0,67,0.00,,FEW060,0.00,VWS V14.01,2013-01-22 15:15:00,
2013-01-22 10:16:00,21.0,11.4,29.81,NNW,327,1.0,4.0,66,0.00,,FEW025,0.00,VWS V14.01,2013-01-22 15:16:00,
2013-01-22 10:17:00,21.0,11.4,29.81,NNW,331,0.0,4.0,66,0.00,,FEW060,0.00,VWS V14.01,2013-01-22 15:17:00,
2013-01-22 10:18:00,21.1,11.5,29.81,North,352,0.0,1.0,66,0.00,,FEW060,0.00,VWS V14.01,2013-01-22 15:18:00,
2013-01-22 10:19:00,21.3,12.1,29.81,WNW,294,0.0,1.0,67,0.00,,FEW060,0.00,VWS V14.01,2013-01-22 15:19:00,
2013-01-22 10:20:00,21.4,12.2,29.81,NNE,13,1.0,1.0,67,0.00,,FEW060,0.00,VWS V14.01,2013-01-22 15:20:00,
2013-01-22 10:21:00,21.6,12.0,29.81,NNE,22,2.0,3.0,66,0.00,,FEW025,0.00,VWS V14.01,2013-01-22 15:21:00,
2013-01-22 10:22:00,21.6,12.0,29.81,NE,41,2.0,3.0,66,0.00,,FEW060,0.00,VWS V14.01,2013-01-22 15:22:00,
2013-01-22 10:23:00,21.7,12.1,29.81,NNE,26,3.0,3.0,66,0.00,,FEW060,0.00,VWS V14.01,2013-01-22 15:23:00,
2013-01-22 10:24:00,21.7,12.1,29.81,NNW,338,3.0,3.0,66,0.00,,FEW060,0.00,VWS V14.01,2013-01-22 15:24:00,
2013-01-22 10:25:00,21.7,12.1,29.81,West,260,5.0,5.0,66,0.00,,FEW060,0.00,VWS V14.01,2013-01-22 15:25:00,
2013-01-22 10:26:00,21.7,11.8,29.81,SSW,207,2.0,4.0,65,0.00,,FEW025,0.00,VWS V14.01,2013-01-22 15:26:00,
2013-01-22 10:27:00,21.7,11.8,29.81,SSW,207,2.0,4.0,65,0.00,,FEW060,0.00,VWS V14.01,2013-01-22 15:27:00,
2013-01-22 10:28:00,21.6,11.7,29.81,WSW,237,4.0,6.0,65,0.00,,FEW060,0.00,VWS V14.01,2013-01-22 15:28:00,
2013-01-22 10:29:00,21.6,11.7,29.81,WSW,256,3.0,6.0,65,0.00,,FEW060,0.00,VWS V14.01,2013-01-22 15:29:00,
2013-01-22 10:30:00,21.6,11.7,29.81,SSW,203,0.0,3.0,65,0.00,,FEW060,0.00,VWS V14.01,2013-01-22 15:30:00,
2013-01-22 10:31:00,21.7,12.1,29.81,West,277,1.0,3.0,66,0.00,,FEW025,0.00,VWS V14.01,2013-01-22 15:31:00,
2013-01-22 10:32:00,21.7,12.1,29.81,West,277,1.0,3.0,66,0.00,,FEW060,0.00,VWS V14.01,2013-01-22 15:32:00,
2013-01-22 10:33:00,21.7,11.8,29.81,WSW,243,5.0,5.0,65,0.00,,FEW060,0.00,VWS V14.01,2013-01-22 15:33:00,
2013-01-22 10:34:00,21.7,11.8,29.81,ENE,70,2.0,5.0,65,0.00,,FEW060,0.00,VWS V14.01,2013-01-22 15:34:00,
2013-01-22 10:35:00,21.8,12.2,29.81,NE,44,2.0,2.0,66,0.00,,FEW060,0.00,VWS V14.01,2013-01-22 15:35:00,
2013-01-22 10:36:00,21.9,12.3,29.80,NE,34,3.0,7.0,66,0.00,,FEW030,0.00,VWS V14.01,2013-01-22 15:36:00,
2013-01-22 10:37:00,21.9,12.3,29.80,NE,34,3.0,7.0,66,0.00,,FEW060,0.00,VWS V14.01,2013-01-22 15:37:00,
2013-01-22 10:38:00,21.9,11.9,29.80,NNW,327,4.0,4.0,65,0.00,,FEW060,0.00,VWS V14.01,2013-01-22 15:38:00,
2013-01-22 10:39:00,21.9,11.9,29.80,NNE,27,2.0,4.0,65,0.00,,FEW060,0.00,VWS V14.01,2013-01-22 15:39:00,
2013-01-22 10:40:00,21.9,11.9,29.81,NNW,345,2.0,5.0,65,0.00,,FEW060,0.00,VWS V14.01,2013-01-22 15:40:00,
2013-01-22 10:41:00,21.9,12.0,29.81,East,98,2.0,5.0,65,0.00,,FEW030,0.00,VWS V14.01,2013-01-22 15:41:00,
2013-01-22 10:42:00,21.9,11.9,29.81,East,98,2.0,5.0,65,0.00,,FEW060,0.00,VWS V14.01,2013-01-22 15:42:00,
2013-01-22 10:43:00,22.0,12.1,29.81,NE,39,1.0,5.0,65,0.00,,FEW060,0.00,VWS V14.01,2013-01-22 15:43:00,
2013-01-22 10:44:00,21.9,11.9,29.80,ENE,68,2.0,4.0,65,0.00,,FEW060,0.00,VWS V14.01,2013-01-22 15:44:00,
2013-01-22 10:45:00,21.9,11.9,29.80,North,354,4.0,4.0,65,0.00,,FEW060,0.00,VWS V14.01,2013-01-22 15:45:00,
2013-01-22 10:46:00,22.1,12.1,29.80,NNE,13,2.0,3.0,65,0.00,,FEW030,0.00,VWS V14.01,2013-01-22 15:46:00,
2013-01-22 10:47:00,22.1,12.1,29.80,NNE,13,2.0,3.0,65,0.00,,FEW060,0.00,VWS V14.01,2013-01-22 15:47:00,
2013-01-22 10:48:00,22.2,12.2,29.80,North,9,4.0,4.0,65,0.00,,FEW060,0.00,VWS V14.01,2013-01-22 15:48:00,
2013-01-22 10:49:00,22.3,12.3,29.80,West,277,1.0,4.0,65,0.00,,FEW060,0.00,VWS V14.01,2013-01-22 15:49:00,
2013-01-22 10:50:00,22.3,12.0,29.80,NNW,343,0.0,2.0,64,0.00,,FEW060,0.00,VWS V14.01,2013-01-22 15:50:00,
2013-01-22 10:51:00,22.6,12.6,29.80,ENE,74,5.0,6.0,65,0.00,,FEW030,0.00,VWS V14.01,2013-01-22 15:51:00,
2013-01-22 10:52:00,22.6,12.6,29.80,ENE,74,5.0,6.0,65,0.00,,FEW060,0.00,VWS V14.01,2013-01-22 15:52:00,
2013-01-22 10:53:00,22.7,12.4,29.80,ENE,63,3.0,5.0,64,0.00,,FEW060,0.00,VWS V14.01,2013-01-22 15:53:00,
2013-01-22 10:54:00,22.7,12.4,29.80,North,11,0.0,3.0,64,0.00,,FEW060,0.00,VWS V14.01,2013-01-22 15:54:00,
2013-01-22 10:55:00,22.9,12.6,29.80,North,11,3.0,4.0,64,0.00,,FEW060,0.00,VWS V14.01,2013-01-22 15:55:00,
2013-01-22 10:56:00,23.1,12.0,29.80,WNW,291,3.0,4.0,62,0.00,,FEW030,0.00,VWS V14.01,2013-01-22 15:56:00,
2013-01-22 10:57:00,23.0,11.9,29.80,ENE,78,3.0,5.0,62,0.00,,FEW060,0.00,VWS V14.01,2013-01-22 15:57:00,
2013-01-22 10:58:00,23.1,12.0,29.80,North,352,2.0,4.0,62,0.00,,FEW060,0.00,VWS V14.01,2013-01-22 15:58:00,
2013-01-22 10:59:00,23.2,12.1,29.80,SE,139,2.0,3.0,62,0.00,,FEW060,0.00,VWS V14.01,2013-01-22 15:59:00,
2013-01-22 11:00:00,23.3,12.6,29.80,North,5,2.0,4.0,63,0.00,,FEW060,0.00,VWS V14.01,2013-01-22 16:00:00,
2013-01-22 11:01:00,23.7,12.6,29.80,West,263,1.0,4.0,62,0.00,,FEW030,0.00,VWS V14.01,2013-01-22 16:01:00,
2013-01-22 11:02:00,23.6,12.5,29.80,WNW,289,0.0,2.0,62,0.00,,FEW060,0.00,VWS V14.01,2013-01-22 16:02:00,
2013-01-22 11:03:00,23.8,12.3,29.80,SE,136,1.0,4.0,61,0.00,,FEW060,0.00,VWS V14.01,2013-01-22 16:03:00,
2013-01-22 11:04:00,24.0,12.5,29.80,East,81,0.0,1.0,61,0.00,,FEW060,0.00,VWS V14.01,2013-01-22 16:04:00,
2013-01-22 11:05:00,24.1,12.2,29.80,West,260,4.0,4.0,60,0.00,,FEW060,0.00,VWS V14.01,2013-01-22 16:05:00,
2013-01-22 11:06:00,24.6,11.9,29.80,West,259,4.0,7.0,58,0.00,,FEW030,0.00,VWS V14.01,2013-01-22 16:06:00,
2013-01-22 11:07:00,24.5,12.2,29.80,West,280,3.0,6.0,59,0.00,,FEW060,0.00,VWS V14.01,2013-01-22 16:07:00,
2013-01-22 11:08:00,24.7,10.9,29.80,NE,36,4.0,7.0,55,0.00,,FEW060,0.00,VWS V14.01,2013-01-22 16:08:00,
2013-01-22 11:09:00,24.8,10.1,29.80,NW,325,1.0,6.0,53,0.00,,FEW060,0.00,VWS V14.01,2013-01-22 16:09:00,
2013-01-22 11:10:00,24.8,9.7,29.80,NW,319,4.0,9.0,52,0.00,,FEW060,0.00,VWS V14.01,2013-01-22 16:10:00,
2013-01-22 11:11:00,24.8,8.4,29.80,WSW,256,3.0,6.0,49,0.00,,FEW030,0.00,VWS V14.01,2013-01-22 16:11:00,
2013-01-22 11:12:00,24.8,8.8,29.80,West,278,5.0,14.0,50,0.00,,FEW060,0.00,VWS V14.01,2013-01-22 16:12:00,
2013-01-22 11:13:00,24.8,8.4,29.80,West,270,2.0,6.0,49,0.00,,FEW060,0.00,VWS V14.01,2013-01-22 16:13:00,
2013-01-22 11:14:00,24.8,7.9,29.80,West,271,2.0,8.0,48,0.00,,FEW060,0.00,VWS V14.01,2013-01-22 16:14:00,
2013-01-22 11:15:00,24.7,7.8,29.80,West,274,8.0,10.0,48,0.00,,FEW060,0.00,VWS V14.01,2013-01-22 16:15:00,
2013-01-22 11:16:00,24.6,7.3,29.79,NW,316,4.0,11.0,47,0.00,,FEW060,0.00,VWS V14.01,2013-01-22 16:16:00,
2013-01-22 11:17:00,24.5,7.6,29.80,West,270,3.0,5.0,48,0.00,,FEW030,0.00,VWS V14.01,2013-01-22 16:17:00,
2013-01-22 11:18:00,24.5,7.6,29.80,SW,224,4.0,5.0,48,0.00,,FEW060,0.00,VWS V14.01,2013-01-22 16:18:00,
2013-01-22 11:19:00,24.6,7.7,29.80,WNW,283,4.0,8.0,48,0.00,,FEW060,0.00,VWS V14.01,2013-01-22 16:19:00,
2013-01-22 11:20:00,24.5,6.7,29.80,WNW,302,5.0,14.0,46,0.00,,FEW060,0.00,VWS V14.01,2013-01-22 16:20:00,
2013-01-22 11:21:00,24.4,6.6,29.79,West,269,7.0,8.0,46,0.00,,FEW060,0.00,VWS V14.01,2013-01-22 16:21:00,
2013-01-22 11:22:00,24.5,7.2,29.79,West,281,9.0,11.0,47,0.00,,FEW030,0.00,VWS V14.01,2013-01-22 16:22:00,
2013-01-22 11:23:00,24.5,7.2,29.79,West,281,9.0,11.0,47,0.00,,FEW060,0.00,VWS V14.01,2013-01-22 16:23:00,
2013-01-22 11:24:00,24.5,6.7,29.79,East,84,1.0,9.0,46,0.00,,FEW060,0.00,VWS V14.01,2013-01-22 16:24:00,
2013-01-22 11:25:00,24.6,6.8,29.79,NW,323,7.0,7.0,46,0.00,,FEW060,0.00,VWS V14.01,2013-01-22 16:25:00,
2013-01-22 11:26:00,24.6,6.3,29.79,WSW,255,11.0,13.0,45,0.00,,FEW060,0.00,VWS V14.01,2013-01-22 16:26:00,
2013-01-22 11:27:00,24.5,5.7,29.79,West,271,2.0,14.0,44,0.00,,FEW030,0.00,VWS V14.01,2013-01-22 16:27:00,
2013-01-22 11:28:00,24.5,5.7,29.79,West,271,2.0,14.0,44,0.00,,FEW060,0.00,VWS V14.01,2013-01-22 16:28:00,
2013-01-22 11:29:00,24.4,5.1,29.79,WSW,257,3.0,10.0,43,0.00,,FEW060,0.00,VWS V14.01,2013-01-22 16:29:00,
2013-01-22 11:30:00,24.4,5.1,29.79,WNW,299,4.0,11.0,43,0.00,,FEW060,0.00,VWS V14.01,2013-01-22 16:30:00,
2013-01-22 11:31:00,24.3,4.5,29.79,NNW,341,3.0,11.0,42,0.00,,FEW060,0.00,VWS V14.01,2013-01-22 16:31:00,
2013-01-22 11:32:00,24.3,5.0,29.79,NE,43,4.0,8.0,43,0.00,,SCT040,0.00,VWS V14.01,2013-01-22 16:32:00,
2013-01-22 11:33:00,24.3,5.0,29.79,NE,43,4.0,8.0,43,0.00,,FEW060,0.00,VWS V14.01,2013-01-22 16:33:00,
2013-01-22 11:34:00,24.2,4.9,29.79,WSW,240,8.0,11.0,43,0.00,,FEW060,0.00,VWS V14.01,2013-01-22 16:34:00,
2013-01-22 11:35:00,24.2,4.9,29.79,West,278,1.0,8.0,43,0.00,,FEW060,0.00,VWS V14.01,2013-01-22 16:35:00,
2013-01-22 11:36:00,24.2,4.9,29.79,South,171,0.0,2.0,43,0.00,,FEW060,0.00,VWS V14.01,2013-01-22 16:36:00,
2013-01-22 11:37:00,24.3,4.5,29.79,West,277,2.0,10.0,42,0.00,,SCT040,0.00,VWS V14.01,2013-01-22 16:37:00,
2013-01-22 11:38:00,24.3,4.5,29.79,West,277,2.0,10.0,42,0.00,,FEW060,0.00,VWS V14.01,2013-01-22 16:38:00,
2013-01-22 11:39:00,24.2,4.4,29.79,NW,306,6.0,7.0,42,0.00,,FEW060,0.00,VWS V14.01,2013-01-22 16:39:00,
2013-01-22 11:40:00,24.2,4.4,29.79,WNW,283,1.0,7.0,42,0.00,,FEW060,0.00,VWS V14.01,2013-01-22 16:40:00,
2013-01-22 11:41:00,24.2,4.4,29.79,NNE,15,1.0,4.0,42,0.00,,FEW060,0.00,VWS V14.01,2013-01-22 16:41:00,
2013-01-22 11:42:00,24.2,4.9,29.79,NNE,16,1.0,4.0,43,0.00,,SCT040,0.00,VWS V14.01,2013-01-22 16:42:00,
2013-01-22 11:43:00,24.2,4.9,29.79,NNE,16,1.0,4.0,43,0.00,,FEW060,0.00,VWS V14.01,2013-01-22 16:43:00,
2013-01-22 11:44:00,24.3,5.0,29.79,WNW,284,4.0,5.0,43,0.00,,FEW060,0.00,VWS V14.01,2013-01-22 16:44:00,
2013-01-22 11:45:00,24.4,5.1,29.79,WNW,285,6.0,9.0,43,0.00,,FEW060,0.00,VWS V14.01,2013-01-22 16:45:00,
2013-01-22 11:46:00,24.4,4.6,29.79,East,98,1.0,8.0,42,0.00,,FEW060,0.00,VWS V14.01,2013-01-22 16:46:00,
2013-01-22 11:47:00,24.7,5.4,29.79,WSW,243,4.0,4.0,43,0.00,,SCT040,0.00,VWS V14.01,2013-01-22 16:47:00,
2013-01-22 11:48:00,24.7,5.4,29.79,West,264,4.0,7.0,43,0.00,,FEW060,0.00,VWS V14.01,2013-01-22 16:48:00,
2013-01-22 11:49:00,24.8,4.4,29.79,West,270,2.0,11.0,41,0.00,,FEW060,0.00,VWS V14.01,2013-01-22 16:49:00,
2013-01-22 11:50:00,24.8,4.4,29.79,WSW,250,4.0,10.0,41,0.00,,FEW060,0.00,VWS V14.01,2013-01-22 16:50:00,
2013-01-22 11:51:00,24.8,3.9,29.79,West,271,5.0,10.0,40,0.00,,FEW060,0.00,VWS V14.01,2013-01-22 16:51:00,
2013-01-22 11:52:00,24.7,3.3,29.79,SW,214,1.0,1.0,39,0.00,,SCT040,0.00,VWS V14.01,2013-01-22 16:52:00,
2013-01-22 11:53:00,24.7,3.3,29.79,ENE,70,1.0,6.0,39,0.00,,FEW060,0.00,VWS V14.01,2013-01-22 16:53:00,
2013-01-22 11:55:00,24.8,4.4,29.79,West,270,2.0,3.0,41,0.00,,FEW060,0.00,VWS V14.01,2013-01-22 16:55:00,
2013-01-22 11:56:00,24.8,3.9,29.79,West,278,6.0,9.0,40,0.00,,FEW060,0.00,VWS V14.01,2013-01-22 16:56:00,
2013-01-22 11:57:00,25.0,4.1,29.79,NNW,327,1.0,7.0,40,0.00,,SCT040,0.00,VWS V14.01,2013-01-22 16:57:00,
2013-01-22 11:58:00,25.0,4.1,29.79,NNW,327,1.0,7.0,40,0.00,,FEW060,0.00,VWS V14.01,2013-01-22 16:58:00,
2013-01-22 11:59:00,25.0,4.1,29.79,WNW,282,4.0,5.0,40,0.00,,FEW060,0.00,VWS V14.01,2013-01-22 16:59:00,
2013-01-22 12:00:00,25.1,4.2,29.79,NW,323,1.0,9.0,40,0.00,,FEW060,0.00,VWS V14.01,2013-01-22 17:00:00,
2013-01-22 12:01:00,25.2,4.3,29.79,WSW,247,6.0,10.0,40,0.00,,FEW060,0.00,VWS V14.01,2013-01-22 17:01:00,
2013-01-22 12:02:00,25.2,4.8,29.79,NW,320,5.0,7.0,41,0.00,,SCT040,0.00,VWS V14.01,2013-01-22 17:02:00,
2013-01-22 12:03:00,25.2,4.8,29.79,NW,320,5.0,7.0,41,0.00,,FEW060,0.00,VWS V14.01,2013-01-22 17:03:00,
2013-01-22 12:04:00,25.2,4.8,29.79,NW,304,4.0,5.0,41,0.00,,FEW060,0.00,VWS V14.01,2013-01-22 17:04:00,
2013-01-22 12:05:00,25.1,4.7,29.79,WSW,256,6.0,6.0,41,0.00,,FEW060,0.00,VWS V14.01,2013-01-22 17:05:00,
2013-01-22 12:06:00,25.2,4.8,29.79,West,273,1.0,10.0,41,0.00,,FEW060,0.00,VWS V14.01,2013-01-22 17:06:00,
2013-01-22 12:07:00,25.1,4.7,29.79,WSW,253,8.0,8.0,41,0.00,,SCT040,0.00,VWS V14.01,2013-01-22 17:07:00,
2013-01-22 12:08:00,25.2,4.8,29.79,West,274,3.0,9.0,41,0.00,,FEW060,0.00,VWS V14.01,2013-01-22 17:08:00,
2013-01-22 12:09:00,25.1,4.7,29.78,WNW,294,4.0,8.0,41,0.00,,FEW060,0.00,VWS V14.01,2013-01-22 17:09:00,
2013-01-22 12:10:00,25.0,4.6,29.78,NE,37,4.0,8.0,41,0.00,,FEW060,0.00,VWS V14.01,2013-01-22 17:10:00,
2013-01-22 12:11:00,24.9,4.6,29.78,West,266,10.0,13.0,41,0.00,,FEW060,0.00,VWS V14.01,2013-01-22 17:11:00,
2013-01-22 12:12:00,24.8,4.4,29.78,West,266,1.0,3.0,41,0.00,,SCT040,0.00,VWS V14.01,2013-01-22 17:12:00,
2013-01-22 12:13:00,24.8,4.4,29.78,NW,318,3.0,9.0,41,0.00,,FEW060,0.00,VWS V14.01,2013-01-22 17:13:00,
2013-01-22 12:14:00,24.8,5.0,29.79,WNW,297,7.0,7.0,42,0.00,,FEW060,0.00,VWS V14.01,2013-01-22 17:14:00,
2013-01-22 12:15:00,24.9,5.1,29.79,NNW,336,3.0,7.0,42,0.00,,FEW060,0.00,VWS V14.01,2013-01-22 17:15:00,
2013-01-22 12:16:00,25.0,5.2,29.79,West,278,2.0,5.0,42,0.00,,FEW060,0.00,VWS V14.01,2013-01-22 17:16:00,
2013-01-22 12:17:00,25.3,5.4,29.79,NNE,25,4.0,6.0,42,0.00,,SCT040,0.00,VWS V14.01,2013-01-22 17:17:00,
2013-01-22 12:18:00,25.3,5.4,29.79,NNE,13,1.0,4.0,42,0.00,,FEW060,0.00,VWS V14.01,2013-01-22 17:18:00,
2013-01-22 12:19:00,25.3,5.4,29.79,North,4,1.0,6.0,42,0.00,,FEW060,0.00,VWS V14.01,2013-01-22 17:19:00,
2013-01-22 12:20:00,25.3,5.4,29.79,NW,306,3.0,5.0,42,0.00,,FEW060,0.00,VWS V14.01,2013-01-22 17:20:00,
2013-01-22 12:21:00,25.3,5.4,29.79,NNE,13,2.0,5.0,42,0.00,,FEW060,0.00,VWS V14.01,2013-01-22 17:21:00,
2013-01-22 12:22:00,25.3,5.4,29.79,WNW,293,3.0,4.0,42,0.00,,SCT040,0.00,VWS V14.01,2013-01-22 17:22:00,
2013-01-22 12:23:00,25.3,5.4,29.79,NNW,340,1.0,4.0,42,0.00,,FEW060,0.00,VWS V14.01,2013-01-22 17:23:00,
2013-01-22 12:24:00,25.3,5.4,29.79,WSW,256,5.0,5.0,42,0.00,,FEW060,0.00,VWS V14.01,2013-01-22 17:24:00,
2013-01-22 12:25:00,25.3,5.4,29.79,SSE,167,2.0,5.0,42,0.00,,FEW060,0.00,VWS V14.01,2013-01-22 17:25:00,
2013-01-22 12:26:00,25.4,6.0,29.79,West,269,3.0,4.0,43,0.00,,FEW060,0.00,VWS V14.01,2013-01-22 17:26:00,
2013-01-22 12:27:00,25.6,5.2,29.79,West,261,4.0,5.0,41,0.00,,SCT040,0.00,VWS V14.01,2013-01-22 17:27:00,
2013-01-22 12:28:00,25.6,5.2,29.79,West,273,2.0,7.0,41,0.00,,FEW060,0.00,VWS V14.01,2013-01-22 17:28:00,
2013-01-22 12:29:00,25.6,5.2,29.79,North,353,3.0,5.0,41,0.00,,FEW060,0.00,VWS V14.01,2013-01-22 17:29:00,
2013-01-22 12:30:00,25.6,5.2,29.79,West,259,4.0,4.0,41,0.00,,FEW060,0.00,VWS V14.01,2013-01-22 17:30:00,
2013-01-22 12:31:00,25.7,5.3,29.79,NNW,327,4.0,6.0,41,0.00,,FEW060,0.00,VWS V14.01,2013-01-22 17:31:00,
2013-01-22 12:32:00,25.7,4.7,29.79,WNW,288,3.0,5.0,40,0.00,,FEW060,0.00,VWS V14.01,2013-01-22 17:32:00,
2013-01-22 12:33:00,25.7,4.7,29.79,NW,320,5.0,5.0,40,0.00,,SCT040,0.00,VWS V14.01,2013-01-22 17:33:00,
2013-01-22 12:34:00,25.7,4.7,29.79,WNW,294,5.0,5.0,40,0.00,,FEW060,0.00,VWS V14.01,2013-01-22 17:34:00,
2013-01-22 12:35:00,25.7,4.7,29.79,West,277,5.0,10.0,40,0.00,,FEW060,0.00,VWS V14.01,2013-01-22 17:35:00,
2013-01-22 12:36:00,25.5,3.4,29.79,West,267,2.0,7.0,38,0.00,,FEW060,0.00,VWS V14.01,2013-01-22 17:36:00,
2013-01-22 12:37:00,25.5,4.0,29.79,NNW,347,1.0,3.0,39,0.00,,FEW060,0.00,VWS V14.01,2013-01-22 17:37:00,
2013-01-22 12:38:00,25.4,4.5,29.79,WSW,245,4.0,5.0,40,0.00,,BKN050,0.00,VWS V14.01,2013-01-22 17:38:00,
2013-01-22 12:39:00,25.4,4.5,29.79,WSW,249,3.0,5.0,40,0.00,,FEW060,0.00,VWS V14.01,2013-01-22 17:39:00,
2013-01-22 12:40:00,25.5,4.6,29.79,SW,235,2.0,3.0,40,0.00,,FEW060,0.00,VWS V14.01,2013-01-22 17:40:00,
2013-01-22 12:41:00,25.6,4.6,29.79,WSW,250,6.0,6.0,40,0.00,,FEW060,0.00,VWS V14.01,2013-01-22 17:41:00,
2013-01-22 12:42:00,25.7,4.2,29.79,SSE,160,3.0,6.0,39,0.00,,FEW060,0.00,VWS V14.01,2013-01-22 17:42:00,
2013-01-22 12:43:00,25.7,4.2,29.79,WSW,248,4.0,4.0,39,0.00,,BKN050,0.00,VWS V14.01,2013-01-22 17:43:00,
2013-01-22 12:44:00,25.7,4.2,29.79,WNW,292,3.0,9.0,39,0.00,,FEW060,0.00,VWS V14.01,2013-01-22 17:44:00,
2013-01-22 12:45:00,25.7,3.6,29.78,WNW,292,4.0,7.0,38,0.00,,FEW060,0.00,VWS V14.01,2013-01-22 17:45:00,
2013-01-22 12:46:00,25.7,3.6,29.79,WNW,303,6.0,10.0,38,0.00,,FEW060,0.00,VWS V14.01,2013-01-22 17:46:00,
2013-01-22 12:47:00,25.7,4.2,29.79,WNW,287,3.0,7.0,39,0.00,,FEW060,0.00,VWS V14.01,2013-01-22 17:47:00,
2013-01-22 12:48:00,26.0,5.0,29.79,WNW,282,1.0,2.0,40,0.00,,BKN050,0.00,VWS V14.01,2013-01-22 17:48:00,
2013-01-22 12:49:00,25.9,4.9,29.79,WNW,283,2.0,6.0,40,0.00,,FEW060,0.00,VWS V14.01,2013-01-22 17:49:00,
2013-01-22 12:50:00,26.1,5.1,29.79,SW,229,0.0,2.0,40,0.00,,FEW060,0.00,VWS V14.01,2013-01-22 17:50:00,
2013-01-22 12:51:00,26.4,5.9,29.79,West,259,4.0,4.0,41,0.00,,FEW060,0.00,VWS V14.01,2013-01-22 17:51:00,
2013-01-22 12:52:00,26.6,6.1,29.79,East,84,1.0,3.0,41,0.00,,FEW060,0.00,VWS V14.01,2013-01-22 17:52:00,
2013-01-22 12:53:00,26.9,5.3,29.78,West,273,1.0,2.0,39,0.00,,BKN050,0.00,VWS V14.01,2013-01-22 17:53:00,
2013-01-22 12:54:00,26.9,5.3,29.78,NW,321,2.0,6.0,39,0.00,,FEW060,0.00,VWS V14.01,2013-01-22 17:54:00,
2013-01-22 12:55:00,26.9,4.7,29.79,West,277,6.0,6.0,38,0.00,,FEW060,0.00,VWS V14.01,2013-01-22 17:55:00,
2013-01-22 12:56:00,26.8,4.0,29.78,WSW,256,5.0,10.0,37,0.00,,FEW060,0.00,VWS V14.01,2013-01-22 17:56:00,
2013-01-22 12:57:00,26.7,3.3,29.79,West,273,4.0,8.0,36,0.00,,FEW060,0.00,VWS V14.01,2013-01-22 17:57:00,
2013-01-22 12:58:00,26.5,3.2,29.78,West,266,5.0,7.0,36,0.00,,BKN050,0.00,VWS V14.01,2013-01-22 17:58:00,
2013-01-22 12:59:00,26.5,3.2,29.78,WSW,240,6.0,11.0,36,0.00,,FEW060,0.00,VWS V14.01,2013-01-22 17:59:00,
2013-01-22 13:00:00,26.5,3.2,29.78,WSW,256,13.0,13.0,36,0.00,,FEW060,0.00,VWS V14.01,2013-01-22 18:00:00,
2013-01-22 13:01:00,26.3,1.8,29.78,North,350,4.0,10.0,34,0.00,,FEW060,0.00,VWS V14.01,2013-01-22 18:01:00,
2013-01-22 13:02:00,26.2,2.3,29.78,North,6,2.0,4.0,35,0.00,,FEW060,0.00,VWS V14.01,2013-01-22 18:02:00,
2013-01-22 13:03:00,26.1,2.8,29.78,NNE,30,3.0,6.0,36,0.00,,BKN050,0.00,VWS V14.01,2013-01-22 18:03:00,
2013-01-22 13:04:00,26.1,2.2,29.78,SSW,195,1.0,6.0,35,0.00,,FEW060,0.00,VWS V14.01,2013-01-22 18:04:00,
2013-01-22 13:05:00,26.1,2.8,29.78,NE,39,1.0,6.0,36,0.00,,FEW060,0.00,VWS V14.01,2013-01-22 18:05:00,
2013-01-22 13:06:00,26.1,3.4,29.78,WSW,256,1.0,1.0,37,0.00,,FEW060,0.00,VWS V14.01,2013-01-22 18:06:00,
2013-01-22 13:07:00,26.3,3.6,29.78,NNE,27,4.0,5.0,37,0.00,,FEW060,0.00,VWS V14.01,2013-01-22 18:07:00,
2013-01-22 13:08:00,26.4,3.7,29.79,West,274,5.0,9.0,37,0.00,,FEW060,0.00,VWS V14.01,2013-01-22 18:08:00,
2013-01-22 13:09:00,26.4,3.1,29.79,NW,324,4.0,10.0,36,0.00,,BKN050,0.00,VWS V14.01,2013-01-22 18:09:00,
2013-01-22 13:10:00,26.3,3.0,29.79,NE,44,7.0,10.0,36,0.00,,FEW060,0.00,VWS V14.01,2013-01-22 18:10:00,
2013-01-22 13:11:00,26.3,3.0,29.79,North,358,6.0,9.0,36,0.00,,FEW060,0.00,VWS V14.01,2013-01-22 18:11:00,
2013-01-22 13:12:00,26.2,2.9,29.79,West,269,3.0,6.0,36,0.00,,FEW060,0.00,VWS V14.01,2013-01-22 18:12:00,
2013-01-22 13:13:00,26.2,3.5,29.79,East,98,0.0,3.0,37,0.00,,FEW060,0.00,VWS V14.01,2013-01-22 18:13:00,
2013-01-22 13:14:00,26.5,4.3,29.79,SW,216,5.0,5.0,38,0.00,,BKN050,0.00,VWS V14.01,2013-01-22 18:14:00,
2013-01-22 13:15:00,26.5,4.3,29.79,West,259,1.0,5.0,38,0.00,,FEW060,0.00,VWS V14.01,2013-01-22 18:15:00,
2013-01-22 13:16:00,26.7,3.9,29.79,NW,320,3.0,3.0,37,0.00,,FEW060,0.00,VWS V14.01,2013-01-22 18:16:00,
2013-01-22 13:17:00,26.8,3.4,29.79,WNW,283,3.0,6.0,36,0.00,,FEW060,0.00,VWS V14.01,2013-01-22 18:17:00,
2013-01-22 13:18:00,26.8,3.4,29.79,West,273,3.0,4.0,36,0.00,,FEW060,0.00,VWS V14.01,2013-01-22 18:18:00,
2013-01-22 13:19:00,26.7,3.3,29.79,West,267,11.0,11.0,36,0.00,,BKN050,0.00,VWS V14.01,2013-01-22 18:19:00,
2013-01-22 13:20:00,26.6,3.3,29.79,WSW,253,11.0,11.0,36,0.00,,FEW060,0.00,VWS V14.01,2013-01-22 18:20:00,
2013-01-22 13:21:00,26.5,2.6,29.79,SW,219,4.0,12.0,35,0.00,,FEW060,0.00,VWS V14.01,2013-01-22 18:21:00,
2013-01-22 13:22:00,26.3,2.4,29.79,North,352,3.0,8.0,35,0.00,,FEW060,0.00,VWS V14.01,2013-01-22 18:22:00,
2013-01-22 13:23:00,26.4,3.7,29.79,NW,311,4.0,6.0,37,0.00,,FEW060,0.00,VWS V14.01,2013-01-22 18:23:00,
2013-01-22 13:24:00,26.5,3.2,29.79,SW,233,2.0,9.0,36,0.00,,BKN050,0.00,VWS V14.01,2013-01-22 18:24:00,
2013-01-22 13:25:00,26.5,3.2,29.79,WNW,284,1.0,9.0,36,0.00,,FEW060,0.00,VWS V14.01,2013-01-22 18:25:00,
2013-01-22 13:26:00,26.6,3.8,29.79,West,275,5.0,5.0,37,0.00,,FEW060,0.00,VWS V14.01,2013-01-22 18:26:00,
2013-01-22 13:27:00,26.6,3.3,29.79,WSW,238,7.0,9.0,36,0.00,,FEW060,0.00,VWS V14.01,2013-01-22 18:27:00,
2013-01-22 13:28:00,26.4,2.5,29.79,WSW,252,2.0,8.0,35,0.00,,FEW060,0.00,VWS V14.01,2013-01-22 18:28:00,
2013-01-22 13:29:00,26.2,2.9,29.79,West,281,6.0,12.0,36,0.00,,BKN050,0.00,VWS V14.01,2013-01-22 18:29:00,
2013-01-22 13:30:00,26.2,2.9,29.79,WSW,239,9.0,12.0,36,0.00,,FEW060,0.00,VWS V14.01,2013-01-22 18:30:00,
2013-01-22 13:31:00,26.1,2.8,29.79,NNW,337,1.0,9.0,36,0.00,,FEW060,0.00,VWS V14.01,2013-01-22 18:31:00,
2013-01-22 13:32:00,26.1,3.4,29.79,WSW,253,8.0,9.0,37,0.00,,FEW060,0.00,VWS V14.01,2013-01-22 18:32:00,
2013-01-22 13:33:00,26.1,2.8,29.79,West,262,3.0,9.0,36,0.00,,FEW060,0.00,VWS V14.01,2013-01-22 18:33:00,
2013-01-22 13:34:00,26.2,2.9,29.80,WNW,295,5.0,7.0,36,0.00,,BKN060,0.00,VWS V14.01,2013-01-22 18:34:00,
2013-01-22 13:35:00,26.2,2.9,29.80,WNW,295,5.0,7.0,36,0.00,,FEW060,0.00,VWS V14.01,2013-01-22 18:35:00,
2013-01-22 13:36:00,26.2,2.9,29.79,SW,221,2.0,12.0,36,0.00,,FEW060,0.00,VWS V14.01,2013-01-22 18:36:00,
2013-01-22 13:38:00,26.2,2.3,29.79,NW,325,3.0,15.0,35,0.00,,FEW060,0.00,VWS V14.01,2013-01-22 18:38:00,
2013-01-22 13:39:00,26.1,1.6,29.79,NNW,328,4.0,11.0,34,0.00,,BKN060,0.00,VWS V14.01,2013-01-22 18:39:00,
2013-01-22 13:40:00,26.1,1.6,29.79,NNW,328,4.0,11.0,34,0.00,,FEW060,0.00,VWS V14.01,2013-01-22 18:40:00,
2013-01-22 13:41:00,26.0,2.1,29.79,SW,214,4.0,6.0,35,0.00,,FEW060,0.00,VWS V14.01,2013-01-22 18:41:00,
2013-01-22 13:42:00,26.0,2.1,29.80,NW,322,7.0,10.0,35,0.00,,FEW060,0.00,VWS V14.01,2013-01-22 18:42:00,
2013-01-22 13:43:00,26.0,2.1,29.79,West,275,5.0,11.0,35,0.00,,FEW060,0.00,VWS V14.01,2013-01-22 18:43:00,
2013-01-22 13:44:00,25.9,1.4,29.80,West,267,7.0,10.0,34,0.00,,BKN060,0.00,VWS V14.01,2013-01-22 18:44:00,
2013-01-22 13:45:00,25.9,1.4,29.80,West,267,7.0,10.0,34,0.00,,FEW060,0.00,VWS V14.01,2013-01-22 18:45:00,
2013-01-22 13:46:00,25.9,1.4,29.80,NW,315,3.0,10.0,34,0.00,,FEW060,0.00,VWS V14.01,2013-01-22 18:46:00,
2013-01-22 13:47:00,25.8,0.7,29.80,West,277,8.0,13.0,33,0.00,,FEW060,0.00,VWS V14.01,2013-01-22 18:47:00,
2013-01-22 13:48:00,25.7,0.6,29.80,SSW,205,3.0,11.0,33,0.00,,FEW060,0.00,VWS V14.01,2013-01-22 18:48:00,
2013-01-22 13:49:00,25.6,1.1,29.80,West,271,8.0,9.0,34,0.00,,BKN060,0.00,VWS V14.01,2013-01-22 18:49:00,
2013-01-22 13:50:00,25.6,1.1,29.80,West,267,8.0,8.0,34,0.00,,FEW060,0.00,VWS V14.01,2013-01-22 18:50:00,
2013-01-22 13:51:00,25.5,1.0,29.80,SW,217,3.0,11.0,34,0.00,,FEW060,0.00,VWS V14.01,2013-01-22 18:51:00,
2013-01-22 13:52:00,25.5,1.0,29.80,WNW,290,6.0,8.0,34,0.00,,FEW060,0.00,VWS V14.01,2013-01-22 18:52:00,
2013-01-22 13:53:00,25.5,1.7,29.80,NNW,331,2.0,6.0,35,0.00,,FEW060,0.00,VWS V14.01,2013-01-22 18:53:00,
2013-01-22 13:54:00,25.7,2.5,29.80,WSW,249,4.0,8.0,36,0.00,,BKN060,0.00,VWS V14.01,2013-01-22 18:54:00,
2013-01-22 13:55:00,25.7,2.5,29.80,WSW,249,4.0,8.0,36,0.00,,FEW060,0.00,VWS V14.01,2013-01-22 18:55:00,
2013-01-22 13:56:00,25.8,1.9,29.80,West,271,5.0,5.0,35,0.00,,FEW060,0.00,VWS V14.01,2013-01-22 18:56:00,
2013-01-22 13:57:00,25.8,2.5,29.80,NW,306,3.0,7.0,36,0.00,,FEW060,0.00,VWS V14.01,2013-01-22 18:57:00,
2013-01-22 13:58:00,25.8,1.9,29.80,NNW,346,2.0,6.0,35,0.00,,FEW060,0.00,VWS V14.01,2013-01-22 18:58:00,
2013-01-22 13:59:00,25.7,1.9,29.80,NE,55,4.0,7.0,35,0.00,,BKN060,0.00,VWS V14.01,2013-01-22 18:59:00,
2013-01-22 14:00:00,25.7,1.9,29.80,NE,55,4.0,7.0,35,0.00,,FEW060,0.00,VWS V14.01,2013-01-22 19:00:00,
2013-01-22 14:01:00,25.7,1.9,29.80,NNE,20,2.0,6.0,35,0.00,,FEW060,0.00,VWS V14.01,2013-01-22 19:01:00,
2013-01-22 14:02:00,25.7,1.9,29.80,West,280,3.0,7.0,35,0.00,,FEW060,0.00,VWS V14.01,2013-01-22 19:02:00,
2013-01-22 14:03:00,25.7,1.9,29.80,North,359,2.0,5.0,35,0.00,,FEW060,0.00,VWS V14.01,2013-01-22 19:03:00,
2013-01-22 14:04:00,25.7,1.2,29.80,NW,318,0.0,7.0,34,0.00,,BKN060,0.00,VWS V14.01,2013-01-22 19:04:00,
2013-01-22 14:05:00,25.7,1.2,29.80,NW,318,0.0,7.0,34,0.00,,FEW060,0.00,VWS V14.01,2013-01-22 19:05:00,
2013-01-22 14:06:00,25.7,1.2,29.80,ESE,110,3.0,5.0,34,0.00,,FEW060,0.00,VWS V14.01,2013-01-22 19:06:00,
2013-01-22 14:07:00,25.7,1.2,29.80,West,271,4.0,9.0,34,0.00,,FEW060,0.00,VWS V14.01,2013-01-22 19:07:00,
2013-01-22 14:08:00,25.5,1.0,29.80,NW,306,4.0,12.0,34,0.00,,FEW060,0.00,VWS V14.01,2013-01-22 19:08:00,
2013-01-22 14:09:00,25.5,1.0,29.80,WNW,289,4.0,4.0,34,0.00,,BKN060,0.00,VWS V14.01,2013-01-22 19:09:00,
2013-01-22 14:10:00,25.5,1.0,29.80,NW,312,3.0,4.0,34,0.00,,FEW060,0.00,VWS V14.01,2013-01-22 19:10:00,
2013-01-22 14:11:00,25.6,1.1,29.80,NNE,23,3.0,6.0,34,0.00,,FEW060,0.00,VWS V14.01,2013-01-22 19:11:00,
2013-01-22 14:12:00,25.6,1.8,29.81,WNW,293,4.0,7.0,35,0.00,,FEW060,0.00,VWS V14.01,2013-01-22 19:12:00,
2013-01-22 14:13:00,25.7,1.9,29.80,West,276,1.0,8.0,35,0.00,,FEW060,0.00,VWS V14.01,2013-01-22 19:13:00,
2013-01-22 14:14:00,25.7,1.9,29.81,WNW,287,0.0,3.0,35,0.00,,BKN060,0.00,VWS V14.01,2013-01-22 19:14:00,
2013-01-22 14:15:00,25.7,1.9,29.81,West,276,2.0,7.0,35,0.00,,FEW060,0.00,VWS V14.01,2013-01-22 19:15:00,
2013-01-22 14:16:00,25.7,2.5,29.81,WSW,256,7.0,8.0,36,0.00,,FEW060,0.00,VWS V14.01,2013-01-22 19:16:00,
2013-01-22 14:17:00,25.7,2.5,29.81,West,264,10.0,10.0,36,0.00,,FEW060,0.00,VWS V14.01,2013-01-22 19:17:00,
2013-01-22 14:18:00,25.7,2.5,29.81,West,264,8.0,12.0,36,0.00,,FEW060,0.00,VWS V14.01,2013-01-22 19:18:00,
2013-01-22 14:19:00,25.5,1.7,29.81,West,270,3.0,10.0,35,0.00,,BKN060,0.00,VWS V14.01,2013-01-22 19:19:00,
2013-01-22 14:20:00,25.5,1.7,29.81,NE,36,5.0,11.0,35,0.00,,FEW060,0.00,VWS V14.01,2013-01-22 19:20:00,
2013-01-22 14:21:00,25.5,1.7,29.81,SW,229,2.0,10.0,35,0.00,,FEW060,0.00,VWS V14.01,2013-01-22 19:21:00,
2013-01-22 14:22:00,25.4,1.6,29.81,WSW,243,8.0,10.0,35,0.00,,FEW060,0.00,VWS V14.01,2013-01-22 19:22:00,
2013-01-22 14:23:00,25.3,1.5,29.81,SW,235,0.0,8.0,35,0.00,,FEW060,0.00,VWS V14.01,2013-01-22 19:23:00,
2013-01-22 14:24:00,25.1,1.3,29.81,NNW,327,4.0,7.0,35,0.00,,BKN060,0.00,VWS V14.01,2013-01-22 19:24:00,
2013-01-22 14:25:00,25.2,2.0,29.81,NE,51,4.0,7.0,36,0.00,,FEW060,0.00,VWS V14.01,2013-01-22 19:25:00,
2013-01-22 14:26:00,25.1,1.3,29.81,WNW,292,3.0,8.0,35,0.00,,FEW060,0.00,VWS V14.01,2013-01-22 19:26:00,
2013-01-22 14:27:00,25.1,1.3,29.81,WNW,290,7.0,10.0,35,0.00,,FEW060,0.00,VWS V14.01,2013-01-22 19:27:00,
2013-01-22 14:28:00,25.0,1.2,29.81,NNW,344,0.0,7.0,35,0.00,,FEW060,0.00,VWS V14.01,2013-01-22 19:28:00,
2013-01-22 14:29:00,25.0,1.2,29.81,WSW,257,5.0,10.0,35,0.00,,FEW060,0.00,VWS V14.01,2013-01-22 19:29:00,
2013-01-22 14:30:00,24.9,0.5,29.82,West,277,4.0,5.0,34,0.00,,BKN060,0.00,VWS V14.01,2013-01-22 19:30:00,
2013-01-22 14:31:00,24.9,0.5,29.82,West,269,4.0,5.0,34,0.00,,FEW060,0.00,VWS V14.01,2013-01-22 19:31:00,
2013-01-22 14:32:00,24.9,0.5,29.81,West,269,9.0,9.0,34,0.00,,FEW060,0.00,VWS V14.01,2013-01-22 19:32:00,
2013-01-22 14:33:00,24.9,0.5,29.82,WSW,238,4.0,10.0,34,0.00,,FEW060,0.00,VWS V14.01,2013-01-22 19:33:00,
2013-01-22 14:34:00,24.9,0.5,29.82,West,263,7.0,8.0,34,0.00,,FEW060,0.00,VWS V14.01,2013-01-22 19:34:00,
2013-01-22 14:35:00,24.9,0.5,29.82,WSW,252,3.0,3.0,34,0.00,,BKN060,0.00,VWS V14.01,2013-01-22 19:35:00,
2013-01-22 14:36:00,24.9,0.5,29.82,North,350,2.0,3.0,34,0.00,,FEW060,0.00,VWS V14.01,2013-01-22 19:36:00,
2013-01-22 14:37:00,24.9,0.5,29.82,NNW,335,3.0,10.0,34,0.00,,FEW060,0.00,VWS V14.01,2013-01-22 19:37:00,
2013-01-22 14:38:00,24.8,0.4,29.82,SE,141,4.0,6.0,34,0.00,,FEW060,0.00,VWS V14.01,2013-01-22 19:38:00,
2013-01-22 14:39:00,24.7,0.3,29.82,NW,309,3.0,10.0,34,0.00,,FEW060,0.00,VWS V14.01,2013-01-22 19:39:00,
2013-01-22 14:40:00,24.6,0.9,29.82,WNW,284,2.0,6.0,35,0.00,,BKN060,0.00,VWS V14.01,2013-01-22 19:40:00,
2013-01-22 14:41:00,24.6,0.9,29.82,WNW,284,2.0,6.0,35,0.00,,FEW060,0.00,VWS V14.01,2013-01-22 19:41:00,
2013-01-22 14:42:00,24.6,0.9,29.82,WSW,248,8.0,8.0,35,0.00,,FEW060,0.00,VWS V14.01,2013-01-22 19:42:00,
2013-01-22 14:43:00,24.5,0.2,29.82,ESE,103,2.0,8.0,34,0.00,,FEW060,0.00,VWS V14.01,2013-01-22 19:43:00,
2013-01-22 14:44:00,24.4,0.1,29.82,SW,229,5.0,7.0,34,0.00,,FEW060,0.00,VWS V14.01,2013-01-22 19:44:00,
2013-01-22 14:45:00,24.4,-0.6,29.82,WNW,300,1.0,8.0,33,0.00,,BKN060,0.00,VWS V14.01,2013-01-22 19:45:00,
2013-01-22 14:46:00,24.4,-0.6,29.82,WNW,300,1.0,8.0,33,0.00,,FEW060,0.00,VWS V14.01,2013-01-22 19:46:00,
2013-01-22 14:47:00,24.4,-0.6,29.82,West,260,4.0,7.0,33,0.00,,FEW060,0.00,VWS V14.01,2013-01-22 19:47:00,
2013-01-22 14:48:00,24.4,-0.6,29.82,NW,316,2.0,5.0,33,0.00,,FEW060,0.00,VWS V14.01,2013-01-22 19:48:00,
2013-01-22 14:49:00,24.4,-1.2,29.83,NNW,336,1.0,4.0,32,0.00,,FEW060,0.00,VWS V14.01,2013-01-22 19:49:00,
2013-01-22 14:50:00,24.5,-1.8,29.83,WSW,238,5.0,14.0,31,0.00,,BKN060,0.00,VWS V14.01,2013-01-22 19:50:00,
2013-01-22 14:51:00,24.5,-1.8,29.83,WSW,238,5.0,14.0,31,0.00,,FEW060,0.00,VWS V14.01,2013-01-22 19:51:00,
2013-01-22 14:52:00,24.5,-2.5,29.83,SW,225,3.0,7.0,30,0.00,,FEW060,0.00,VWS V14.01,2013-01-22 19:52:00,
2013-01-22 14:53:00,24.5,-2.5,29.83,WSW,240,4.0,9.0,30,0.00,,FEW060,0.00,VWS V14.01,2013-01-22 19:53:00,
2013-01-22 14:54:00,24.4,-3.3,29.83,WNW,284,2.0,8.0,29,0.00,,FEW060,0.00,VWS V14.01,2013-01-22 19:54:00,
2013-01-22 14:55:00,24.3,-4.1,29.83,WSW,249,2.0,11.0,28,0.00,,BKN060,0.00,VWS V14.01,2013-01-22 19:55:00,
2013-01-22 14:56:00,24.3,-4.1,29.83,WSW,249,2.0,11.0,28,0.00,,FEW060,0.00,VWS V14.01,2013-01-22 19:56:00,
2013-01-22 14:57:00,24.3,-3.4,29.83,West,281,4.0,11.0,29,0.00,,FEW060,0.00,VWS V14.01,2013-01-22 19:57:00,
2013-01-22 14:58:00,24.4,-3.3,29.83,West,264,7.0,10.0,29,0.00,,FEW060,0.00,VWS V14.01,2013-01-22 19:58:00,
2013-01-22 14:59:00,24.4,-4.0,29.83,NW,318,7.0,14.0,28,0.00,,FEW060,0.00,VWS V14.01,2013-01-22 19:59:00,
2013-01-22 15:00:00,24.4,-3.3,29.83,NW,304,1.0,7.0,29,0.00,,BKN060,0.00,VWS V14.01,2013-01-22 20:00:00,
2013-01-22 15:01:00,24.4,-3.3,29.83,NW,304,1.0,7.0,29,0.00,,FEW060,0.00,VWS V14.01,2013-01-22 20:01:00,
2013-01-22 15:02:00,24.5,-2.5,29.83,WSW,253,1.0,2.0,30,0.00,,FEW060,0.00,VWS V14.01,2013-01-22 20:02:00,
2013-01-22 15:03:00,24.6,-2.4,29.83,West,273,4.0,7.0,30,0.00,,FEW060,0.00,VWS V14.01,2013-01-22 20:03:00,
2013-01-22 15:04:00,24.6,-3.1,29.83,NW,314,4.0,14.0,29,0.00,,FEW060,0.00,VWS V14.01,2013-01-22 20:04:00,
2013-01-22 15:05:00,24.6,-3.1,29.83,WNW,297,9.0,9.0,29,0.00,,BKN060,0.00,VWS V14.01,2013-01-22 20:05:00,
2013-01-22 15:06:00,24.6,-3.1,29.83,WNW,297,9.0,9.0,29,0.00,,FEW060,0.00,VWS V14.01,2013-01-22 20:06:00,
2013-01-22 15:07:00,24.6,-3.8,29.83,WNW,297,3.0,12.0,28,0.00,,FEW060,0.00,VWS V14.01,2013-01-22 20:07:00,
2013-01-22 15:08:00,24.5,-3.9,29.83,West,277,6.0,8.0,28,0.00,,FEW060,0.00,VWS V14.01,2013-01-22 20:08:00,
2013-01-22 15:09:00,24.6,-3.1,29.84,NNW,336,1.0,8.0,29,0.00,,FEW060,0.00,VWS V14.01,2013-01-22 20:09:00,
2013-01-22 15:10:00,24.8,-2.9,29.83,East,84,3.0,3.0,29,0.00,,BKN060,0.00,VWS V14.01,2013-01-22 20:10:00,
2013-01-22 15:11:00,24.8,-2.9,29.83,East,84,3.0,3.0,29,0.00,,FEW060,0.00,VWS V14.01,2013-01-22 20:11:00,
2013-01-22 15:12:00,24.9,-2.1,29.83,NNW,337,8.0,8.0,30,0.00,,FEW060,0.00,VWS V14.01,2013-01-22 20:12:00,
2013-01-22 15:13:00,25.0,-2.8,29.83,WSW,243,4.0,8.0,29,0.00,,FEW060,0.00,VWS V14.01,2013-01-22 20:13:00,
2013-01-22 15:14:00,25.0,-2.0,29.83,SW,229,2.0,6.0,30,0.00,,FEW060,0.00,VWS V14.01,2013-01-22 20:14:00,
2013-01-22 15:15:00,25.1,-2.7,29.83,ESE,103,2.0,9.0,29,0.00,,BKN060,0.00,VWS V14.01,2013-01-22 20:15:00,
2013-01-22 15:16:00,25.1,-2.7,29.83,ESE,103,2.0,9.0,29,0.00,,FEW060,0.00,VWS V14.01,2013-01-22 20:16:00,
2013-01-22 15:17:00,25.0,-2.8,29.84,WSW,243,5.0,8.0,29,0.00,,FEW060,0.00,VWS V14.01,2013-01-22 20:17:00,
2013-01-22 15:18:00,24.9,-3.6,29.84,NW,317,1.0,12.0,28,0.00,,FEW060,0.00,VWS V14.01,2013-01-22 20:18:00,
2013-01-22 15:19:00,24.8,-3.7,29.84,West,266,1.0,5.0,28,0.00,,FEW060,0.00,VWS V14.01,2013-01-22 20:19:00,
2013-01-22 15:20:00,24.8,-3.7,29.84,SW,217,1.0,7.0,28,0.00,,BKN060,0.00,VWS V14.01,2013-01-22 20:20:00,
2013-01-22 15:21:00,24.8,-3.7,29.84,SW,217,1.0,7.0,28,0.00,,FEW060,0.00,VWS V14.01,2013-01-22 20:21:00,
2013-01-22 15:22:00,24.9,-3.6,29.84,WSW,250,1.0,3.0,28,0.00,,FEW060,0.00,VWS V14.01,2013-01-22 20:22:00,
2013-01-22 15:23:00,24.9,-3.6,29.84,West,273,1.0,5.0,28,0.00,,FEW060,0.00,VWS V14.01,2013-01-22 20:23:00,
2013-01-22 15:24:00,25.0,-2.8,29.84,NNW,336,3.0,6.0,29,0.00,,FEW060,0.00,VWS V14.01,2013-01-22 20:24:00,
2013-01-22 15:25:00,25.1,-2.7,29.84,WSW,243,2.0,5.0,29,0.00,,BKN060,0.00,VWS V14.01,2013-01-22 20:25:00,
2013-01-22 15:26:00,25.1,-2.7,29.84,WSW,243,2.0,5.0,29,0.00,,FEW060,0.00,VWS V14.01,2013-01-22 20:26:00,
2013-01-22 15:27:00,25.1,-3.4,29.84,WNW,284,5.0,6.0,28,0.00,,FEW060,0.00,VWS V14.01,2013-01-22 20:27:00,
2013-01-22 15:28:00,25.1,-3.4,29.84,SW,224,6.0,9.0,28,0.00,,FEW060,0.00,VWS V14.01,2013-01-22 20:28:00,
2013-01-22 15:29:00,25.1,-3.4,29.84,NW,304,3.0,10.0,28,0.00,,FEW060,0.00,VWS V14.01,2013-01-22 20:29:00,
2013-01-22 15:30:00,24.9,-4.3,29.84,NNW,343,5.0,12.0,27,0.00,,BKN060,0.00,VWS V14.01,2013-01-22 20:30:00,
2013-01-22 15:31:00,24.9,-4.3,29.84,NNW,343,5.0,12.0,27,0.00,,FEW060,0.00,VWS V14.01,2013-01-22 20:31:00,
2013-01-22 15:32:00,24.8,-5.2,29.85,North,6,3.0,9.0,26,0.00,,FEW060,0.00,VWS V14.01,2013-01-22 20:32:00,
2013-01-22 15:33:00,24.7,-5.3,29.84,West,260,5.0,6.0,26,0.00,,FEW060,0.00,VWS V14.01,2013-01-22 20:33:00,
2013-01-22 15:34:00,24.6,-5.4,29.85,WNW,302,6.0,12.0,26,0.00,,FEW060,0.00,VWS V14.01,2013-01-22 20:34:00,
2013-01-22 15:35:00,24.5,-4.7,29.85,West,281,3.0,7.0,27,0.00,,BKN070,0.00,VWS V14.01,2013-01-22 20:35:00,
2013-01-22 15:36:00,24.5,-4.7,29.85,West,281,3.0,7.0,27,0.00,,FEW060,0.00,VWS V14.01,2013-01-22 20:36:00,
2013-01-22 15:37:00,24.4,-4.8,29.85,WNW,296,7.0,10.0,27,0.00,,FEW060,0.00,VWS V14.01,2013-01-22 20:37:00,
2013-01-22 15:38:00,24.4,-5.6,29.85,West,262,6.0,10.0,26,0.00,,FEW060,0.00,VWS V14.01,2013-01-22 20:38:00,
2013-01-22 15:39:00,24.2,-5.7,29.85,SSW,207,3.0,14.0,26,0.00,,FEW060,0.00,VWS V14.01,2013-01-22 20:39:00,
2013-01-22 15:40:00,24.1,-5.0,29.85,North,356,3.0,6.0,27,0.00,,BKN070,0.00,VWS V14.01,2013-01-22 20:40:00,
2013-01-22 15:41:00,24.1,-5.0,29.85,North,356,3.0,6.0,27,0.00,,FEW060,0.00,VWS V14.01,2013-01-22 20:41:00,
2013-01-22 15:42:00,24.0,-5.1,29.85,West,267,6.0,10.0,27,0.00,,FEW060,0.00,VWS V14.01,2013-01-22 20:42:00,
2013-01-22 15:43:00,24.0,-5.1,29.85,NNW,336,3.0,10.0,27,0.00,,FEW060,0.00,VWS V14.01,2013-01-22 20:43:00,
2013-01-22 15:44:00,23.9,-4.4,29.85,West,278,1.0,5.0,28,0.00,,FEW060,0.00,VWS V14.01,2013-01-22 20:44:00,
2013-01-22 15:45:00,23.9,-4.4,29.85,West,277,7.0,7.0,28,0.00,,BKN070,0.00,VWS V14.01,2013-01-22 20:45:00,
2013-01-22 15:46:00,23.9,-4.4,29.85,West,262,4.0,7.0,28,0.00,,FEW060,0.00,VWS V14.01,2013-01-22 20:46:00,
2013-01-22 15:47:00,23.9,-4.4,29.85,WSW,257,3.0,7.0,28,0.00,,FEW060,0.00,VWS V14.01,2013-01-22 20:47:00,
2013-01-22 15:48:00,23.8,-4.5,29.85,NNW,328,3.0,4.0,28,0.00,,FEW060,0.00,VWS V14.01,2013-01-22 20:48:00,
2013-01-22 15:49:00,23.8,-3.8,29.86,WSW,253,1.0,5.0,29,0.00,,FEW060,0.00,VWS V14.01,2013-01-22 20:49:00,
2013-01-22 15:50:00,23.7,-3.2,29.86,West,274,6.0,6.0,30,0.00,,BKN070,0.00,VWS V14.01,2013-01-22 20:50:00,
2013-01-22 15:51:00,23.7,-3.2,29.86,East,95,2.0,5.0,30,0.00,,FEW060,0.00,VWS V14.01,2013-01-22 20:51:00,
2013-01-22 15:52:00,23.6,-3.3,29.86,SSW,200,1.0,6.0,30,0.00,,FEW060,0.00,VWS V14.01,2013-01-22 20:52:00,
2013-01-22 15:53:00,23.6,-3.3,29.86,SSW,212,1.0,3.0,30,0.00,,FEW060,0.00,VWS V14.01,2013-01-22 20:53:00,
2013-01-22 15:54:00,23.6,-2.6,29.86,WNW,287,5.0,5.0,31,0.00,,FEW060,0.00,VWS V14.01,2013-01-22 20:54:00,
2013-01-22 15:55:00,23.3,-3.5,29.86,WSW,256,7.0,10.0,30,0.00,,BKN070,0.00,VWS V14.01,2013-01-22 20:55:00,
2013-01-22 15:56:00,23.4,-3.5,29.86,WNW,283,4.0,13.0,30,0.00,,FEW060,0.00,VWS V14.01,2013-01-22 20:56:00,
2013-01-22 15:57:00,23.2,-3.6,29.86,West,276,2.0,10.0,30,0.00,,FEW060,0.00,VWS V14.01,2013-01-22 20:57:00,
2013-01-22 15:58:00,23.1,-3.0,29.86,WNW,295,4.0,8.0,31,0.00,,FEW060,0.00,VWS V14.01,2013-01-22 20:58:00,
2013-01-22 15:59:00,23.1,-3.0,29.86,WSW,255,3.0,7.0,31,0.00,,FEW060,0.00,VWS V14.01,2013-01-22 20:59:00,
2013-01-22 16:00:00,22.9,-3.9,29.86,WSW,245,3.0,8.0,30,0.00,,BKN070,0.00,VWS V14.01,2013-01-22 21:00:00,
2013-01-22 16:01:00,22.9,-3.9,29.86,South,188,1.0,5.0,30,0.00,,FEW060,0.00,VWS V14.01,2013-01-22 21:01:00,
2013-01-22 16:02:00,22.8,-3.3,29.86,West,269,2.0,8.0,31,0.00,,FEW060,0.00,VWS V14.01,2013-01-22 21:02:00,
2013-01-22 16:03:00,22.8,-3.3,29.86,NW,306,1.0,4.0,31,0.00,,FEW060,0.00,VWS V14.01,2013-01-22 21:03:00,
2013-01-22 16:04:00,22.7,-3.4,29.86,SW,229,4.0,4.0,31,0.00,,FEW060,0.00,VWS V14.01,2013-01-22 21:04:00,
2013-01-22 16:05:00,22.7,-2.7,29.86,West,276,8.0,8.0,32,0.00,,BKN070,0.00,VWS V14.01,2013-01-22 21:05:00,
2013-01-22 16:06:00,22.7,-2.7,29.86,West,280,4.0,5.0,32,0.00,,FEW060,0.00,VWS V14.01,2013-01-22 21:06:00,
2013-01-22 16:07:00,22.7,-3.4,29.86,WSW,238,6.0,8.0,31,0.00,,FEW060,0.00,VWS V14.01,2013-01-22 21:07:00,
2013-01-22 16:08:00,22.7,-3.4,29.86,NNW,334,4.0,6.0,31,0.00,,FEW060,0.00,VWS V14.01,2013-01-22 21:08:00,
2013-01-22 16:09:00,22.6,-3.5,29.86,NW,322,6.0,6.0,31,0.00,,FEW060,0.00,VWS V14.01,2013-01-22 21:09:00,
2013-01-22 16:10:00,22.5,-3.6,29.87,WSW,245,8.0,8.0,31,0.00,,FEW060,0.00,VWS V14.01,2013-01-22 21:10:00,
2013-01-22 16:11:00,22.4,-4.3,29.87,WNW,284,6.0,9.0,30,0.00,,BKN070,0.00,VWS V14.01,2013-01-22 21:11:00,
2013-01-22 16:12:00,22.4,-4.3,29.86,NW,309,9.0,11.0,30,0.00,,FEW060,0.00,VWS V14.01,2013-01-22 21:12:00,
2013-01-22 16:13:00,22.3,-3.7,29.87,SW,235,2.0,10.0,31,0.00,,FEW060,0.00,VWS V14.01,2013-01-22 21:13:00,
2013-01-22 16:14:00,22.2,-3.8,29.87,West,260,3.0,4.0,31,0.00,,FEW060,0.00,VWS V14.01,2013-01-22 21:14:00,
2013-01-22 16:15:00,22.1,-3.9,29.87,NNE,30,3.0,5.0,31,0.00,,FEW060,0.00,VWS V14.01,2013-01-22 21:15:00,
2013-01-22 16:16:00,22.1,-3.2,29.87,WSW,256,4.0,7.0,32,0.00,,BKN070,0.00,VWS V14.01,2013-01-22 21:16:00,
2013-01-22 16:17:00,22.1,-3.2,29.87,West,270,4.0,7.0,32,0.00,,FEW060,0.00,VWS V14.01,2013-01-22 21:17:00,
2013-01-22 16:18:00,22.0,-3.3,29.87,WSW,252,2.0,10.0,32,0.00,,FEW060,0.00,VWS V14.01,2013-01-22 21:18:00,
2013-01-22 16:19:00,21.9,-4.1,29.87,WSW,253,1.0,7.0,31,0.00,,FEW060,0.00,VWS V14.01,2013-01-22 21:19:00,
2013-01-22 16:20:00,21.9,-4.1,29.87,WSW,250,2.0,6.0,31,0.00,,FEW060,0.00,VWS V14.01,2013-01-22 21:20:00,
2013-01-22 16:21:00,21.7,-4.3,29.87,West,264,4.0,8.0,31,0.00,,BKN070,0.00,VWS V14.01,2013-01-22 21:21:00,
2013-01-22 16:22:00,21.7,-4.3,29.88,West,269,5.0,8.0,31,0.00,,FEW060,0.00,VWS V14.01,2013-01-22 21:22:00,
2013-01-22 16:24:00,21.6,-3.7,29.87,ENE,58,4.0,8.0,32,0.00,,FEW060,0.00,VWS V14.01,2013-01-22 21:24:00,
2013-01-22 16:25:00,21.5,-3.8,29.88,West,270,9.0,9.0,32,0.00,,FEW060,0.00,VWS V14.01,2013-01-22 21:25:00,
2013-01-22 16:26:00,21.4,-3.9,29.88,West,261,7.0,7.0,32,0.00,,BKN070,0.00,VWS V14.01,2013-01-22 21:26:00,
2013-01-22 16:27:00,21.4,-3.9,29.88,WSW,257,8.0,8.0,32,0.00,,FEW060,0.00,VWS V14.01,2013-01-22 21:27:00,
2013-01-22 16:28:00,21.3,-4.0,29.88,WSW,243,4.0,9.0,32,0.00,,FEW060,0.00,VWS V14.01,2013-01-22 21:28:00,
2013-01-22 16:29:00,21.3,-4.0,29.88,WNW,288,7.0,7.0,32,0.00,,FEW060,0.00,VWS V14.01,2013-01-22 21:29:00,
2013-01-22 16:30:00,21.2,-4.0,29.88,West,263,3.0,8.0,32,0.00,,FEW060,0.00,VWS V14.01,2013-01-22 21:30:00,
2013-01-22 16:31:00,21.1,-4.1,29.88,West,274,4.0,9.0,32,0.00,,BKN070,0.00,VWS V14.01,2013-01-22 21:31:00,
2013-01-22 16:32:00,21.1,-4.1,29.88,West,274,4.0,9.0,32,0.00,,FEW060,0.00,VWS V14.01,2013-01-22 21:32:00,
2013-01-22 16:33:00,21.1,-4.1,29.88,WNW,303,3.0,10.0,32,0.00,,FEW060,0.00,VWS V14.01,2013-01-22 21:33:00,
2013-01-22 16:34:00,21.1,-4.1,29.88,WSW,252,4.0,5.0,32,0.00,,FEW060,0.00,VWS V14.01,2013-01-22 21:34:00,
2013-01-22 16:35:00,21.0,-4.2,29.88,West,276,5.0,10.0,32,0.00,,FEW060,0.00,VWS V14.01,2013-01-22 21:35:00,
2013-01-22 16:36:00,20.9,-4.3,29.88,South,171,1.0,6.0,32,0.00,,FEW060,0.00,VWS V14.01,2013-01-22 21:36:00,
2013-01-22 16:37:00,20.9,-3.7,29.88,NW,324,2.0,6.0,33,0.00,,BKN250,0.00,VWS V14.01,2013-01-22 21:37:00,
2013-01-22 16:38:00,20.8,-3.8,29.88,NW,309,3.0,6.0,33,0.00,,FEW060,0.00,VWS V14.01,2013-01-22 21:38:00,
2013-01-22 16:40:00,20.8,-3.8,29.89,NNW,328,1.0,8.0,33,0.00,,FEW060,0.00,VWS V14.01,2013-01-22 21:40:00,
2013-01-22 16:41:00,20.7,-3.8,29.89,West,271,2.0,5.0,33,0.00,,FEW060,0.00,VWS V14.01,2013-01-22 21:41:00,
2013-01-22 16:42:00,20.7,-3.2,29.89,West,271,4.0,4.0,34,0.00,,BKN250,0.00,VWS V14.01,2013-01-22 21:42:00,
2013-01-22 16:43:00,20.7,-3.2,29.89,West,271,4.0,4.0,34,0.00,,FEW060,0.00,VWS V14.01,2013-01-22 21:43:00,
2013-01-22 16:44:00,20.7,-3.2,29.89,West,270,2.0,4.0,34,0.00,,FEW060,0.00,VWS V14.01,2013-01-22 21:44:00,
2013-01-22 16:45:00,20.6,-3.3,29.89,WNW,290,5.0,5.0,34,0.00,,FEW060,0.00,VWS V14.01,2013-01-22 21:45:00,
2013-01-22 16:46:00,20.6,-3.3,29.89,NW,325,1.0,10.0,34,0.00,,FEW060,0.00,VWS V14.01,2013-01-22 21:46:00,
2013-01-22 16:47:00,20.5,-2.8,29.89,West,266,4.0,8.0,35,0.00,,BKN250,0.00,VWS V14.01,2013-01-22 21:47:00,
2013-01-22 16:48:00,20.5,-2.8,29.89,West,266,4.0,8.0,35,0.00,,FEW060,0.00,VWS V14.01,2013-01-22 21:48:00,
2013-01-22 16:49:00,20.5,-2.8,29.89,West,273,3.0,6.0,35,0.00,,FEW060,0.00,VWS V14.01,2013-01-22 21:49:00,
2013-01-22 16:50:00,20.5,-2.2,29.89,SSE,165,1.0,4.0,36,0.00,,FEW060,0.00,VWS V14.01,2013-01-22 21:50:00,
2013-01-22 16:51:00,20.5,-1.6,29.89,West,271,1.0,3.0,37,0.00,,FEW060,0.00,VWS V14.01,2013-01-22 21:51:00,
2013-01-22 16:52:00,20.4,-2.3,29.89,West,267,2.0,7.0,36,0.00,,BKN250,0.00,VWS V14.01,2013-01-22 21:52:00,
2013-01-22 16:53:00,20.4,-2.3,29.89,West,267,2.0,7.0,36,0.00,,FEW060,0.00,VWS V14.01,2013-01-22 21:53:00,
2013-01-22 16:54:00,20.4,-1.7,29.89,NNE,23,2.0,4.0,37,0.00,,FEW060,0.00,VWS V14.01,2013-01-22 21:54:00,
2013-01-22 16:55:00,20.4,-1.7,29.89,NW,318,4.0,7.0,37,0.00,,FEW060,0.00,VWS V14.01,2013-01-22 21:55:00,
2013-01-22 16:56:00,20.4,-2.3,29.89,WSW,253,7.0,7.0,36,0.00,,FEW060,0.00,VWS V14.01,2013-01-22 21:56:00,
2013-01-22 16:57:00,20.3,-1.8,29.89,WSW,240,5.0,13.0,37,0.00,,BKN250,0.00,VWS V14.01,2013-01-22 21:57:00,
2013-01-22 16:58:00,20.3,-1.8,29.89,WSW,240,5.0,13.0,37,0.00,,FEW060,0.00,VWS V14.01,2013-01-22 21:58:00,
2013-01-22 16:59:00,20.2,-1.9,29.89,WSW,250,9.0,9.0,37,0.00,,FEW060,0.00,VWS V14.01,2013-01-22 21:59:00,
2013-01-22 17:00:00,20.2,-1.9,29.89,WSW,254,0.0,10.0,37,0.00,,FEW060,0.00,VWS V14.01,2013-01-22 22:00:00,
2013-01-22 17:01:00,20.2,-1.3,29.89,SSW,205,4.0,9.0,38,0.00,,FEW060,0.00,VWS V14.01,2013-01-22 22:01:00,
2013-01-22 17:02:00,20.1,-1.4,29.90,WNW,287,3.0,12.0,38,0.00,,BKN250,0.00,VWS V14.01,2013-01-22 22:02:00,
2013-01-22 17:03:00,20.1,-1.4,29.90,WNW,287,3.0,12.0,38,0.00,,FEW060,0.00,VWS V14.01,2013-01-22 22:03:00,
2013-01-22 17:05:00,20.0,-1.5,29.90,WNW,287,9.0,9.0,38,0.00,,FEW060,0.00,VWS V14.01,2013-01-22 22:05:00,
2013-01-22 17:06:00,20.0,-1.5,29.90,West,259,1.0,9.0,38,0.00,,FEW060,0.00,VWS V14.01,2013-01-22 22:06:00,
2013-01-22 17:07:00,19.9,-1.6,29.90,North,350,4.0,6.0,38,0.00,,BKN250,0.00,VWS V14.01,2013-01-22 22:07:00,
2013-01-22 17:08:00,19.9,-1.6,29.90,North,350,4.0,6.0,38,0.00,,FEW060,0.00,VWS V14.01,2013-01-22 22:08:00,
2013-01-22 17:09:00,19.9,-1.6,29.90,West,260,5.0,7.0,38,0.00,,FEW060,0.00,VWS V14.01,2013-01-22 22:09:00,
2013-01-22 17:10:00,19.8,-1.1,29.90,South,172,0.0,8.0,39,0.00,,FEW060,0.00,VWS V14.01,2013-01-22 22:10:00,
2013-01-22 17:11:00,19.8,-1.1,29.90,WSW,253,8.0,9.0,39,0.00,,FEW060,0.00,VWS V14.01,2013-01-22 22:11:00,
2013-01-22 17:12:00,19.8,-0.6,29.90,NNW,341,2.0,5.0,40,0.00,,BKN250,0.00,VWS V14.01,2013-01-22 22:12:00,
2013-01-22 17:13:00,19.8,-0.6,29.90,NNW,341,2.0,5.0,40,0.00,,FEW060,0.00,VWS V14.01,2013-01-22 22:13:00,
2013-01-22 17:14:00,19.7,-0.7,29.90,WSW,250,7.0,10.0,40,0.00,,FEW060,0.00,VWS V14.01,2013-01-22 22:14:00,
2013-01-22 17:15:00,19.7,-0.7,29.91,WSW,250,0.0,7.0,40,0.00,,FEW060,0.00,VWS V14.01,2013-01-22 22:15:00,
2013-01-22 17:16:00,19.7,-0.2,29.90,WSW,257,1.0,6.0,41,0.00,,FEW060,0.00,VWS V14.01,2013-01-22 22:16:00,
2013-01-22 17:17:00,19.6,0.2,29.91,WSW,238,0.0,5.0,42,0.00,,BKN250,0.00,VWS V14.01,2013-01-22 22:17:00,
2013-01-22 17:18:00,19.6,0.2,29.91,WSW,238,0.0,5.0,42,0.00,,FEW060,0.00,VWS V14.01,2013-01-22 22:18:00,
2013-01-22 17:19:00,19.6,0.2,29.91,WNW,297,1.0,2.0,42,0.00,,FEW060,0.00,VWS V14.01,2013-01-22 22:19:00,
2013-01-22 17:20:00,19.6,0.2,29.91,WNW,302,2.0,7.0,42,0.00,,FEW060,0.00,VWS V14.01,2013-01-22 22:20:00,
2013-01-22 17:21:00,19.5,0.2,29.91,NW,308,3.0,3.0,42,0.00,,FEW060,0.00,VWS V14.01,2013-01-22 22:21:00,
2013-01-22 17:22:00,19.5,0.7,29.91,West,263,1.0,4.0,43,0.00,,BKN250,0.00,VWS V14.01,2013-01-22 22:22:00,
2013-01-22 17:23:00,19.5,0.7,29.91,West,263,1.0,4.0,43,0.00,,FEW060,0.00,VWS V14.01,2013-01-22 22:23:00,
2013-01-22 17:24:00,19.4,0.6,29.91,WSW,253,1.0,6.0,43,0.00,,FEW060,0.00,VWS V14.01,2013-01-22 22:24:00,
2013-01-22 17:25:00,19.4,1.1,29.91,WNW,284,2.0,3.0,44,0.00,,FEW060,0.00,VWS V14.01,2013-01-22 22:25:00,
2013-01-22 17:26:00,19.4,1.1,29.91,NW,305,1.0,2.0,44,0.00,,FEW060,0.00,VWS V14.01,2013-01-22 22:26:00,
2013-01-22 17:27:00,19.4,1.5,29.91,SW,233,5.0,9.0,45,0.00,,BKN250,0.00,VWS V14.01,2013-01-22 22:27:00,
2013-01-22 17:28:00,19.4,1.5,29.91,SW,233,5.0,9.0,45,0.00,,FEW060,0.00,VWS V14.01,2013-01-22 22:28:00,
2013-01-22 17:29:00,19.3,1.5,29.91,WNW,283,2.0,6.0,45,0.00,,FEW060,0.00,VWS V14.01,2013-01-22 22:29:00,
2013-01-22 17:30:00,19.3,1.5,29.91,West,270,2.0,4.0,45,0.00,,FEW060,0.00,VWS V14.01,2013-01-22 22:30:00,
2013-01-22 17:31:00,19.3,1.9,29.91,NW,315,3.0,6.0,46,0.00,,FEW060,0.00,VWS V14.01,2013-01-22 22:31:00,
2013-01-22 17:32:00,19.2,1.8,29.92,West,276,2.0,5.0,46,0.00,,FEW080,0.00,VWS V14.01,2013-01-22 22:32:00,
2013-01-22 17:33:00,19.2,1.8,29.92,West,276,2.0,5.0,46,0.00,,FEW060,0.00,VWS V14.01,2013-01-22 22:33:00,
2013-01-22 17:34:00,19.1,2.2,29.92,WNW,288,3.0,6.0,47,0.00,,FEW060,0.00,VWS V14.01,2013-01-22 22:34:00,
2013-01-22 17:35:00,19.1,2.2,29.92,WNW,282,3.0,5.0,47,0.00,,FEW060,0.00,VWS V14.01,2013-01-22 22:35:00,
2013-01-22 17:36:00,19.1,2.7,29.92,NNW,333,3.0,3.0,48,0.00,,FEW060,0.00,VWS V14.01,2013-01-22 22:36:00,
2013-01-22 17:37:00,19.1,2.7,29.92,NNW,336,3.0,8.0,48,0.00,,FEW080,0.00,VWS V14.01,2013-01-22 22:37:00,
2013-01-22 17:38:00,19.1,2.7,29.92,NNW,336,3.0,8.0,48,0.00,,FEW060,0.00,VWS V14.01,2013-01-22 22:38:00,
2013-01-22 17:39:00,19.0,2.6,29.92,West,264,1.0,4.0,48,0.00,,FEW060,0.00,VWS V14.01,2013-01-22 22:39:00,
2013-01-22 17:40:00,19.0,3.0,29.92,NNW,347,2.0,3.0,49,0.00,,FEW060,0.00,VWS V14.01,2013-01-22 22:40:00,
2013-01-22 17:41:00,19.0,3.0,29.92,WNW,297,2.0,6.0,49,0.00,,FEW060,0.00,VWS V14.01,2013-01-22 22:41:00,
2013-01-22 17:42:00,18.9,2.9,29.92,NNE,25,1.0,2.0,49,0.00,,FEW080,0.00,VWS V14.01,2013-01-22 22:42:00,
2013-01-22 17:43:00,18.9,2.9,29.92,NNE,25,1.0,2.0,49,0.00,,FEW060,0.00,VWS V14.01,2013-01-22 22:43:00,
2013-01-22 17:44:00,18.9,3.3,29.92,NW,309,0.0,1.0,50,0.00,,FEW060,0.00,VWS V14.01,2013-01-22 22:44:00,
2013-01-22 17:45:00,18.9,3.3,29.92,West,280,1.0,4.0,50,0.00,,FEW060,0.00,VWS V14.01,2013-01-22 22:45:00,
2013-01-22 17:46:00,18.9,3.8,29.92,WSW,255,4.0,4.0,51,0.00,,FEW060,0.00,VWS V14.01,2013-01-22 22:46:00,
2013-01-22 17:47:00,18.8,3.7,29.93,WSW,252,0.0,3.0,51,0.00,,FEW080,0.00,VWS V14.01,2013-01-22 22:47:00,
2013-01-22 17:48:00,18.8,3.7,29.92,WSW,252,0.0,3.0,51,0.00,,FEW060,0.00,VWS V14.01,2013-01-22 22:48:00,
2013-01-22 17:49:00,18.8,3.7,29.93,West,278,4.0,4.0,51,0.00,,FEW060,0.00,VWS V14.01,2013-01-22 22:49:00,
2013-01-22 17:50:00,18.8,3.7,29.93,West,266,3.0,5.0,51,0.00,,FEW060,0.00,VWS V14.01,2013-01-22 22:50:00,
2013-01-22 17:51:00,18.8,3.7,29.93,West,271,1.0,4.0,51,0.00,,FEW060,0.00,VWS V14.01,2013-01-22 22:51:00,
2013-01-22 17:52:00,18.7,3.6,29.93,West,266,0.0,1.0,51,0.00,,FEW080,0.00,VWS V14.01,2013-01-22 22:52:00,
2013-01-22 17:53:00,18.8,3.7,29.93,West,266,1.0,4.0,51,0.00,,FEW060,0.00,VWS V14.01,2013-01-22 22:53:00,
2013-01-22 17:54:00,18.7,4.0,29.93,WNW,302,2.0,5.0,52,0.00,,FEW060,0.00,VWS V14.01,2013-01-22 22:54:00,
2013-01-22 17:55:00,18.7,4.0,29.93,WNW,288,2.0,4.0,52,0.00,,FEW060,0.00,VWS V14.01,2013-01-22 22:55:00,
2013-01-22 17:56:00,18.6,3.9,29.93,West,280,1.0,2.0,52,0.00,,FEW060,0.00,VWS V14.01,2013-01-22 22:56:00,
2013-01-22 17:57:00,18.6,3.9,29.93,WSW,250,2.0,2.0,52,0.00,,FEW080,0.00,VWS V14.01,2013-01-22 22:57:00,
2013-01-22 17:58:00,18.6,3.9,29.93,West,271,0.0,3.0,52,0.00,,FEW060,0.00,VWS V14.01,2013-01-22 22:58:00,
2013-01-22 17:59:00,18.6,4.3,29.93,WSW,256,0.0,3.0,53,0.00,,FEW060,0.00,VWS V14.01,2013-01-22 22:59:00,
2013-01-22 18:00:00,18.5,4.2,29.94,West,273,0.0,1.0,53,0.00,,FEW060,0.00,VWS V14.01,2013-01-22 23:00:00,
2013-01-22 18:01:00,18.5,4.2,29.94,West,259,2.0,6.0,53,0.00,,FEW060,0.00,VWS V14.01,2013-01-22 23:01:00,
2013-01-22 18:02:00,18.5,4.2,29.94,WNW,296,2.0,4.0,53,0.00,,FEW080,0.00,VWS V14.01,2013-01-22 23:02:00,
2013-01-22 18:03:00,18.5,4.2,29.94,WNW,287,2.0,6.0,53,0.00,,FEW060,0.00,VWS V14.01,2013-01-22 23:03:00,
2013-01-22 18:04:00,18.5,4.2,29.94,West,273,6.0,6.0,53,0.00,,FEW060,0.00,VWS V14.01,2013-01-22 23:04:00,
2013-01-22 18:05:00,18.5,4.2,29.94,West,259,2.0,6.0,53,0.00,,FEW060,0.00,VWS V14.01,2013-01-22 23:05:00,
2013-01-22 18:06:00,18.5,4.6,29.94,West,278,1.0,3.0,54,0.00,,FEW060,0.00,VWS V14.01,2013-01-22 23:06:00,
2013-01-22 18:07:00,18.5,4.6,29.93,West,259,3.0,3.0,54,0.00,,FEW080,0.00,VWS V14.01,2013-01-22 23:07:00,
2013-01-22 18:08:00,18.5,4.6,29.94,NW,316,3.0,5.0,54,0.00,,FEW060,0.00,VWS V14.01,2013-01-22 23:08:00,
2013-01-22 18:09:00,18.5,4.6,29.94,WNW,287,2.0,4.0,54,0.00,,FEW060,0.00,VWS V14.01,2013-01-22 23:09:00,
2013-01-22 18:10:00,18.5,4.6,29.94,West,277,3.0,3.0,54,0.00,,FEW060,0.00,VWS V14.01,2013-01-22 23:10:00,
2013-01-22 18:11:00,18.5,4.6,29.94,West,259,2.0,3.0,54,0.00,,FEW060,0.00,VWS V14.01,2013-01-22 23:11:00,
2013-01-22 18:12:00,18.5,4.6,29.94,NW,322,1.0,2.0,54,0.00,,FEW080,0.00,VWS V14.01,2013-01-22 23:12:00,
2013-01-22 18:13:00,18.5,4.6,29.94,NNW,335,2.0,3.0,54,0.00,,FEW060,0.00,VWS V14.01,2013-01-22 23:13:00,
2013-01-22 18:14:00,18.5,4.6,29.94,West,274,3.0,4.0,54,0.00,,FEW060,0.00,VWS V14.01,2013-01-22 23:14:00,
2013-01-22 18:15:00,18.5,4.6,29.94,West,271,0.0,3.0,54,0.00,,FEW060,0.00,VWS V14.01,2013-01-22 23:15:00,
2013-01-22 18:16:00,18.6,4.7,29.94,WNW,287,2.0,2.0,54,0.00,,FEW060,0.00,VWS V14.01,2013-01-22 23:16:00,
2013-01-22 18:17:00,18.6,4.7,29.94,WNW,283,3.0,5.0,54,0.00,,FEW060,0.00,VWS V14.01,2013-01-22 23:17:00,
2013-01-22 18:18:00,18.6,4.7,29.94,NW,318,3.0,3.0,54,0.00,,FEW080,0.00,VWS V14.01,2013-01-22 23:18:00,
2013-01-22 18:19:00,18.6,4.7,29.94,NNW,334,3.0,3.0,54,0.00,,FEW060,0.00,VWS V14.01,2013-01-22 23:19:00,
2013-01-22 18:20:00,18.6,4.7,29.94,West,261,2.0,3.0,54,0.00,,FEW060,0.00,VWS V14.01,2013-01-22 23:20:00,
2013-01-22 18:21:00,18.6,4.7,29.94,West,281,3.0,3.0,54,0.00,,FEW060,0.00,VWS V14.01,2013-01-22 23:21:00,
2013-01-22 18:22:00,18.6,4.7,29.94,West,280,3.0,3.0,54,0.00,,FEW060,0.00,VWS V14.01,2013-01-22 23:22:00,
2013-01-22 18:23:00,18.6,4.3,29.94,West,262,5.0,6.0,53,0.00,,FEW080,0.00,VWS V14.01,2013-01-22 23:23:00,
2013-01-22 18:24:00,18.6,4.3,29.94,West,262,5.0,6.0,53,0.00,,FEW060,0.00,VWS V14.01,2013-01-22 23:24:00,
2013-01-22 18:25:00,18.6,4.3,29.94,West,262,3.0,5.0,53,0.00,,FEW060,0.00,VWS V14.01,2013-01-22 23:25:00,
2013-01-22 18:26:00,18.6,4.3,29.94,WSW,252,2.0,3.0,53,0.00,,FEW060,0.00,VWS V14.01,2013-01-22 23:26:00,
2013-01-22 18:27:00,18.6,4.7,29.94,West,270,4.0,6.0,54,0.00,,FEW060,0.00,VWS V14.01,2013-01-22 23:27:00,
2013-01-22 18:28:00,18.6,4.7,29.94,WNW,293,5.0,7.0,54,0.00,,FEW080,0.00,VWS V14.01,2013-01-22 23:28:00,
2013-01-22 18:29:00,18.6,4.7,29.94,WNW,300,3.0,4.0,54,0.00,,FEW060,0.00,VWS V14.01,2013-01-22 23:29:00,
2013-01-22 18:30:00,18.6,4.7,29.94,West,263,3.0,7.0,54,0.00,,FEW060,0.00,VWS V14.01,2013-01-22 23:30:00,
2013-01-22 18:31:00,18.6,4.7,29.94,WNW,291,0.0,3.0,54,0.00,,FEW060,0.00,VWS V14.01,2013-01-22 23:31:00,
2013-01-22 18:32:00,18.5,4.6,29.94,WSW,255,3.0,5.0,54,0.00,,FEW060,0.00,VWS V14.01,2013-01-22 23:32:00,
2013-01-22 18:33:00,18.5,5.0,29.94,WSW,243,3.0,5.0,55,0.00,,SCT070,0.00,VWS V14.01,2013-01-22 23:33:00,
2013-01-22 18:34:00,18.5,5.0,29.94,West,278,5.0,5.0,55,0.00,,FEW060,0.00,VWS V14.01,2013-01-22 23:34:00,
2013-01-22 18:35:00,18.5,5.0,29.94,WSW,257,5.0,5.0,55,0.00,,FEW060,0.00,VWS V14.01,2013-01-22 23:35:00,
2013-01-22 18:36:00,18.5,5.0,29.94,WSW,248,9.0,9.0,55,0.00,,FEW060,0.00,VWS V14.01,2013-01-22 23:36:00,
2013-01-22 18:37:00,18.4,5.3,29.94,WSW,257,2.0,9.0,56,0.00,,FEW060,0.00,VWS V14.01,2013-01-22 23:37:00,
2013-01-22 18:38:00,18.3,5.2,29.94,West,269,4.0,4.0,56,0.00,,SCT070,0.00,VWS V14.01,2013-01-22 23:38:00,
2013-01-22 18:39:00,18.3,5.2,29.94,WSW,250,2.0,4.0,56,0.00,,FEW060,0.00,VWS V14.01,2013-01-22 23:39:00,
2013-01-22 18:40:00,18.3,5.2,29.95,SW,215,0.0,4.0,56,0.00,,FEW060,0.00,VWS V14.01,2013-01-22 23:40:00,
2013-01-22 18:41:00,18.3,5.6,29.95,WNW,288,3.0,3.0,57,0.00,,FEW060,0.00,VWS V14.01,2013-01-22 23:41:00,
2013-01-22 18:42:00,18.2,5.5,29.95,WSW,249,3.0,7.0,57,0.00,,FEW060,0.00,VWS V14.01,2013-01-22 23:42:00,
2013-01-22 18:43:00,18.1,5.8,29.94,WSW,240,1.0,6.0,58,0.00,,SCT070,0.00,VWS V14.01,2013-01-22 23:43:00,
2013-01-22 18:44:00,18.2,5.5,29.94,NNW,337,2.0,5.0,57,0.00,,FEW060,0.00,VWS V14.01,2013-01-22 23:44:00,
2013-01-22 18:45:00,18.1,5.8,29.95,NNW,336,4.0,6.0,58,0.00,,FEW060,0.00,VWS V14.01,2013-01-22 23:45:00,
2013-01-22 18:46:00,18.1,5.8,29.95,NW,305,6.0,8.0,58,0.00,,FEW060,0.00,VWS V14.01,2013-01-22 23:46:00,
2013-01-22 18:47:00,18.1,6.2,29.95,West,281,3.0,6.0,59,0.00,,FEW060,0.00,VWS V14.01,2013-01-22 23:47:00,
2013-01-22 18:48:00,18.0,6.1,29.95,West,269,1.0,5.0,59,0.00,,FEW060,0.00,VWS V14.01,2013-01-22 23:48:00,
2013-01-22 18:49:00,18.0,6.1,29.95,SE,136,0.0,1.0,59,0.00,,SCT070,0.00,VWS V14.01,2013-01-22 23:49:00,
2013-01-22 18:50:00,18.0,6.1,29.95,WNW,287,2.0,3.0,59,0.00,,FEW060,0.00,VWS V14.01,2013-01-22 23:50:00,
2013-01-22 18:51:00,17.9,6.4,29.95,West,264,1.0,2.0,60,0.00,,FEW060,0.00,VWS V14.01,2013-01-22 23:51:00,
2013-01-22 18:52:00,17.9,6.4,29.95,WSW,238,1.0,3.0,60,0.00,,FEW060,0.00,VWS V14.01,2013-01-22 23:52:00,
2013-01-22 18:53:00,17.9,6.4,29.95,WNW,299,1.0,3.0,60,0.00,,FEW060,0.00,VWS V14.01,2013-01-22 23:53:00,
2013-01-22 18:54:00,17.8,6.3,29.95,WSW,255,2.0,2.0,60,0.00,,SCT070,0.00,VWS V14.01,2013-01-22 23:54:00,
2013-01-22 18:55:00,17.8,6.3,29.95,NW,315,3.0,3.0,60,0.00,,FEW060,0.00,VWS V14.01,2013-01-22 23:55:00,
2013-01-22 18:56:00,17.8,6.3,29.95,NW,309,2.0,4.0,60,0.00,,FEW060,0.00,VWS V14.01,2013-01-22 23:56:00,
2013-01-22 18:57:00,17.7,6.2,29.95,WSW,248,2.0,2.0,60,0.00,,FEW060,0.00,VWS V14.01,2013-01-22 23:57:00,
2013-01-22 18:58:00,17.7,6.6,29.95,WNW,287,1.0,3.0,61,0.00,,FEW060,0.00,VWS V14.01,2013-01-22 23:58:00,
2013-01-22 18:59:00,17.6,6.4,29.95,West,264,3.0,4.0,61,0.00,,SCT070,0.00,VWS V14.01,2013-01-22 23:59:00,
2013-01-22 19:00:00,17.6,6.4,29.95,WNW,284,2.0,4.0,61,0.00,,FEW060,0.00,VWS V14.01,2013-01-23 00:00:00,
2013-01-22 19:01:00,17.6,6.4,29.95,West,276,3.0,4.0,61,0.00,,FEW060,0.00,VWS V14.01,2013-01-23 00:01:00,
2013-01-22 19:02:00,17.6,6.4,29.96,NNW,348,1.0,4.0,61,0.00,,FEW060,0.00,VWS V14.01,2013-01-23 00:02:00,
2013-01-22 19:03:00,17.5,6.4,29.96,West,259,0.0,2.0,61,0.00,,FEW060,0.00,VWS V14.01,2013-01-23 00:03:00,
2013-01-22 19:04:00,17.5,6.4,29.96,West,263,0.0,3.0,61,0.00,,SCT070,0.00,VWS V14.01,2013-01-23 00:04:00,
2013-01-22 19:05:00,17.5,6.4,29.96,West,263,0.0,3.0,61,0.00,,FEW060,0.00,VWS V14.01,2013-01-23 00:05:00,
2013-01-22 19:06:00,17.5,6.4,29.96,West,259,1.0,1.0,61,0.00,,FEW060,0.00,VWS V14.01,2013-01-23 00:06:00,
2013-01-22 19:07:00,17.5,6.4,29.96,NW,316,1.0,3.0,61,0.00,,FEW060,0.00,VWS V14.01,2013-01-23 00:07:00,
2013-01-22 19:08:00,17.4,6.3,29.96,WNW,283,3.0,4.0,61,0.00,,FEW060,0.00,VWS V14.01,2013-01-23 00:08:00,
2013-01-22 19:09:00,17.4,6.3,29.96,West,277,0.0,2.0,61,0.00,,SCT060,0.00,VWS V14.01,2013-01-23 00:09:00,
2013-01-22 19:10:00,17.4,6.3,29.96,West,277,0.0,2.0,61,0.00,,FEW060,0.00,VWS V14.01,2013-01-23 00:10:00,
2013-01-22 19:11:00,17.4,6.3,29.96,West,266,2.0,4.0,61,0.00,,FEW060,0.00,VWS V14.01,2013-01-23 00:11:00,
2013-01-22 19:12:00,17.4,6.3,29.96,West,260,1.0,2.0,61,0.00,,FEW060,0.00,VWS V14.01,2013-01-23 00:12:00,
2013-01-22 19:13:00,17.3,6.5,29.96,NNW,327,4.0,4.0,62,0.00,,FEW060,0.00,VWS V14.01,2013-01-23 00:13:00,
2013-01-22 19:14:00,17.3,6.5,29.96,WNW,299,3.0,3.0,62,0.00,,SCT060,0.00,VWS V14.01,2013-01-23 00:14:00,
2013-01-22 19:15:00,17.3,6.5,29.96,WNW,299,3.0,3.0,62,0.00,,FEW060,0.00,VWS V14.01,2013-01-23 00:15:00,
2013-01-22 19:16:00,17.3,6.2,29.96,WSW,257,1.0,3.0,61,0.00,,FEW060,0.00,VWS V14.01,2013-01-23 00:16:00,
2013-01-22 19:17:00,17.3,6.2,29.96,WSW,245,2.0,2.0,61,0.00,,FEW060,0.00,VWS V14.01,2013-01-23 00:17:00,
2013-01-22 19:18:00,17.3,6.2,29.97,WSW,250,3.0,3.0,61,0.00,,FEW060,0.00,VWS V14.01,2013-01-23 00:18:00,
2013-01-22 19:19:00,17.3,6.2,29.97,SSE,148,1.0,5.0,61,0.00,,SCT060,0.00,VWS V14.01,2013-01-23 00:19:00,
2013-01-22 19:20:00,17.3,6.2,29.97,SSE,148,1.0,5.0,61,0.00,,FEW060,0.00,VWS V14.01,2013-01-23 00:20:00,
2013-01-22 19:21:00,17.3,6.2,29.97,West,259,0.0,2.0,61,0.00,,FEW060,0.00,VWS V14.01,2013-01-23 00:21:00,
2013-01-22 19:22:00,17.2,6.4,29.97,WSW,256,3.0,5.0,62,0.00,,FEW060,0.00,VWS V14.01,2013-01-23 00:22:00,
2013-01-22 19:23:00,17.2,6.1,29.97,WNW,285,3.0,7.0,61,0.00,,FEW060,0.00,VWS V14.01,2013-01-23 00:23:00,
2013-01-22 19:24:00,17.2,6.1,29.97,NNW,346,3.0,4.0,61,0.00,,SCT060,0.00,VWS V14.01,2013-01-23 00:24:00,
2013-01-22 19:25:00,17.2,6.1,29.97,NNW,346,3.0,4.0,61,0.00,,FEW060,0.00,VWS V14.01,2013-01-23 00:25:00,
2013-01-22 19:26:00,17.2,6.1,29.97,SW,222,1.0,3.0,61,0.00,,FEW060,0.00,VWS V14.01,2013-01-23 00:26:00,
2013-01-22 19:27:00,17.2,6.4,29.97,WNW,300,5.0,9.0,62,0.00,,FEW060,0.00,VWS V14.01,2013-01-23 00:27:00,
2013-01-22 19:28:00,17.1,6.3,29.97,WSW,243,7.0,9.0,62,0.00,,FEW060,0.00,VWS V14.01,2013-01-23 00:28:00,
2013-01-22 19:29:00,17.1,6.3,29.97,SW,215,1.0,4.0,62,0.00,,SCT060,0.00,VWS V14.01,2013-01-23 00:29:00,
2013-01-22 19:30:00,17.1,6.3,29.97,SW,215,1.0,4.0,62,0.00,,FEW060,0.00,VWS V14.01,2013-01-23 00:30:00,
2013-01-22 19:31:00,17.1,6.7,29.97,NW,308,2.0,4.0,63,0.00,,FEW060,0.00,VWS V14.01,2013-01-23 00:31:00,
2013-01-22 19:32:00,17.1,7.0,29.97,WNW,284,5.0,9.0,64,0.00,,FEW060,0.00,VWS V14.01,2013-01-23 00:32:00,
2013-01-22 19:33:00,17.1,7.4,29.97,WNW,290,3.0,7.0,65,0.00,,FEW060,0.00,VWS V14.01,2013-01-23 00:33:00,
2013-01-22 19:34:00,17.0,8.3,29.97,WSW,253,2.0,3.0,68,0.00,,SCT060,0.00,VWS V14.01,2013-01-23 00:34:00,
2013-01-22 19:35:00,17.0,8.3,29.97,WSW,253,2.0,3.0,68,0.00,,FEW060,0.00,VWS V14.01,2013-01-23 00:35:00,
2013-01-22 19:36:00,16.9,8.2,29.97,NNW,344,3.0,5.0,68,0.00,,FEW060,0.00,VWS V14.01,2013-01-23 00:36:00,
2013-01-22 19:37:00,16.8,8.4,29.97,NE,36,1.0,5.0,69,0.00,,FEW060,0.00,VWS V14.01,2013-01-23 00:37:00,
2013-01-22 19:38:00,16.7,8.3,29.97,WSW,252,10.0,10.0,69,0.00,,FEW060,0.00,VWS V14.01,2013-01-23 00:38:00,
2013-01-22 19:39:00,16.6,8.5,29.97,WNW,288,6.0,6.0,70,0.00,,SCT060,0.00,VWS V14.01,2013-01-23 00:39:00,
2013-01-22 19:40:00,16.6,8.5,29.97,WNW,288,6.0,6.0,70,0.00,,FEW060,0.00,VWS V14.01,2013-01-23 00:40:00,
2013-01-22 19:41:00,16.6,8.5,29.97,West,259,1.0,6.0,70,0.00,,FEW060,0.00,VWS V14.01,2013-01-23 00:41:00,
2013-01-22 19:42:00,16.6,8.5,29.97,NNW,328,2.0,9.0,70,0.00,,FEW060,0.00,VWS V14.01,2013-01-23 00:42:00,
2013-01-22 19:43:00,16.6,8.2,29.97,NNW,333,1.0,4.0,69,0.00,,FEW060,0.00,VWS V14.01,2013-01-23 00:43:00,
2013-01-22 19:44:00,16.5,8.1,29.97,WNW,296,3.0,3.0,69,0.00,,SCT060,0.00,VWS V14.01,2013-01-23 00:44:00,
2013-01-22 19:45:00,16.5,8.1,29.97,WNW,296,3.0,3.0,69,0.00,,FEW060,0.00,VWS V14.01,2013-01-23 00:45:00,
2013-01-22 19:46:00,16.5,8.1,29.97,North,357,2.0,5.0,69,0.00,,FEW060,0.00,VWS V14.01,2013-01-23 00:46:00,
2013-01-22 19:47:00,16.4,8.0,29.97,ENE,71,1.0,4.0,69,0.00,,FEW060,0.00,VWS V14.01,2013-01-23 00:47:00,
2013-01-22 19:48:00,16.4,8.0,29.97,WNW,297,2.0,2.0,69,0.00,,FEW060,0.00,VWS V14.01,2013-01-23 00:48:00,
2013-01-22 19:49:00,16.3,7.6,29.97,North,355,4.0,4.0,68,0.00,,SCT060,0.00,VWS V14.01,2013-01-23 00:49:00,
2013-01-22 19:51:00,16.3,7.6,29.97,WSW,245,4.0,7.0,68,0.00,,FEW060,0.00,VWS V14.01,2013-01-23 00:51:00,
2013-01-22 19:52:00,16.3,7.3,29.98,West,281,1.0,4.0,67,0.00,,FEW060,0.00,VWS V14.01,2013-01-23 00:52:00,
2013-01-22 19:53:00,16.2,6.8,29.97,NNW,330,3.0,7.0,66,0.00,,FEW060,0.00,VWS V14.01,2013-01-23 00:53:00,
2013-01-22 19:54:00,16.2,6.5,29.98,North,353,2.0,4.0,65,0.00,,SCT060,0.00,VWS V14.01,2013-01-23 00:54:00,
2013-01-22 19:55:00,16.2,6.5,29.98,North,353,2.0,4.0,65,0.00,,FEW060,0.00,VWS V14.01,2013-01-23 00:55:00,
2013-01-22 19:56:00,16.1,6.4,29.98,North,350,4.0,9.0,65,0.00,,FEW060,0.00,VWS V14.01,2013-01-23 00:56:00,
2013-01-22 19:57:00,16.1,6.4,29.97,North,353,5.0,5.0,65,0.00,,FEW060,0.00,VWS V14.01,2013-01-23 00:57:00,
2013-01-22 19:58:00,16.1,6.4,29.98,WNW,294,3.0,6.0,65,0.00,,FEW060,0.00,VWS V14.01,2013-01-23 00:58:00,
2013-01-22 19:59:00,16.0,6.3,29.98,ENE,65,6.0,6.0,65,0.00,,SCT060,0.00,VWS V14.01,2013-01-23 00:59:00,
2013-01-22 20:00:00,16.0,6.3,29.98,ENE,65,6.0,6.0,65,0.00,,FEW060,0.00,VWS V14.01,2013-01-23 01:00:00,
2013-01-22 20:01:00,16.0,6.3,29.98,West,264,1.0,7.0,65,0.00,,FEW060,0.00,VWS V14.01,2013-01-23 01:01:00,
2013-01-22 20:02:00,16.0,6.3,29.98,NNE,12,3.0,3.0,65,0.00,,FEW060,0.00,VWS V14.01,2013-01-23 01:02:00,
2013-01-22 20:03:00,16.0,6.3,29.98,North,360,2.0,4.0,65,0.00,,FEW060,0.00,VWS V14.01,2013-01-23 01:03:00,
2013-01-22 20:04:00,15.9,6.2,29.98,North,6,2.0,2.0,65,0.00,,SCT060,0.00,VWS V14.01,2013-01-23 01:04:00,
2013-01-22 20:05:00,15.9,6.2,29.98,NNE,30,2.0,3.0,65,0.00,,FEW060,0.00,VWS V14.01,2013-01-23 01:05:00,
2013-01-22 20:06:00,15.9,6.2,29.98,NNE,16,1.0,3.0,65,0.00,,FEW060,0.00,VWS V14.01,2013-01-23 01:06:00,
2013-01-22 20:07:00,15.9,6.2,29.98,NNW,336,4.0,4.0,65,0.00,,FEW060,0.00,VWS V14.01,2013-01-23 01:07:00,
2013-01-22 20:08:00,15.8,6.1,29.98,NNE,30,1.0,4.0,65,0.00,,FEW060,0.00,VWS V14.01,2013-01-23 01:08:00,
2013-01-22 20:09:00,15.8,6.1,29.98,WNW,283,4.0,5.0,65,0.00,,SCT060,0.00,VWS V14.01,2013-01-23 01:09:00,
2013-01-22 20:10:00,15.8,6.1,29.98,West,266,1.0,7.0,65,0.00,,FEW060,0.00,VWS V14.01,2013-01-23 01:10:00,
2013-01-22 20:11:00,15.7,6.4,29.98,West,260,3.0,5.0,66,0.00,,FEW060,0.00,VWS V14.01,2013-01-23 01:11:00,
2013-01-22 20:12:00,15.7,6.4,29.98,West,278,1.0,7.0,66,0.00,,FEW060,0.00,VWS V14.01,2013-01-23 01:12:00,
2013-01-22 20:13:00,15.7,6.4,29.98,NNW,337,2.0,4.0,66,0.00,,FEW060,0.00,VWS V14.01,2013-01-23 01:13:00,
2013-01-22 20:14:00,15.6,6.6,29.99,WNW,291,2.0,5.0,67,0.00,,SCT060,0.00,VWS V14.01,2013-01-23 01:14:00,
2013-01-22 20:15:00,15.7,6.7,29.98,WNW,287,4.0,7.0,67,0.00,,FEW060,0.00,VWS V14.01,2013-01-23 01:15:00,
2013-01-22 20:16:00,15.6,6.6,29.99,WSW,250,1.0,5.0,67,0.00,,FEW060,0.00,VWS V14.01,2013-01-23 01:16:00,
2013-01-22 20:17:00,15.6,6.6,29.99,WNW,288,1.0,4.0,67,0.00,,FEW060,0.00,VWS V14.01,2013-01-23 01:17:00,
2013-01-22 20:18:00,15.6,6.6,29.98,West,264,8.0,9.0,67,0.00,,FEW060,0.00,VWS V14.01,2013-01-23 01:18:00,
2013-01-22 20:19:00,15.6,6.9,29.98,WSW,245,3.0,3.0,68,0.00,,SCT060,0.00,VWS V14.01,2013-01-23 01:19:00,
2013-01-22 20:20:00,15.6,6.9,29.98,West,281,3.0,5.0,68,0.00,,FEW060,0.00,VWS V14.01,2013-01-23 01:20:00,
2013-01-22 20:22:00,15.6,6.9,29.98,NNW,347,0.0,3.0,68,0.00,,FEW060,0.00,VWS V14.01,2013-01-23 01:22:00,
2013-01-22 20:23:00,15.6,6.6,29.98,WSW,240,0.0,2.0,67,0.00,,FEW060,0.00,VWS V14.01,2013-01-23 01:23:00,
2013-01-22 20:24:00,15.5,6.8,29.99,West,260,3.0,3.0,68,0.00,,SCT060,0.00,VWS V14.01,2013-01-23 01:24:00,
2013-01-22 20:26:00,15.5,6.8,29.98,NNW,329,1.0,3.0,68,0.00,,FEW060,0.00,VWS V14.01,2013-01-23 01:26:00,
2013-01-22 20:27:00,15.5,6.8,29.99,North,1,0.0,1.0,68,0.00,,FEW060,0.00,VWS V14.01,2013-01-23 01:27:00,
2013-01-22 20:29:00,15.4,6.7,29.99,WSW,246,1.0,1.0,68,0.00,,SCT060,0.00,VWS V14.01,2013-01-23 01:29:00,
2013-01-22 20:30:00,15.4,6.7,29.99,WNW,302,0.0,1.0,68,0.00,,FEW060,0.00,VWS V14.01,2013-01-23 01:30:00,
2013-01-22 20:32:00,15.4,6.7,29.99,NW,324,0.0,1.0,68,0.00,,FEW060,0.00,VWS V14.01,2013-01-23 01:32:00,
2013-01-22 20:33:00,15.3,6.7,29.98,West,269,2.0,5.0,68,0.00,,FEW060,0.00,VWS V14.01,2013-01-23 01:33:00,
2013-01-22 20:34:00,15.3,6.3,29.99,WNW,302,3.0,7.0,67,0.00,,SCT060,0.00,VWS V14.01,2013-01-23 01:34:00,
2013-01-22 20:35:00,15.3,6.7,29.99,WSW,255,7.0,7.0,68,0.00,,FEW060,0.00,VWS V14.01,2013-01-23 01:35:00,
2013-01-22 20:36:00,15.3,6.0,29.98,NW,305,2.0,7.0,66,0.00,,FEW060,0.00,VWS V14.01,2013-01-23 01:36:00,
2013-01-22 20:37:00,15.2,5.9,29.99,North,8,1.0,2.0,66,0.00,,FEW060,0.00,VWS V14.01,2013-01-23 01:37:00,
2013-01-22 20:38:00,15.2,5.9,29.99,West,263,1.0,4.0,66,0.00,,FEW060,0.00,VWS V14.01,2013-01-23 01:38:00,
2013-01-22 20:39:00,15.2,5.6,29.99,West,266,3.0,4.0,65,0.00,,SCT021,0.00,VWS V14.01,2013-01-23 01:39:00,
2013-01-22 20:40:00,15.2,5.6,29.99,West,259,1.0,3.0,65,0.00,,FEW060,0.00,VWS V14.01,2013-01-23 01:40:00,
2013-01-22 20:41:00,15.2,5.6,29.99,NW,304,1.0,4.0,65,0.00,,FEW060,0.00,VWS V14.01,2013-01-23 01:41:00,
2013-01-22 20:42:00,15.2,5.6,29.99,SW,218,1.0,4.0,65,0.00,,FEW060,0.00,VWS V14.01,2013-01-23 01:42:00,
2013-01-22 20:43:00,15.2,5.6,29.99,West,263,1.0,1.0,65,0.00,,FEW060,0.00,VWS V14.01,2013-01-23 01:43:00,
2013-01-22 20:44:00,15.1,5.5,29.99,West,280,3.0,3.0,65,0.00,,FEW060,0.00,VWS V14.01,2013-01-23 01:44:00,
2013-01-22 20:45:00,15.1,5.1,29.99,NW,323,1.0,4.0,64,0.00,,SCT021,0.00,VWS V14.01,2013-01-23 01:45:00,
2013-01-22 20:46:00,15.1,5.1,29.99,West,281,1.0,4.0,64,0.00,,FEW060,0.00,VWS V14.01,2013-01-23 01:46:00,
2013-01-22 20:47:00,15.1,5.1,29.99,West,266,3.0,6.0,64,0.00,,FEW060,0.00,VWS V14.01,2013-01-23 01:47:00,
2013-01-22 20:48:00,15.1,4.8,29.99,West,274,3.0,6.0,63,0.00,,FEW060,0.00,VWS V14.01,2013-01-23 01:48:00,
2013-01-22 20:49:00,15.1,4.4,29.99,NW,309,1.0,3.0,62,0.00,,FEW060,0.00,VWS V14.01,2013-01-23 01:49:00,
2013-01-22 20:50:00,15.0,4.7,29.99,WNW,290,1.0,2.0,63,0.00,,SCT021,0.00,VWS V14.01,2013-01-23 01:50:00,
2013-01-22 20:51:00,15.0,4.7,29.99,WNW,290,1.0,2.0,63,0.00,,FEW060,0.00,VWS V14.01,2013-01-23 01:51:00,
2013-01-22 20:52:00,15.0,4.7,29.99,WSW,255,4.0,5.0,63,0.00,,FEW060,0.00,VWS V14.01,2013-01-23 01:52:00,
2013-01-22 20:53:00,15.0,4.7,29.99,West,269,3.0,4.0,63,0.00,,FEW060,0.00,VWS V14.01,2013-01-23 01:53:00,
2013-01-22 20:54:00,15.0,4.3,29.99,ENE,68,2.0,3.0,62,0.00,,FEW060,0.00,VWS V14.01,2013-01-23 01:54:00,
2013-01-22 20:55:00,14.9,3.9,29.99,WNW,290,2.0,3.0,61,0.00,,SCT021,0.00,VWS V14.01,2013-01-23 01:55:00,
2013-01-22 20:56:00,14.9,3.9,29.99,WNW,290,2.0,3.0,61,0.00,,FEW060,0.00,VWS V14.01,2013-01-23 01:56:00,
2013-01-22 20:57:00,14.9,3.9,29.99,NNE,23,0.0,3.0,61,0.00,,FEW060,0.00,VWS V14.01,2013-01-23 01:57:00,
2013-01-22 20:58:00,14.9,3.9,29.99,WSW,243,4.0,5.0,61,0.00,,FEW060,0.00,VWS V14.01,2013-01-23 01:58:00,
2013-01-22 20:59:00,14.8,3.4,29.99,NW,306,2.0,4.0,60,0.00,,FEW060,0.00,VWS V14.01,2013-01-23 01:59:00,
2013-01-22 21:00:00,14.8,3.4,29.99,WSW,249,3.0,7.0,60,0.00,,SCT021,0.00,VWS V14.01,2013-01-23 02:00:00,
2013-01-22 21:01:00,14.8,3.4,29.99,WSW,249,3.0,7.0,60,0.00,,FEW060,0.00,VWS V14.01,2013-01-23 02:01:00,
2013-01-22 21:02:00,14.8,3.4,29.99,West,259,1.0,3.0,60,0.00,,FEW060,0.00,VWS V14.01,2013-01-23 02:02:00,
2013-01-22 21:03:00,14.8,3.4,29.99,West,278,2.0,3.0,60,0.00,,FEW060,0.00,VWS V14.01,2013-01-23 02:03:00,
2013-01-22 21:04:00,14.7,3.3,29.99,West,259,2.0,3.0,60,0.00,,FEW060,0.00,VWS V14.01,2013-01-23 02:04:00,
2013-01-22 21:05:00,14.7,3.0,29.99,WSW,255,0.0,3.0,59,0.00,,SCT021,0.00,VWS V14.01,2013-01-23 02:05:00,
2013-01-22 21:06:00,14.7,3.0,29.99,WSW,255,0.0,3.0,59,0.00,,FEW060,0.00,VWS V14.01,2013-01-23 02:06:00,
2013-01-22 21:07:00,14.7,3.3,29.99,WSW,252,2.0,4.0,60,0.00,,FEW060,0.00,VWS V14.01,2013-01-23 02:07:00,
2013-01-22 21:08:00,14.7,3.0,29.99,WSW,246,5.0,5.0,59,0.00,,FEW060,0.00,VWS V14.01,2013-01-23 02:08:00,
2013-01-22 21:09:00,14.7,3.0,29.99,NW,305,3.0,6.0,59,0.00,,FEW060,0.00,VWS V14.01,2013-01-23 02:09:00,
2013-01-22 21:10:00,14.6,2.9,29.99,West,281,2.0,3.0,59,0.00,,SCT021,0.00,VWS V14.01,2013-01-23 02:10:00,
2013-01-22 21:11:00,14.6,2.9,29.99,West,281,2.0,3.0,59,0.00,,FEW060,0.00,VWS V14.01,2013-01-23 02:11:00,
2013-01-22 21:12:00,14.6,2.5,29.99,West,281,2.0,7.0,58,0.00,,FEW060,0.00,VWS V14.01,2013-01-23 02:12:00,
2013-01-22 21:13:00,14.5,2.4,29.99,WNW,288,5.0,7.0,58,0.00,,FEW060,0.00,VWS V14.01,2013-01-23 02:13:00,
2013-01-22 21:14:00,14.5,2.1,29.99,SE,141,1.0,6.0,57,0.00,,FEW060,0.00,VWS V14.01,2013-01-23 02:14:00,
2013-01-22 21:15:00,14.5,2.0,29.99,West,273,1.0,4.0,57,0.00,,SCT021,0.00,VWS V14.01,2013-01-23 02:15:00,
2013-01-22 21:16:00,14.5,2.1,29.99,West,273,1.0,4.0,57,0.00,,FEW060,0.00,VWS V14.01,2013-01-23 02:16:00,
2013-01-22 21:17:00,14.5,2.1,29.99,NNW,333,3.0,7.0,57,0.00,,FEW060,0.00,VWS V14.01,2013-01-23 02:17:00,
2013-01-22 21:18:00,14.4,2.0,29.99,WSW,250,6.0,8.0,57,0.00,,FEW060,0.00,VWS V14.01,2013-01-23 02:18:00,
2013-01-22 21:19:00,14.5,1.7,29.99,West,276,2.0,6.0,56,0.00,,FEW060,0.00,VWS V14.01,2013-01-23 02:19:00,
2013-01-22 21:20:00,14.4,1.6,30.00,West,266,2.0,10.0,56,0.00,,SCT021,0.00,VWS V14.01,2013-01-23 02:20:00,
2013-01-22 21:21:00,14.4,1.6,30.00,West,266,2.0,10.0,56,0.00,,FEW060,0.00,VWS V14.01,2013-01-23 02:21:00,
2013-01-22 21:22:00,14.4,1.6,29.99,WSW,252,2.0,4.0,56,0.00,,FEW060,0.00,VWS V14.01,2013-01-23 02:22:00,
2013-01-22 21:23:00,14.4,1.6,29.99,WSW,252,4.0,4.0,56,0.00,,FEW060,0.00,VWS V14.01,2013-01-23 02:23:00,
2013-01-22 21:24:00,14.4,1.6,29.99,West,273,2.0,5.0,56,0.00,,FEW060,0.00,VWS V14.01,2013-01-23 02:24:00,
2013-01-22 21:25:00,14.4,1.6,29.99,WSW,245,2.0,3.0,56,0.00,,SCT021,0.00,VWS V14.01,2013-01-23 02:25:00,
2013-01-22 21:26:00,14.4,1.6,29.99,WSW,245,2.0,3.0,56,0.00,,FEW060,0.00,VWS V14.01,2013-01-23 02:26:00,
2013-01-22 21:27:00,14.4,2.0,30.00,WSW,249,0.0,2.0,57,0.00,,FEW060,0.00,VWS V14.01,2013-01-23 02:27:00,
2013-01-22 21:28:00,14.3,1.9,30.00,NNW,328,0.0,1.0,57,0.00,,FEW060,0.00,VWS V14.01,2013-01-23 02:28:00,
2013-01-22 21:29:00,14.3,1.9,30.00,West,280,1.0,5.0,57,0.00,,FEW060,0.00,VWS V14.01,2013-01-23 02:29:00,
2013-01-22 21:30:00,14.2,1.8,30.00,WNW,293,3.0,5.0,57,0.00,,SCT021,0.00,VWS V14.01,2013-01-23 02:30:00,
2013-01-22 21:31:00,14.2,1.8,30.00,WNW,293,3.0,5.0,57,0.00,,FEW060,0.00,VWS V14.01,2013-01-23 02:31:00,
2013-01-22 21:32:00,14.2,1.8,30.00,West,280,7.0,7.0,57,0.00,,FEW060,0.00,VWS V14.01,2013-01-23 02:32:00,
2013-01-22 21:33:00,14.2,1.4,30.00,WNW,290,1.0,7.0,56,0.00,,FEW060,0.00,VWS V14.01,2013-01-23 02:33:00,
2013-01-22 21:34:00,14.2,1.4,30.00,WSW,243,3.0,6.0,56,0.00,,FEW060,0.00,VWS V14.01,2013-01-23 02:34:00,
2013-01-22 21:35:00,14.2,1.4,30.00,WNW,285,1.0,6.0,56,0.00,,SCT021,0.00,VWS V14.01,2013-01-23 02:35:00,
2013-01-22 21:36:00,14.2,1.4,30.00,WNW,285,1.0,6.0,56,0.00,,FEW060,0.00,VWS V14.01,2013-01-23 02:36:00,
2013-01-22 21:37:00,14.1,1.3,30.00,WNW,299,2.0,4.0,56,0.00,,FEW060,0.00,VWS V14.01,2013-01-23 02:37:00,
2013-01-22 21:38:00,14.1,1.3,30.00,NNE,27,1.0,4.0,56,0.00,,FEW060,0.00,VWS V14.01,2013-01-23 02:38:00,
2013-01-22 21:39:00,14.1,1.7,30.00,West,267,5.0,5.0,57,0.00,,FEW060,0.00,VWS V14.01,2013-01-23 02:39:00,
2013-01-22 21:40:00,14.1,1.3,30.00,West,281,1.0,7.0,56,0.00,,CLR,0.00,VWS V14.01,2013-01-23 02:40:00,
2013-01-22 21:41:00,14.1,1.3,30.00,West,281,1.0,7.0,56,0.00,,FEW060,0.00,VWS V14.01,2013-01-23 02:41:00,
2013-01-22 21:42:00,14.1,1.3,30.00,WNW,290,1.0,4.0,56,0.00,,FEW060,0.00,VWS V14.01,2013-01-23 02:42:00,
2013-01-22 21:43:00,14.1,1.7,30.00,West,277,4.0,4.0,57,0.00,,FEW060,0.00,VWS V14.01,2013-01-23 02:43:00,
2013-01-22 21:44:00,14.1,1.7,30.00,WNW,290,0.0,4.0,57,0.00,,FEW060,0.00,VWS V14.01,2013-01-23 02:44:00,
2013-01-22 21:45:00,14.0,1.6,30.00,West,263,3.0,6.0,57,0.00,,CLR,0.00,VWS V14.01,2013-01-23 02:45:00,
2013-01-22 21:46:00,14.0,1.6,30.00,West,263,3.0,6.0,57,0.00,,FEW060,0.00,VWS V14.01,2013-01-23 02:46:00,
2013-01-22 21:47:00,14.0,1.6,30.00,West,267,1.0,3.0,57,0.00,,FEW060,0.00,VWS V14.01,2013-01-23 02:47:00,
2013-01-22 21:48:00,14.0,1.6,30.00,NW,309,1.0,3.0,57,0.00,,FEW060,0.00,VWS V14.01,2013-01-23 02:48:00,
2013-01-22 21:49:00,14.0,1.6,30.00,WNW,302,1.0,3.0,57,0.00,,FEW060,0.00,VWS V14.01,2013-01-23 02:49:00,
2013-01-22 21:50:00,13.9,1.5,30.00,West,277,2.0,3.0,57,0.00,,CLR,0.00,VWS V14.01,2013-01-23 02:50:00,
2013-01-22 21:51:00,13.9,1.5,30.00,West,277,2.0,3.0,57,0.00,,FEW060,0.00,VWS V14.01,2013-01-23 02:51:00,
2013-01-22 21:52:00,13.9,1.5,30.00,WSW,246,3.0,6.0,57,0.00,,FEW060,0.00,VWS V14.01,2013-01-23 02:52:00,
2013-01-22 21:53:00,13.9,1.5,30.00,WNW,297,4.0,5.0,57,0.00,,FEW060,0.00,VWS V14.01,2013-01-23 02:53:00,
2013-01-22 21:54:00,13.8,1.4,30.00,NW,304,1.0,4.0,57,0.00,,FEW060,0.00,VWS V14.01,2013-01-23 02:54:00,
2013-01-22 21:55:00,13.8,1.4,30.00,NW,310,0.0,4.0,57,0.00,,CLR,0.00,VWS V14.01,2013-01-23 02:55:00,
2013-01-22 21:56:00,13.8,1.4,30.00,NW,310,0.0,4.0,57,0.00,,FEW060,0.00,VWS V14.01,2013-01-23 02:56:00,
2013-01-22 21:57:00,13.7,1.3,30.00,West,277,1.0,5.0,57,0.00,,FEW060,0.00,VWS V14.01,2013-01-23 02:57:00,
2013-01-22 21:58:00,13.7,1.3,30.01,NNW,334,1.0,1.0,57,0.00,,FEW060,0.00,VWS V14.01,2013-01-23 02:58:00,
2013-01-22 21:59:00,13.7,1.7,30.01,WNW,302,0.0,2.0,58,0.00,,FEW060,0.00,VWS V14.01,2013-01-23 02:59:00,
2013-01-22 22:00:00,13.6,1.6,30.01,WNW,283,1.0,2.0,58,0.00,,CLR,0.00,VWS V14.01,2013-01-23 03:00:00,
2013-01-22 22:01:00,13.6,1.6,30.01,WNW,283,1.0,2.0,58,0.00,,FEW060,0.00,VWS V14.01,2013-01-23 03:01:00,
2013-01-22 22:02:00,13.6,1.6,30.01,WNW,287,3.0,4.0,58,0.00,,FEW060,0.00,VWS V14.01,2013-01-23 03:02:00,
2013-01-22 22:03:00,13.6,1.6,30.01,WNW,288,1.0,4.0,58,0.00,,FEW060,0.00,VWS V14.01,2013-01-23 03:03:00,
2013-01-22 22:04:00,13.6,1.6,30.01,West,271,3.0,3.0,58,0.00,,FEW060,0.00,VWS V14.01,2013-01-23 03:04:00,
2013-01-22 22:05:00,13.5,1.5,30.01,NW,322,1.0,2.0,58,0.00,,CLR,0.00,VWS V14.01,2013-01-23 03:05:00,
2013-01-22 22:06:00,13.5,1.5,30.01,NW,322,1.0,2.0,58,0.00,,FEW060,0.00,VWS V14.01,2013-01-23 03:06:00,
2013-01-22 22:07:00,13.5,1.5,30.01,West,273,3.0,3.0,58,0.00,,FEW060,0.00,VWS V14.01,2013-01-23 03:07:00,
2013-01-22 22:08:00,13.5,1.5,30.01,WSW,256,3.0,4.0,58,0.00,,FEW060,0.00,VWS V14.01,2013-01-23 03:08:00,
2013-01-22 22:09:00,13.4,1.4,30.01,WSW,242,0.0,3.0,58,0.00,,FEW060,0.00,VWS V14.01,2013-01-23 03:09:00,
2013-01-22 22:10:00,13.4,1.4,30.01,West,264,0.0,3.0,58,0.00,,CLR,0.00,VWS V14.01,2013-01-23 03:10:00,
2013-01-22 22:11:00,13.4,1.4,30.01,West,264,0.0,3.0,58,0.00,,FEW060,0.00,VWS V14.01,2013-01-23 03:11:00,
2013-01-22 22:12:00,13.4,1.4,30.01,West,264,1.0,1.0,58,0.00,,FEW060,0.00,VWS V14.01,2013-01-23 03:12:00,
2013-01-22 22:13:00,13.4,1.4,30.01,West,271,3.0,3.0,58,0.00,,FEW060,0.00,VWS V14.01,2013-01-23 03:13:00,
2013-01-22 22:14:00,13.3,1.3,30.01,WNW,287,1.0,3.0,58,0.00,,FEW060,0.00,VWS V14.01,2013-01-23 03:14:00,
2013-01-22 22:15:00,13.3,0.9,30.01,WSW,238,0.0,1.0,57,0.00,,CLR,0.00,VWS V14.01,2013-01-23 03:15:00,
2013-01-22 22:16:00,13.3,0.9,30.01,NW,305,1.0,6.0,57,0.00,,FEW060,0.00,VWS V14.01,2013-01-23 03:16:00,
2013-01-22 22:17:00,13.3,0.9,30.01,NNW,333,0.0,2.0,57,0.00,,FEW060,0.00,VWS V14.01,2013-01-23 03:17:00,
2013-01-22 22:18:00,13.3,1.3,30.01,West,263,1.0,2.0,58,0.00,,FEW060,0.00,VWS V14.01,2013-01-23 03:18:00,
2013-01-22 22:19:00,13.2,1.2,30.01,WSW,257,2.0,5.0,58,0.00,,FEW060,0.00,VWS V14.01,2013-01-23 03:19:00,
2013-01-22 22:20:00,13.2,1.2,30.01,West,261,2.0,2.0,58,0.00,,CLR,0.00,VWS V14.01,2013-01-23 03:20:00,
2013-01-22 22:21:00,13.2,1.2,30.01,West,274,1.0,2.0,58,0.00,,FEW060,0.00,VWS V14.01,2013-01-23 03:21:00,
2013-01-22 22:22:00,13.2,1.2,30.01,WSW,245,0.0,2.0,58,0.00,,FEW060,0.00,VWS V14.01,2013-01-23 03:22:00,
2013-01-22 22:23:00,13.2,1.2,30.01,NW,316,1.0,4.0,58,0.00,,FEW060,0.00,VWS V14.01,2013-01-23 03:23:00,
2013-01-22 22:24:00,13.1,1.1,30.01,West,277,0.0,6.0,58,0.00,,FEW060,0.00,VWS V14.01,2013-01-23 03:24:00,
2013-01-22 22:25:00,13.1,0.7,30.01,WSW,238,2.0,2.0,57,0.00,,CLR,0.00,VWS V14.01,2013-01-23 03:25:00,
2013-01-22 22:26:00,13.1,0.7,30.01,WNW,283,2.0,3.0,57,0.00,,FEW060,0.00,VWS V14.01,2013-01-23 03:26:00,
2013-01-22 22:27:00,13.1,0.7,30.01,West,264,5.0,5.0,57,0.00,,FEW060,0.00,VWS V14.01,2013-01-23 03:27:00,
2013-01-22 22:28:00,13.1,0.7,30.01,West,264,3.0,6.0,57,0.00,,FEW060,0.00,VWS V14.01,2013-01-23 03:28:00,
2013-01-22 22:29:00,13.0,0.6,30.01,WSW,250,4.0,4.0,57,0.00,,FEW060,0.00,VWS V14.01,2013-01-23 03:29:00,
2013-01-22 22:30:00,13.0,0.6,30.02,WSW,256,2.0,2.0,57,0.00,,CLR,0.00,VWS V14.01,2013-01-23 03:30:00,
2013-01-22 22:31:00,13.0,0.6,30.02,North,4,1.0,2.0,57,0.00,,FEW060,0.00,VWS V14.01,2013-01-23 03:31:00,
2013-01-22 22:32:00,13.0,0.6,30.01,WNW,288,0.0,3.0,57,0.00,,FEW060,0.00,VWS V14.01,2013-01-23 03:32:00,
2013-01-22 22:33:00,13.0,1.0,30.01,WNW,293,2.0,2.0,58,0.00,,FEW060,0.00,VWS V14.01,2013-01-23 03:33:00,
2013-01-22 22:34:00,13.0,0.6,30.02,West,273,1.0,2.0,57,0.00,,FEW060,0.00,VWS V14.01,2013-01-23 03:34:00,
2013-01-22 22:35:00,12.9,0.9,30.02,WNW,290,1.0,1.0,58,0.00,,CLR,0.00,VWS V14.01,2013-01-23 03:35:00,
2013-01-22 22:36:00,13.0,1.0,30.02,NNW,343,1.0,4.0,58,0.00,,FEW060,0.00,VWS V14.01,2013-01-23 03:36:00,
2013-01-22 22:37:00,12.9,0.9,30.02,WNW,285,0.0,1.0,58,0.00,,FEW060,0.00,VWS V14.01,2013-01-23 03:37:00,
2013-01-22 22:38:00,12.9,0.9,30.02,West,281,0.0,0.0,58,0.00,,FEW060,0.00,VWS V14.01,2013-01-23 03:38:00,
2013-01-22 22:39:00,12.9,0.9,30.02,WSW,242,1.0,2.0,58,0.00,,FEW060,0.00,VWS V14.01,2013-01-23 03:39:00,
2013-01-22 22:40:00,12.9,0.9,30.02,WNW,302,0.0,2.0,58,0.00,,CLR,0.00,VWS V14.01,2013-01-23 03:40:00,
2013-01-22 22:41:00,12.9,0.9,30.02,WNW,300,2.0,3.0,58,0.00,,FEW060,0.00,VWS V14.01,2013-01-23 03:41:00,
2013-01-22 22:42:00,12.9,0.9,30.02,WNW,302,0.0,2.0,58,0.00,,FEW060,0.00,VWS V14.01,2013-01-23 03:42:00,
2013-01-22 22:43:00,12.8,0.8,30.02,WNW,300,1.0,1.0,58,0.00,,FEW060,0.00,VWS V14.01,2013-01-23 03:43:00,
2013-01-22 22:44:00,12.8,1.2,30.02,WSW,255,0.0,2.0,59,0.00,,FEW060,0.00,VWS V14.01,2013-01-23 03:44:00,
2013-01-22 22:45:00,12.8,1.2,30.02,NW,316,1.0,2.0,59,0.00,,FEW060,0.00,VWS V14.01,2013-01-23 03:45:00,
2013-01-22 22:46:00,12.7,1.1,30.02,West,273,1.0,3.0,59,0.00,,CLR,0.00,VWS V14.01,2013-01-23 03:46:00,
2013-01-22 22:47:00,12.8,1.2,30.02,WNW,297,2.0,3.0,59,0.00,,FEW060,0.00,VWS V14.01,2013-01-23 03:47:00,
2013-01-22 22:48:00,12.8,1.2,30.02,WNW,297,0.0,2.0,59,0.00,,FEW060,0.00,VWS V14.01,2013-01-23 03:48:00,
2013-01-22 22:49:00,12.7,1.5,30.02,West,273,2.0,2.0,60,0.00,,FEW060,0.00,VWS V14.01,2013-01-23 03:49:00,
2013-01-22 22:50:00,12.7,1.5,30.02,NNW,333,0.0,2.0,60,0.00,,FEW060,0.00,VWS V14.01,2013-01-23 03:50:00,
2013-01-22 22:51:00,12.6,1.4,30.02,West,273,3.0,4.0,60,0.00,,CLR,0.00,VWS V14.01,2013-01-23 03:51:00,
2013-01-22 22:52:00,12.6,1.4,30.02,West,273,3.0,4.0,60,0.00,,FEW060,0.00,VWS V14.01,2013-01-23 03:52:00,
2013-01-22 22:53:00,12.6,1.4,30.02,WNW,297,2.0,3.0,60,0.00,,FEW060,0.00,VWS V14.01,2013-01-23 03:53:00,
2013-01-22 22:54:00,12.6,1.7,30.02,West,276,2.0,2.0,61,0.00,,FEW060,0.00,VWS V14.01,2013-01-23 03:54:00,
2013-01-22 22:55:00,12.6,1.7,30.02,West,269,3.0,5.0,61,0.00,,FEW060,0.00,VWS V14.01,2013-01-23 03:55:00,
2013-01-22 22:56:00,12.5,1.6,30.02,WSW,255,2.0,2.0,61,0.00,,CLR,0.00,VWS V14.01,2013-01-23 03:56:00,
2013-01-22 22:57:00,12.6,1.7,30.02,WSW,256,2.0,3.0,61,0.00,,FEW060,0.00,VWS V14.01,2013-01-23 03:57:00,
2013-01-22 22:58:00,12.5,1.6,30.02,WSW,255,0.0,2.0,61,0.00,,FEW060,0.00,VWS V14.01,2013-01-23 03:58:00,
2013-01-22 22:59:00,12.5,2.0,30.02,WSW,256,1.0,2.0,62,0.00,,FEW060,0.00,VWS V14.01,2013-01-23 03:59:00,
2013-01-22 23:00:00,12.5,2.0,30.02,SW,227,0.0,1.0,62,0.00,,FEW060,0.00,VWS V14.01,2013-01-23 04:00:00,
2013-01-22 23:01:00,12.4,1.9,30.02,WSW,248,1.0,1.0,62,0.00,,CLR,0.00,VWS V14.01,2013-01-23 04:01:00,
2013-01-22 23:02:00,12.5,2.0,30.02,WSW,257,0.0,2.0,62,0.00,,FEW060,0.00,VWS V14.01,2013-01-23 04:02:00,
2013-01-22 23:03:00,12.4,1.9,30.02,WSW,255,1.0,1.0,62,0.00,,FEW060,0.00,VWS V14.01,2013-01-23 04:03:00,
2013-01-22 23:04:00,12.4,1.9,30.02,West,280,2.0,4.0,62,0.00,,FEW060,0.00,VWS V14.01,2013-01-23 04:04:00,
2013-01-22 23:05:00,12.4,1.9,30.02,West,274,3.0,3.0,62,0.00,,FEW060,0.00,VWS V14.01,2013-01-23 04:05:00,
2013-01-22 23:06:00,12.4,1.9,30.02,West,280,2.0,4.0,62,0.00,,FEW060,0.00,VWS V14.01,2013-01-23 04:06:00,
2013-01-22 23:07:00,12.4,1.9,30.02,WNW,300,2.0,3.0,62,0.00,,CLR,0.00,VWS V14.01,2013-01-23 04:07:00,
2013-01-22 23:08:00,12.4,1.9,30.02,West,267,2.0,3.0,62,0.00,,FEW060,0.00,VWS V14.01,2013-01-23 04:08:00,
2013-01-22 23:09:00,12.4,1.9,30.02,WNW,293,3.0,5.0,62,0.00,,FEW060,0.00,VWS V14.01,2013-01-23 04:09:00,
2013-01-22 23:10:00,12.4,1.9,30.02,WNW,287,0.0,3.0,62,0.00,,FEW060,0.00,VWS V14.01,2013-01-23 04:10:00,
2013-01-22 23:11:00,12.3,1.8,30.02,West,263,2.0,3.0,62,0.00,,FEW060,0.00,VWS V14.01,2013-01-23 04:11:00,
2013-01-22 23:12:00,12.3,1.8,30.02,West,267,3.0,4.0,62,0.00,,CLR,0.00,VWS V14.01,2013-01-23 04:12:00,
2013-01-22 23:13:00,12.3,1.8,30.02,West,262,3.0,4.0,62,0.00,,FEW060,0.00,VWS V14.01,2013-01-23 04:13:00,
2013-01-22 23:14:00,12.3,1.8,30.02,WSW,238,0.0,7.0,62,0.00,,FEW060,0.00,VWS V14.01,2013-01-23 04:14:00,
2013-01-22 23:15:00,12.3,1.8,30.03,West,280,2.0,4.0,62,0.00,,FEW060,0.00,VWS V14.01,2013-01-23 04:15:00,
2013-01-22 23:16:00,12.3,1.8,30.03,SW,218,2.0,3.0,62,0.00,,FEW060,0.00,VWS V14.01,2013-01-23 04:16:00,
2013-01-22 23:17:00,12.3,1.8,30.03,WSW,252,0.0,1.0,62,0.00,,CLR,0.00,VWS V14.01,2013-01-23 04:17:00,
2013-01-22 23:18:00,12.3,1.8,30.03,WSW,252,0.0,1.0,62,0.00,,FEW060,0.00,VWS V14.01,2013-01-23 04:18:00,
2013-01-22 23:19:00,12.2,1.7,30.02,WSW,249,0.0,2.0,62,0.00,,FEW060,0.00,VWS V14.01,2013-01-23 04:19:00,
2013-01-22 23:20:00,12.2,2.0,30.03,West,269,0.0,2.0,63,0.00,,FEW060,0.00,VWS V14.01,2013-01-23 04:20:00,
2013-01-22 23:21:00,12.2,2.0,30.03,West,277,1.0,2.0,63,0.00,,FEW060,0.00,VWS V14.01,2013-01-23 04:21:00,
2013-01-22 23:22:00,12.2,2.0,30.03,WNW,297,2.0,4.0,63,0.00,,CLR,0.00,VWS V14.01,2013-01-23 04:22:00,
2013-01-22 23:23:00,12.2,2.0,30.03,WNW,297,2.0,4.0,63,0.00,,FEW060,0.00,VWS V14.01,2013-01-23 04:23:00,
2013-01-22 23:24:00,12.2,2.0,30.03,NW,314,2.0,3.0,63,0.00,,FEW060,0.00,VWS V14.01,2013-01-23 04:24:00,
2013-01-22 23:25:00,12.1,1.9,30.03,West,274,0.0,3.0,63,0.00,,FEW060,0.00,VWS V14.01,2013-01-23 04:25:00,
2013-01-22 23:26:00,12.1,1.9,30.03,NW,304,1.0,3.0,63,0.00,,FEW060,0.00,VWS V14.01,2013-01-23 04:26:00,
2013-01-22 23:27:00,12.1,1.9,30.02,South,174,2.0,3.0,63,0.00,,CLR,0.00,VWS V14.01,2013-01-23 04:27:00,
2013-01-22 23:28:00,12.1,1.9,30.02,South,174,2.0,3.0,63,0.00,,FEW060,0.00,VWS V14.01,2013-01-23 04:28:00,
2013-01-22 23:29:00,12.1,1.9,30.03,WSW,257,0.0,4.0,63,0.00,,FEW060,0.00,VWS V14.01,2013-01-23 04:29:00,
2013-01-22 23:30:00,12.0,1.8,30.02,West,259,1.0,2.0,63,0.00,,FEW060,0.00,VWS V14.01,2013-01-23 04:30:00,
2013-01-22 23:31:00,12.0,1.8,30.03,WSW,256,1.0,2.0,63,0.00,,FEW060,0.00,VWS V14.01,2013-01-23 04:31:00,
2013-01-22 23:32:00,11.9,1.7,30.03,WNW,290,1.0,2.0,63,0.00,,CLR,0.00,VWS V14.01,2013-01-23 04:32:00,
2013-01-22 23:33:00,12.0,1.8,30.03,WNW,290,2.0,3.0,63,0.00,,FEW060,0.00,VWS V14.01,2013-01-23 04:33:00,
2013-01-22 23:34:00,11.9,1.4,30.03,NW,322,0.0,2.0,62,0.00,,FEW060,0.00,VWS V14.01,2013-01-23 04:34:00,
2013-01-22 23:35:00,11.9,1.7,30.03,West,264,1.0,2.0,63,0.00,,FEW060,0.00,VWS V14.01,2013-01-23 04:35:00,
2013-01-22 23:36:00,11.9,1.7,30.03,West,277,2.0,2.0,63,0.00,,FEW060,0.00,VWS V14.01,2013-01-23 04:36:00,
2013-01-22 23:37:00,11.9,1.4,30.03,WSW,257,0.0,2.0,62,0.00,,CLR,0.00,VWS V14.01,2013-01-23 04:37:00,
2013-01-22 23:38:00,11.9,1.4,30.03,WSW,257,2.0,5.0,62,0.00,,FEW060,0.00,VWS V14.01,2013-01-23 04:38:00,
2013-01-22 23:39:00,11.9,1.4,30.02,SW,217,1.0,2.0,62,0.00,,FEW060,0.00,VWS V14.01,2013-01-23 04:39:00,
2013-01-22 23:40:00,11.8,1.3,30.03,West,259,2.0,2.0,62,0.00,,FEW060,0.00,VWS V14.01,2013-01-23 04:40:00,
2013-01-22 23:41:00,11.8,1.6,30.02,WSW,242,0.0,3.0,63,0.00,,FEW060,0.00,VWS V14.01,2013-01-23 04:41:00,
2013-01-22 23:42:00,11.8,1.6,30.02,WSW,256,2.0,3.0,63,0.00,,CLR,0.00,VWS V14.01,2013-01-23 04:42:00,
2013-01-22 23:44:00,11.7,1.5,30.02,WNW,302,2.0,3.0,63,0.00,,FEW060,0.00,VWS V14.01,2013-01-23 04:44:00,
2013-01-22 23:45:00,11.7,1.5,30.03,West,271,1.0,2.0,63,0.00,,FEW060,0.00,VWS V14.01,2013-01-23 04:45:00,
2013-01-22 23:46:00,11.7,1.5,30.02,West,264,0.0,4.0,63,0.00,,FEW060,0.00,VWS V14.01,2013-01-23 04:46:00,
2013-01-22 23:47:00,11.6,1.5,30.02,NW,319,0.0,2.0,63,0.00,,CLR,0.00,VWS V14.01,2013-01-23 04:47:00,
2013-01-22 23:48:00,11.6,1.5,30.02,West,270,2.0,4.0,63,0.00,,FEW060,0.00,VWS V14.01,2013-01-23 04:48:00,
2013-01-22 23:49:00,11.7,1.5,30.02,WNW,285,1.0,2.0,63,0.00,,FEW060,0.00,VWS V14.01,2013-01-23 04:49:00,
2013-01-22 23:50:00,11.6,1.5,30.02,WNW,290,1.0,1.0,63,0.00,,FEW060,0.00,VWS V14.01,2013-01-23 04:50:00,
2013-01-22 23:51:00,11.6,1.5,30.02,NNW,328,1.0,3.0,63,0.00,,FEW060,0.00,VWS V14.01,2013-01-23 04:51:00,
2013-01-22 23:52:00,11.6,1.5,30.02,WSW,257,2.0,3.0,63,0.00,,FEW060,0.00,VWS V14.01,2013-01-23 04:52:00,
2013-01-22 23:53:00,11.5,1.4,30.02,West,266,2.0,2.0,63,0.00,,CLR,0.00,VWS V14.01,2013-01-23 04:53:00,
2013-01-22 23:54:00,11.5,1.4,30.02,WSW,249,2.0,4.0,63,0.00,,FEW060,0.00,VWS V14.01,2013-01-23 04:54:00,
2013-01-22 23:55:00,11.5,1.4,30.02,WSW,250,4.0,4.0,63,0.00,,FEW060,0.00,VWS V14.01,2013-01-23 04:55:00,
2013-01-22 23:56:00,11.5,1.4,30.02,NNE,33,0.0,5.0,63,0.00,,FEW060,0.00,VWS V14.01,2013-01-23 04:56:00,
2013-01-22 23:57:00,11.4,1.3,30.02,WSW,250,2.0,3.0,63,0.00,,FEW060,0.00,VWS V14.01,2013-01-23 04:57:00,
2013-01-22 23:58:00,11.4,1.3,30.02,WNW,288,0.0,2.0,63,0.00,,CLR,0.00,VWS V14.01,2013-01-23 04:58:00,
2013-01-22 23:59:00,11.4,1.3,30.02,WNW,288,0.0,2.0,63,0.00,,FEW060,0.00,VWS V14.01,2013-01-23 04:59:00,